<?xml version="1.0" encoding="UTF-8" standalone="no" ?>
<gpx xmlns="http://www.topografix.com/GPX/1/1" xmlns:xsi="http://www.w3.org/2001/XMLSchema-instance" xsi:schemaLocation="http://www.topografix.com/GPX/1/1 http://www.topografix.com/GPX/1/1/gpx.xsd" version="1.1" creator="VisuGPX - https://www.visugpx.com">
  <metadata>
    <name>120_Circuit 51 km Les Herbiers_Les Herbiers édité par cth85.com</name>
    <desc><![CDATA[Circuit de 51 km passant par:
Les Herbiers
la gare des Epesses
Saint Mars la Réorthe
nozillac
Chateaumur
Saint Amand sur Sèvre
Mallièvre
Saint Malo du Bois
Chambretaud
les enfreins
la creulière
Les Herbiers]]></desc>
  </metadata>
  <trk>
    <name><![CDATA[51_120_cth85.com]]></name>
    <desc><![CDATA[

]]></desc>
    <extensions>
      <line xmlns="http://www.topografix.com/GPX/gpx_style/0/2">
        <color>0000FF</color>
        <width>4</width>
      </line>
    </extensions>
    <trkseg>
      <trkpt lat="46.86326" lon="-1.00624">
        <ele>118.2</ele>
        <time>2024-10-17T20:58:20.000Z</time>
      </trkpt>
      <trkpt lat="46.86324" lon="-1.00626">
        <ele>118.2</ele>
        <time>2024-10-17T20:58:20.367Z</time>
      </trkpt>
      <trkpt lat="46.86272" lon="-1.00663">
        <ele>117.5</ele>
        <time>2024-10-17T20:58:28.212Z</time>
      </trkpt>
      <trkpt lat="46.86236" lon="-1.0068">
        <ele>116.2</ele>
        <time>2024-10-17T20:58:32.492Z</time>
      </trkpt>
      <trkpt lat="46.86192" lon="-1.007">
        <ele>115.4</ele>
        <time>2024-10-17T20:58:38.465Z</time>
      </trkpt>
      <trkpt lat="46.86183" lon="-1.00704">
        <ele>115.5</ele>
        <time>2024-10-17T20:58:40.047Z</time>
      </trkpt>
      <trkpt lat="46.86142" lon="-1.00728">
        <ele>115.3</ele>
        <time>2024-10-17T20:58:46.461Z</time>
      </trkpt>
      <trkpt lat="46.86095" lon="-1.00767">
        <ele>114.7</ele>
        <time>2024-10-17T20:58:53.857Z</time>
      </trkpt>
      <trkpt lat="46.86072" lon="-1.00793">
        <ele>114</ele>
        <time>2024-10-17T20:58:57.421Z</time>
      </trkpt>
      <trkpt lat="46.86" lon="-1.00891">
        <ele>113</ele>
        <time>2024-10-17T20:59:10.994Z</time>
      </trkpt>
      <trkpt lat="46.85985" lon="-1.00915">
        <ele>113</ele>
        <time>2024-10-17T20:59:14.363Z</time>
      </trkpt>
      <trkpt lat="46.85957" lon="-1.00964">
        <ele>112.8</ele>
        <time>2024-10-17T20:59:20.702Z</time>
      </trkpt>
      <trkpt lat="46.85951" lon="-1.00979">
        <ele>113</ele>
        <time>2024-10-17T20:59:22.834Z</time>
      </trkpt>
      <trkpt lat="46.85879" lon="-1.00945">
        <ele>112.6</ele>
        <time>2024-10-17T20:59:33.746Z</time>
      </trkpt>
      <trkpt lat="46.85858" lon="-1.00941">
        <ele>112</ele>
        <time>2024-10-17T20:59:36.256Z</time>
      </trkpt>
      <trkpt lat="46.85855" lon="-1.00943">
        <ele>112</ele>
        <time>2024-10-17T20:59:36.755Z</time>
      </trkpt>
      <trkpt lat="46.85846" lon="-1.00942">
        <ele>112</ele>
        <time>2024-10-17T20:59:38.123Z</time>
      </trkpt>
      <trkpt lat="46.8584" lon="-1.00934">
        <ele>112</ele>
        <time>2024-10-17T20:59:39.353Z</time>
      </trkpt>
      <trkpt lat="46.85838" lon="-1.00922">
        <ele>112</ele>
        <time>2024-10-17T20:59:40.633Z</time>
      </trkpt>
      <trkpt lat="46.85839" lon="-1.00917">
        <ele>112</ele>
        <time>2024-10-17T20:59:41.173Z</time>
      </trkpt>
      <trkpt lat="46.85817" lon="-1.00904">
        <ele>112</ele>
        <time>2024-10-17T20:59:44.768Z</time>
      </trkpt>
      <trkpt lat="46.8579" lon="-1.00886">
        <ele>112</ele>
        <time>2024-10-17T20:59:49.265Z</time>
      </trkpt>
      <trkpt lat="46.85764" lon="-1.00872">
        <ele>112</ele>
        <time>2024-10-17T20:59:53.463Z</time>
      </trkpt>
      <trkpt lat="46.85748" lon="-1.00862">
        <ele>112</ele>
        <time>2024-10-17T20:59:56.100Z</time>
      </trkpt>
      <trkpt lat="46.85714" lon="-1.00843">
        <ele>111.8</ele>
        <time>2024-10-17T21:00:01.339Z</time>
      </trkpt>
      <trkpt lat="46.8569" lon="-1.00829">
        <ele>111</ele>
        <time>2024-10-17T21:00:04.339Z</time>
      </trkpt>
      <trkpt lat="46.85677" lon="-1.00817">
        <ele>111</ele>
        <time>2024-10-17T21:00:06.669Z</time>
      </trkpt>
      <trkpt lat="46.8564" lon="-1.00782">
        <ele>110</ele>
        <time>2024-10-17T21:00:12.133Z</time>
      </trkpt>
      <trkpt lat="46.85635" lon="-1.00777">
        <ele>110</ele>
        <time>2024-10-17T21:00:13.051Z</time>
      </trkpt>
      <trkpt lat="46.85562" lon="-1.00711">
        <ele>108.7</ele>
        <time>2024-10-17T21:00:24.390Z</time>
      </trkpt>
      <trkpt lat="46.85539" lon="-1.00693">
        <ele>108</ele>
        <time>2024-10-17T21:00:27.519Z</time>
      </trkpt>
      <trkpt lat="46.85509" lon="-1.00673">
        <ele>107.3</ele>
        <time>2024-10-17T21:00:31.657Z</time>
      </trkpt>
      <trkpt lat="46.85483" lon="-1.00654">
        <ele>107</ele>
        <time>2024-10-17T21:00:35.662Z</time>
      </trkpt>
      <trkpt lat="46.85461" lon="-1.0064">
        <ele>107</ele>
        <time>2024-10-17T21:00:39.298Z</time>
      </trkpt>
      <trkpt lat="46.85421" lon="-1.00623">
        <ele>106.9</ele>
        <time>2024-10-17T21:00:45.468Z</time>
      </trkpt>
      <trkpt lat="46.85372" lon="-1.006">
        <ele>107.8</ele>
        <time>2024-10-17T21:00:54.767Z</time>
      </trkpt>
      <trkpt lat="46.85341" lon="-1.00587">
        <ele>108.1</ele>
        <time>2024-10-17T21:01:00.120Z</time>
      </trkpt>
      <trkpt lat="46.85286" lon="-1.00571">
        <ele>109</ele>
        <time>2024-10-17T21:01:10.099Z</time>
      </trkpt>
      <trkpt lat="46.85268" lon="-1.00561">
        <ele>108.6</ele>
        <time>2024-10-17T21:01:12.525Z</time>
      </trkpt>
      <trkpt lat="46.85261" lon="-1.00555">
        <ele>108.4</ele>
        <time>2024-10-17T21:01:13.515Z</time>
      </trkpt>
      <trkpt lat="46.85241" lon="-1.0054">
        <ele>108</ele>
        <time>2024-10-17T21:01:16.419Z</time>
      </trkpt>
      <trkpt lat="46.85196" lon="-1.00508">
        <ele>108</ele>
        <time>2024-10-17T21:01:24.001Z</time>
      </trkpt>
      <trkpt lat="46.85193" lon="-1.00506">
        <ele>108.1</ele>
        <time>2024-10-17T21:01:24.688Z</time>
      </trkpt>
      <trkpt lat="46.85131" lon="-1.0046">
        <ele>109.6</ele>
        <time>2024-10-17T21:01:37.815Z</time>
      </trkpt>
      <trkpt lat="46.85102" lon="-1.00439">
        <ele>110.5</ele>
        <time>2024-10-17T21:01:44.363Z</time>
      </trkpt>
      <trkpt lat="46.85077" lon="-1.00424">
        <ele>111.1</ele>
        <time>2024-10-17T21:01:49.500Z</time>
      </trkpt>
      <trkpt lat="46.85079" lon="-1.00416">
        <ele>111</ele>
        <time>2024-10-17T21:01:50.257Z</time>
      </trkpt>
      <trkpt lat="46.85078" lon="-1.00407">
        <ele>111</ele>
        <time>2024-10-17T21:01:51.202Z</time>
      </trkpt>
      <trkpt lat="46.85042" lon="-1.00329">
        <ele>112.4</ele>
        <time>2024-10-17T21:02:03.376Z</time>
      </trkpt>
      <trkpt lat="46.85033" lon="-1.0031">
        <ele>112.1</ele>
        <time>2024-10-17T21:02:05.398Z</time>
      </trkpt>
      <trkpt lat="46.8502" lon="-1.0028">
        <ele>112.6</ele>
        <time>2024-10-17T21:02:09.935Z</time>
      </trkpt>
      <trkpt lat="46.85009" lon="-1.00252">
        <ele>113</ele>
        <time>2024-10-17T21:02:13.952Z</time>
      </trkpt>
      <trkpt lat="46.84997" lon="-1.0021">
        <ele>113.2</ele>
        <time>2024-10-17T21:02:18.972Z</time>
      </trkpt>
      <trkpt lat="46.84979" lon="-1.00146">
        <ele>114.2</ele>
        <time>2024-10-17T21:02:27.865Z</time>
      </trkpt>
      <trkpt lat="46.84965" lon="-1.00088">
        <ele>114.3</ele>
        <time>2024-10-17T21:02:34.386Z</time>
      </trkpt>
      <trkpt lat="46.84961" lon="-1.00028">
        <ele>114.4</ele>
        <time>2024-10-17T21:02:40.780Z</time>
      </trkpt>
      <trkpt lat="46.84962" lon="-0.99972">
        <ele>115.4</ele>
        <time>2024-10-17T21:02:48.385Z</time>
      </trkpt>
      <trkpt lat="46.84963" lon="-0.99956">
        <ele>115.3</ele>
        <time>2024-10-17T21:02:49.916Z</time>
      </trkpt>
      <trkpt lat="46.84968" lon="-0.99881">
        <ele>116.2</ele>
        <time>2024-10-17T21:02:59.225Z</time>
      </trkpt>
      <trkpt lat="46.84967" lon="-0.99859">
        <ele>116.2</ele>
        <time>2024-10-17T21:03:01.510Z</time>
      </trkpt>
      <trkpt lat="46.84961" lon="-0.99832">
        <ele>117</ele>
        <time>2024-10-17T21:03:06.109Z</time>
      </trkpt>
      <trkpt lat="46.84934" lon="-0.99751">
        <ele>117</ele>
        <time>2024-10-17T21:03:15.447Z</time>
      </trkpt>
      <trkpt lat="46.8493" lon="-0.99739">
        <ele>117</ele>
        <time>2024-10-17T21:03:16.831Z</time>
      </trkpt>
      <trkpt lat="46.84917" lon="-0.99712">
        <ele>117</ele>
        <time>2024-10-17T21:03:20.252Z</time>
      </trkpt>
      <trkpt lat="46.84839" lon="-0.99564">
        <ele>117.8</ele>
        <time>2024-10-17T21:03:40.829Z</time>
      </trkpt>
      <trkpt lat="46.84794" lon="-0.99481">
        <ele>119</ele>
        <time>2024-10-17T21:03:53.790Z</time>
      </trkpt>
      <trkpt lat="46.84778" lon="-0.9946">
        <ele>119.4</ele>
        <time>2024-10-17T21:03:57.721Z</time>
      </trkpt>
      <trkpt lat="46.84752" lon="-0.99435">
        <ele>119.4</ele>
        <time>2024-10-17T21:04:02.436Z</time>
      </trkpt>
      <trkpt lat="46.8474" lon="-0.99422">
        <ele>119.4</ele>
        <time>2024-10-17T21:04:04.699Z</time>
      </trkpt>
      <trkpt lat="46.84728" lon="-0.99409">
        <ele>119.4</ele>
        <time>2024-10-17T21:04:06.962Z</time>
      </trkpt>
      <trkpt lat="46.84714" lon="-0.9939">
        <ele>119.7</ele>
        <time>2024-10-17T21:04:10.349Z</time>
      </trkpt>
      <trkpt lat="46.84703" lon="-0.99371">
        <ele>119.3</ele>
        <time>2024-10-17T21:04:12.447Z</time>
      </trkpt>
      <trkpt lat="46.84685" lon="-0.99314">
        <ele>119.7</ele>
        <time>2024-10-17T21:04:19.576Z</time>
      </trkpt>
      <trkpt lat="46.8467" lon="-0.99265">
        <ele>119.6</ele>
        <time>2024-10-17T21:04:24.998Z</time>
      </trkpt>
      <trkpt lat="46.84664" lon="-0.99243">
        <ele>119.9</ele>
        <time>2024-10-17T21:04:27.957Z</time>
      </trkpt>
      <trkpt lat="46.84657" lon="-0.9921">
        <ele>119.7</ele>
        <time>2024-10-17T21:04:31.269Z</time>
      </trkpt>
      <trkpt lat="46.84647" lon="-0.99182">
        <ele>119.6</ele>
        <time>2024-10-17T21:04:34.403Z</time>
      </trkpt>
      <trkpt lat="46.84631" lon="-0.99148">
        <ele>119.2</ele>
        <time>2024-10-17T21:04:38.164Z</time>
      </trkpt>
      <trkpt lat="46.84603" lon="-0.99095">
        <ele>120.3</ele>
        <time>2024-10-17T21:04:47.047Z</time>
      </trkpt>
      <trkpt lat="46.846" lon="-0.99089">
        <ele>120.4</ele>
        <time>2024-10-17T21:04:47.988Z</time>
      </trkpt>
      <trkpt lat="46.84599" lon="-0.99077">
        <ele>120.6</ele>
        <time>2024-10-17T21:04:49.594Z</time>
      </trkpt>
      <trkpt lat="46.84601" lon="-0.9907">
        <ele>120.6</ele>
        <time>2024-10-17T21:04:50.380Z</time>
      </trkpt>
      <trkpt lat="46.8461" lon="-0.99059">
        <ele>121</ele>
        <time>2024-10-17T21:04:52.933Z</time>
      </trkpt>
      <trkpt lat="46.84682" lon="-0.99014">
        <ele>121.7</ele>
        <time>2024-10-17T21:05:05.882Z</time>
      </trkpt>
      <trkpt lat="46.84758" lon="-0.98959">
        <ele>123.1</ele>
        <time>2024-10-17T21:05:21.046Z</time>
      </trkpt>
      <trkpt lat="46.84791" lon="-0.98939">
        <ele>123.5</ele>
        <time>2024-10-17T21:05:27.091Z</time>
      </trkpt>
      <trkpt lat="46.84843" lon="-0.9892">
        <ele>122</ele>
        <time>2024-10-17T21:05:33.461Z</time>
      </trkpt>
      <trkpt lat="46.84856" lon="-0.98911">
        <ele>121.8</ele>
        <time>2024-10-17T21:05:35.382Z</time>
      </trkpt>
      <trkpt lat="46.84863" lon="-0.98894">
        <ele>121.2</ele>
        <time>2024-10-17T21:05:36.811Z</time>
      </trkpt>
      <trkpt lat="46.84862" lon="-0.98871">
        <ele>121.6</ele>
        <time>2024-10-17T21:05:39.915Z</time>
      </trkpt>
      <trkpt lat="46.84856" lon="-0.98814">
        <ele>122.8</ele>
        <time>2024-10-17T21:05:48.137Z</time>
      </trkpt>
      <trkpt lat="46.8485" lon="-0.98778">
        <ele>123</ele>
        <time>2024-10-17T21:05:52.285Z</time>
      </trkpt>
      <trkpt lat="46.8484" lon="-0.98772">
        <ele>123</ele>
        <time>2024-10-17T21:05:53.923Z</time>
      </trkpt>
      <trkpt lat="46.84833" lon="-0.9876">
        <ele>123</ele>
        <time>2024-10-17T21:05:55.557Z</time>
      </trkpt>
      <trkpt lat="46.8483" lon="-0.98742">
        <ele>122.8</ele>
        <time>2024-10-17T21:05:57.222Z</time>
      </trkpt>
      <trkpt lat="46.84834" lon="-0.98725">
        <ele>123</ele>
        <time>2024-10-17T21:05:59.415Z</time>
      </trkpt>
      <trkpt lat="46.84842" lon="-0.98714">
        <ele>123</ele>
        <time>2024-10-17T21:06:01.079Z</time>
      </trkpt>
      <trkpt lat="46.84849" lon="-0.9871">
        <ele>123</ele>
        <time>2024-10-17T21:06:02.218Z</time>
      </trkpt>
      <trkpt lat="46.84859" lon="-0.98711">
        <ele>123</ele>
        <time>2024-10-17T21:06:03.737Z</time>
      </trkpt>
      <trkpt lat="46.84865" lon="-0.98714">
        <ele>122.9</ele>
        <time>2024-10-17T21:06:04.570Z</time>
      </trkpt>
      <trkpt lat="46.84874" lon="-0.98728">
        <ele>123.1</ele>
        <time>2024-10-17T21:06:06.888Z</time>
      </trkpt>
      <trkpt lat="46.84876" lon="-0.98737">
        <ele>123.2</ele>
        <time>2024-10-17T21:06:08.033Z</time>
      </trkpt>
      <trkpt lat="46.84949" lon="-0.98709">
        <ele>121.9</ele>
        <time>2024-10-17T21:06:17.828Z</time>
      </trkpt>
      <trkpt lat="46.84969" lon="-0.98698">
        <ele>122.5</ele>
        <time>2024-10-17T21:06:22.165Z</time>
      </trkpt>
      <trkpt lat="46.84994" lon="-0.98682">
        <ele>121.9</ele>
        <time>2024-10-17T21:06:25.569Z</time>
      </trkpt>
      <trkpt lat="46.85015" lon="-0.98665">
        <ele>122.4</ele>
        <time>2024-10-17T21:06:30.064Z</time>
      </trkpt>
      <trkpt lat="46.8505" lon="-0.98626">
        <ele>122</ele>
        <time>2024-10-17T21:06:36.196Z</time>
      </trkpt>
      <trkpt lat="46.85084" lon="-0.98573">
        <ele>123.6</ele>
        <time>2024-10-17T21:06:46.770Z</time>
      </trkpt>
      <trkpt lat="46.85181" lon="-0.98384">
        <ele>123.2</ele>
        <time>2024-10-17T21:07:10.693Z</time>
      </trkpt>
      <trkpt lat="46.85215" lon="-0.98327">
        <ele>124.2</ele>
        <time>2024-10-17T21:07:20.225Z</time>
      </trkpt>
      <trkpt lat="46.85249" lon="-0.98277">
        <ele>125</ele>
        <time>2024-10-17T21:07:28.855Z</time>
      </trkpt>
      <trkpt lat="46.85282" lon="-0.98235">
        <ele>125.5</ele>
        <time>2024-10-17T21:07:36.275Z</time>
      </trkpt>
      <trkpt lat="46.85365" lon="-0.9814">
        <ele>126.1</ele>
        <time>2024-10-17T21:07:53.152Z</time>
      </trkpt>
      <trkpt lat="46.85385" lon="-0.9812">
        <ele>126.5</ele>
        <time>2024-10-17T21:07:57.485Z</time>
      </trkpt>
      <trkpt lat="46.85465" lon="-0.98042">
        <ele>127.4</ele>
        <time>2024-10-17T21:08:13.454Z</time>
      </trkpt>
      <trkpt lat="46.85522" lon="-0.97984">
        <ele>127.1</ele>
        <time>2024-10-17T21:08:23.559Z</time>
      </trkpt>
      <trkpt lat="46.85579" lon="-0.97917">
        <ele>127</ele>
        <time>2024-10-17T21:08:34.498Z</time>
      </trkpt>
      <trkpt lat="46.85667" lon="-0.97802">
        <ele>128</ele>
        <time>2024-10-17T21:08:53.925Z</time>
      </trkpt>
      <trkpt lat="46.85701" lon="-0.97766">
        <ele>128</ele>
        <time>2024-10-17T21:09:00.285Z</time>
      </trkpt>
      <trkpt lat="46.85737" lon="-0.9773">
        <ele>128</ele>
        <time>2024-10-17T21:09:06.894Z</time>
      </trkpt>
      <trkpt lat="46.85786" lon="-0.97688">
        <ele>128.6</ele>
        <time>2024-10-17T21:09:16.443Z</time>
        <extensions>
          <visugpx:TrkExtension xmlns:visugpx="https://www.visugpx.com/editgpx/">
            <visugpx:node>1</visugpx:node>
            </visugpx:TrkExtension>
        </extensions>
      </trkpt>
      <trkpt lat="46.85889" lon="-0.97598">
        <ele>131.5</ele>
        <time>2024-10-17T21:09:39.752Z</time>
      </trkpt>
      <trkpt lat="46.85955" lon="-0.97538">
        <ele>132.8</ele>
        <time>2024-10-17T21:09:53.681Z</time>
      </trkpt>
      <trkpt lat="46.86078" lon="-0.97404">
        <ele>135</ele>
        <time>2024-10-17T21:10:20.492Z</time>
      </trkpt>
      <trkpt lat="46.86211" lon="-0.97249">
        <ele>138.6</ele>
        <time>2024-10-17T21:10:52.460Z</time>
      </trkpt>
      <trkpt lat="46.86221" lon="-0.97228">
        <ele>139</ele>
        <time>2024-10-17T21:10:55.810Z</time>
      </trkpt>
      <trkpt lat="46.86228" lon="-0.97212">
        <ele>139.7</ele>
        <time>2024-10-17T21:10:59.419Z</time>
      </trkpt>
      <trkpt lat="46.86226" lon="-0.97201">
        <ele>140</ele>
        <time>2024-10-17T21:11:01.205Z</time>
      </trkpt>
      <trkpt lat="46.86228" lon="-0.97186">
        <ele>140.4</ele>
        <time>2024-10-17T21:11:03.594Z</time>
      </trkpt>
      <trkpt lat="46.8623" lon="-0.97179">
        <ele>140.4</ele>
        <time>2024-10-17T21:11:04.380Z</time>
      </trkpt>
      <trkpt lat="46.86235" lon="-0.97171">
        <ele>140.5</ele>
        <time>2024-10-17T21:11:05.664Z</time>
      </trkpt>
      <trkpt lat="46.86241" lon="-0.97165">
        <ele>140.7</ele>
        <time>2024-10-17T21:11:07.130Z</time>
      </trkpt>
      <trkpt lat="46.86248" lon="-0.97162">
        <ele>140.9</ele>
        <time>2024-10-17T21:11:08.599Z</time>
      </trkpt>
      <trkpt lat="46.86256" lon="-0.97161">
        <ele>141</ele>
        <time>2024-10-17T21:11:09.975Z</time>
      </trkpt>
      <trkpt lat="46.86266" lon="-0.97167">
        <ele>141</ele>
        <time>2024-10-17T21:11:11.613Z</time>
      </trkpt>
      <trkpt lat="46.8627" lon="-0.97171">
        <ele>141</ele>
        <time>2024-10-17T21:11:12.347Z</time>
      </trkpt>
      <trkpt lat="46.86275" lon="-0.97179">
        <ele>141</ele>
        <time>2024-10-17T21:11:13.470Z</time>
      </trkpt>
      <trkpt lat="46.86286" lon="-0.97185">
        <ele>141</ele>
        <time>2024-10-17T21:11:15.249Z</time>
      </trkpt>
      <trkpt lat="46.86314" lon="-0.97188">
        <ele>141.1</ele>
        <time>2024-10-17T21:11:19.652Z</time>
      </trkpt>
      <trkpt lat="46.86344" lon="-0.97186">
        <ele>141.7</ele>
        <time>2024-10-17T21:11:25.225Z</time>
      </trkpt>
      <trkpt lat="46.86371" lon="-0.97188">
        <ele>142.6</ele>
        <time>2024-10-17T21:11:31.051Z</time>
      </trkpt>
      <trkpt lat="46.86413" lon="-0.972">
        <ele>143.7</ele>
        <time>2024-10-17T21:11:39.508Z</time>
      </trkpt>
      <trkpt lat="46.86436" lon="-0.97211">
        <ele>144.4</ele>
        <time>2024-10-17T21:11:44.467Z</time>
      </trkpt>
      <trkpt lat="46.8646" lon="-0.97226">
        <ele>145</ele>
        <time>2024-10-17T21:11:49.472Z</time>
      </trkpt>
      <trkpt lat="46.86497" lon="-0.97256">
        <ele>145.9</ele>
        <time>2024-10-17T21:11:57.433Z</time>
      </trkpt>
      <trkpt lat="46.86518" lon="-0.9727">
        <ele>146.4</ele>
        <time>2024-10-17T21:12:01.795Z</time>
      </trkpt>
      <trkpt lat="46.86538" lon="-0.97279">
        <ele>146.4</ele>
        <time>2024-10-17T21:12:04.966Z</time>
        <extensions>
          <visugpx:TrkExtension xmlns:visugpx="https://www.visugpx.com/editgpx/">
            <visugpx:node>2</visugpx:node>
            </visugpx:TrkExtension>
        </extensions>
      </trkpt>
      <trkpt lat="46.86543" lon="-0.97282">
        <ele>146.5</ele>
        <time>2024-10-17T21:12:05.953Z</time>
      </trkpt>
      <trkpt lat="46.86564" lon="-0.9729">
        <ele>147.5</ele>
        <time>2024-10-17T21:12:11.412Z</time>
      </trkpt>
      <trkpt lat="46.8659" lon="-0.97296">
        <ele>148</ele>
        <time>2024-10-17T21:12:16.245Z</time>
        <extensions>
          <visugpx:TrkExtension xmlns:visugpx="https://www.visugpx.com/editgpx/">
            <visugpx:node>3</visugpx:node>
            </visugpx:TrkExtension>
        </extensions>
      </trkpt>
      <trkpt lat="46.8659" lon="-0.97298">
        <ele>147.8</ele>
        <time>2024-10-17T21:12:16.370Z</time>
        <extensions>
          <visugpx:TrkExtension xmlns:visugpx="https://www.visugpx.com/editgpx/">
            <visugpx:node>4</visugpx:node>
            </visugpx:TrkExtension>
        </extensions>
      </trkpt>
      <trkpt lat="46.86954" lon="-0.97362">
        <ele>143</ele>
        <time>2024-10-17T21:13:05.675Z</time>
      </trkpt>
      <trkpt lat="46.86953" lon="-0.9736">
        <ele>143</ele>
        <time>2024-10-17T21:13:05.932Z</time>
      </trkpt>
      <trkpt lat="46.86952" lon="-0.97357">
        <ele>143</ele>
        <time>2024-10-17T21:13:06.278Z</time>
      </trkpt>
      <trkpt lat="46.86951" lon="-0.97355">
        <ele>143.1</ele>
        <time>2024-10-17T21:13:06.781Z</time>
      </trkpt>
      <trkpt lat="46.86951" lon="-0.97353">
        <ele>143.1</ele>
        <time>2024-10-17T21:13:06.988Z</time>
      </trkpt>
      <trkpt lat="46.8695" lon="-0.9735">
        <ele>143.1</ele>
        <time>2024-10-17T21:13:07.334Z</time>
      </trkpt>
      <trkpt lat="46.8695" lon="-0.97346">
        <ele>143.1</ele>
        <time>2024-10-17T21:13:07.749Z</time>
      </trkpt>
      <trkpt lat="46.8695" lon="-0.97344">
        <ele>143.1</ele>
        <time>2024-10-17T21:13:07.956Z</time>
      </trkpt>
      <trkpt lat="46.8695" lon="-0.97342">
        <ele>143.1</ele>
        <time>2024-10-17T21:13:08.163Z</time>
      </trkpt>
      <trkpt lat="46.8695" lon="-0.9734">
        <ele>143.2</ele>
        <time>2024-10-17T21:13:08.654Z</time>
      </trkpt>
      <trkpt lat="46.8695" lon="-0.97338">
        <ele>143.2</ele>
        <time>2024-10-17T21:13:08.861Z</time>
      </trkpt>
      <trkpt lat="46.86951" lon="-0.97335">
        <ele>143.2</ele>
        <time>2024-10-17T21:13:09.207Z</time>
      </trkpt>
      <trkpt lat="46.86951" lon="-0.97333">
        <ele>143.2</ele>
        <time>2024-10-17T21:13:09.414Z</time>
      </trkpt>
      <trkpt lat="46.86952" lon="-0.97331">
        <ele>143.3</ele>
        <time>2024-10-17T21:13:09.918Z</time>
      </trkpt>
      <trkpt lat="46.86952" lon="-0.97329">
        <ele>143.4</ele>
        <time>2024-10-17T21:13:10.409Z</time>
      </trkpt>
      <trkpt lat="46.86954" lon="-0.97327">
        <ele>143.5</ele>
        <time>2024-10-17T21:13:10.984Z</time>
      </trkpt>
      <trkpt lat="46.86955" lon="-0.97325">
        <ele>143.6</ele>
        <time>2024-10-17T21:13:11.487Z</time>
      </trkpt>
      <trkpt lat="46.86956" lon="-0.97323">
        <ele>143.6</ele>
        <time>2024-10-17T21:13:11.744Z</time>
      </trkpt>
      <trkpt lat="46.86957" lon="-0.97321">
        <ele>143.7</ele>
        <time>2024-10-17T21:13:12.247Z</time>
      </trkpt>
      <trkpt lat="46.86959" lon="-0.9732">
        <ele>143.8</ele>
        <time>2024-10-17T21:13:12.787Z</time>
      </trkpt>
      <trkpt lat="46.8696" lon="-0.97319">
        <ele>143.8</ele>
        <time>2024-10-17T21:13:12.971Z</time>
      </trkpt>
      <trkpt lat="46.86962" lon="-0.97318">
        <ele>143.8</ele>
        <time>2024-10-17T21:13:13.291Z</time>
      </trkpt>
      <trkpt lat="46.86963" lon="-0.97317">
        <ele>143.9</ele>
        <time>2024-10-17T21:13:13.786Z</time>
      </trkpt>
      <trkpt lat="46.86965" lon="-0.97316">
        <ele>143.9</ele>
        <time>2024-10-17T21:13:14.106Z</time>
      </trkpt>
      <trkpt lat="46.86967" lon="-0.97316">
        <ele>143.9</ele>
        <time>2024-10-17T21:13:14.409Z</time>
      </trkpt>
      <trkpt lat="46.86968" lon="-0.97316">
        <ele>143.9</ele>
        <time>2024-10-17T21:13:14.561Z</time>
      </trkpt>
      <trkpt lat="46.86979" lon="-0.97268">
        <ele>144.4</ele>
        <time>2024-10-17T21:13:20.617Z</time>
      </trkpt>
      <trkpt lat="46.86988" lon="-0.97145">
        <ele>145.9</ele>
        <time>2024-10-17T21:13:35.938Z</time>
      </trkpt>
      <trkpt lat="46.86988" lon="-0.97131">
        <ele>146</ele>
        <time>2024-10-17T21:13:37.545Z</time>
      </trkpt>
      <trkpt lat="46.86991" lon="-0.97055">
        <ele>145.7</ele>
        <time>2024-10-17T21:13:45.018Z</time>
      </trkpt>
      <trkpt lat="46.86994" lon="-0.96987">
        <ele>145.8</ele>
        <time>2024-10-17T21:13:52.224Z</time>
      </trkpt>
      <trkpt lat="46.86997" lon="-0.9693">
        <ele>144.9</ele>
        <time>2024-10-17T21:13:57.057Z</time>
      </trkpt>
      <trkpt lat="46.86998" lon="-0.9689">
        <ele>144.9</ele>
        <time>2024-10-17T21:14:01.204Z</time>
      </trkpt>
      <trkpt lat="46.86999" lon="-0.96866">
        <ele>145</ele>
        <time>2024-10-17T21:14:03.846Z</time>
      </trkpt>
      <trkpt lat="46.87001" lon="-0.96836">
        <ele>145.9</ele>
        <time>2024-10-17T21:14:08.878Z</time>
      </trkpt>
      <trkpt lat="46.87003" lon="-0.96807">
        <ele>145.2</ele>
        <time>2024-10-17T21:14:11.119Z</time>
      </trkpt>
      <trkpt lat="46.87007" lon="-0.96776">
        <ele>145</ele>
        <time>2024-10-17T21:14:14.119Z</time>
      </trkpt>
      <trkpt lat="46.87011" lon="-0.96738">
        <ele>144.1</ele>
        <time>2024-10-17T21:14:17.096Z</time>
      </trkpt>
      <trkpt lat="46.87014" lon="-0.96723">
        <ele>144</ele>
        <time>2024-10-17T21:14:18.581Z</time>
      </trkpt>
      <trkpt lat="46.87018" lon="-0.96701">
        <ele>144.3</ele>
        <time>2024-10-17T21:14:21.447Z</time>
      </trkpt>
      <trkpt lat="46.8702" lon="-0.96685">
        <ele>144.4</ele>
        <time>2024-10-17T21:14:23.287Z</time>
      </trkpt>
      <trkpt lat="46.87023" lon="-0.9667">
        <ele>144.7</ele>
        <time>2024-10-17T21:14:25.456Z</time>
      </trkpt>
      <trkpt lat="46.87026" lon="-0.96655">
        <ele>144.5</ele>
        <time>2024-10-17T21:14:26.825Z</time>
      </trkpt>
      <trkpt lat="46.8703" lon="-0.9664">
        <ele>144.1</ele>
        <time>2024-10-17T21:14:28.052Z</time>
      </trkpt>
      <trkpt lat="46.87033" lon="-0.96625">
        <ele>143.7</ele>
        <time>2024-10-17T21:14:29.234Z</time>
      </trkpt>
      <trkpt lat="46.87037" lon="-0.96611">
        <ele>143.3</ele>
        <time>2024-10-17T21:14:30.371Z</time>
      </trkpt>
      <trkpt lat="46.87041" lon="-0.96597">
        <ele>143.7</ele>
        <time>2024-10-17T21:14:32.751Z</time>
      </trkpt>
      <trkpt lat="46.87045" lon="-0.96582">
        <ele>144</ele>
        <time>2024-10-17T21:14:34.964Z</time>
      </trkpt>
      <trkpt lat="46.87049" lon="-0.96567">
        <ele>143.4</ele>
        <time>2024-10-17T21:14:36.045Z</time>
      </trkpt>
      <trkpt lat="46.87054" lon="-0.96552">
        <ele>143</ele>
        <time>2024-10-17T21:14:37.329Z</time>
      </trkpt>
      <trkpt lat="46.87058" lon="-0.96539">
        <ele>143.1</ele>
        <time>2024-10-17T21:14:38.962Z</time>
      </trkpt>
      <trkpt lat="46.87062" lon="-0.96525">
        <ele>143.2</ele>
        <time>2024-10-17T21:14:40.690Z</time>
      </trkpt>
      <trkpt lat="46.87068" lon="-0.9651">
        <ele>143.4</ele>
        <time>2024-10-17T21:14:42.822Z</time>
      </trkpt>
      <trkpt lat="46.87078" lon="-0.96482">
        <ele>143.2</ele>
        <time>2024-10-17T21:14:45.826Z</time>
      </trkpt>
      <trkpt lat="46.87089" lon="-0.96455">
        <ele>143.2</ele>
        <time>2024-10-17T21:14:49.082Z</time>
      </trkpt>
      <trkpt lat="46.87099" lon="-0.96428">
        <ele>143.2</ele>
        <time>2024-10-17T21:14:52.263Z</time>
      </trkpt>
      <trkpt lat="46.87105" lon="-0.96414">
        <ele>143</ele>
        <time>2024-10-17T21:14:53.723Z</time>
      </trkpt>
      <trkpt lat="46.87115" lon="-0.96387">
        <ele>143.1</ele>
        <time>2024-10-17T21:14:57.054Z</time>
      </trkpt>
      <trkpt lat="46.87126" lon="-0.9636">
        <ele>143</ele>
        <time>2024-10-17T21:15:00.171Z</time>
      </trkpt>
      <trkpt lat="46.87131" lon="-0.96348">
        <ele>143</ele>
        <time>2024-10-17T21:15:01.627Z</time>
      </trkpt>
      <trkpt lat="46.87134" lon="-0.96342">
        <ele>143</ele>
        <time>2024-10-17T21:15:02.397Z</time>
      </trkpt>
      <trkpt lat="46.87142" lon="-0.96322">
        <ele>143</ele>
        <time>2024-10-17T21:15:04.797Z</time>
      </trkpt>
      <trkpt lat="46.87146" lon="-0.96309">
        <ele>143</ele>
        <time>2024-10-17T21:15:06.274Z</time>
      </trkpt>
      <trkpt lat="46.87152" lon="-0.96295">
        <ele>143</ele>
        <time>2024-10-17T21:15:07.986Z</time>
      </trkpt>
      <trkpt lat="46.87157" lon="-0.96282">
        <ele>143</ele>
        <time>2024-10-17T21:15:09.531Z</time>
      </trkpt>
      <trkpt lat="46.87162" lon="-0.9627">
        <ele>143</ele>
        <time>2024-10-17T21:15:10.987Z</time>
      </trkpt>
      <trkpt lat="46.87167" lon="-0.96255">
        <ele>143</ele>
        <time>2024-10-17T21:15:12.715Z</time>
      </trkpt>
      <trkpt lat="46.87177" lon="-0.96233">
        <ele>142.8</ele>
        <time>2024-10-17T21:15:15.188Z</time>
      </trkpt>
      <trkpt lat="46.87181" lon="-0.96221">
        <ele>142.5</ele>
        <time>2024-10-17T21:15:16.232Z</time>
      </trkpt>
      <trkpt lat="46.87196" lon="-0.96185">
        <ele>142.7</ele>
        <time>2024-10-17T21:15:20.904Z</time>
      </trkpt>
      <trkpt lat="46.87201" lon="-0.96173">
        <ele>142.6</ele>
        <time>2024-10-17T21:15:22.227Z</time>
      </trkpt>
      <trkpt lat="46.87211" lon="-0.96146">
        <ele>143.2</ele>
        <time>2024-10-17T21:15:26.513Z</time>
      </trkpt>
      <trkpt lat="46.87224" lon="-0.96115">
        <ele>144.1</ele>
        <time>2024-10-17T21:15:32.057Z</time>
      </trkpt>
      <trkpt lat="46.87239" lon="-0.96076">
        <ele>145.5</ele>
        <time>2024-10-17T21:15:39.723Z</time>
      </trkpt>
      <trkpt lat="46.87249" lon="-0.96051">
        <ele>145</ele>
        <time>2024-10-17T21:15:42.128Z</time>
      </trkpt>
      <trkpt lat="46.87253" lon="-0.96041">
        <ele>145.6</ele>
        <time>2024-10-17T21:15:45.078Z</time>
      </trkpt>
      <trkpt lat="46.87256" lon="-0.9603">
        <ele>146.3</ele>
        <time>2024-10-17T21:15:48.564Z</time>
      </trkpt>
      <trkpt lat="46.87259" lon="-0.96019">
        <ele>146.8</ele>
        <time>2024-10-17T21:15:51.058Z</time>
      </trkpt>
      <trkpt lat="46.87265" lon="-0.95999">
        <ele>147.6</ele>
        <time>2024-10-17T21:15:55.191Z</time>
      </trkpt>
      <trkpt lat="46.87267" lon="-0.95991">
        <ele>147.5</ele>
        <time>2024-10-17T21:15:55.947Z</time>
      </trkpt>
      <trkpt lat="46.87271" lon="-0.95973">
        <ele>147.1</ele>
        <time>2024-10-17T21:15:57.450Z</time>
      </trkpt>
      <trkpt lat="46.87272" lon="-0.95965">
        <ele>147.2</ele>
        <time>2024-10-17T21:15:58.460Z</time>
      </trkpt>
      <trkpt lat="46.87275" lon="-0.95952">
        <ele>147.6</ele>
        <time>2024-10-17T21:16:00.721Z</time>
      </trkpt>
      <trkpt lat="46.87277" lon="-0.95941">
        <ele>148</ele>
        <time>2024-10-17T21:16:02.815Z</time>
      </trkpt>
      <trkpt lat="46.87279" lon="-0.95923">
        <ele>148.9</ele>
        <time>2024-10-17T21:16:07.238Z</time>
      </trkpt>
      <trkpt lat="46.87281" lon="-0.95908">
        <ele>149.2</ele>
        <time>2024-10-17T21:16:09.374Z</time>
      </trkpt>
      <trkpt lat="46.87282" lon="-0.95903">
        <ele>149.2</ele>
        <time>2024-10-17T21:16:09.913Z</time>
      </trkpt>
      <trkpt lat="46.87283" lon="-0.95889">
        <ele>149.2</ele>
        <time>2024-10-17T21:16:11.371Z</time>
      </trkpt>
      <trkpt lat="46.87284" lon="-0.95879">
        <ele>149.7</ele>
        <time>2024-10-17T21:16:13.828Z</time>
      </trkpt>
      <trkpt lat="46.87285" lon="-0.9586">
        <ele>150.5</ele>
        <time>2024-10-17T21:16:17.824Z</time>
      </trkpt>
      <trkpt lat="46.87286" lon="-0.95853">
        <ele>150.5</ele>
        <time>2024-10-17T21:16:18.565Z</time>
      </trkpt>
      <trkpt lat="46.87288" lon="-0.9583">
        <ele>150.4</ele>
        <time>2024-10-17T21:16:20.830Z</time>
      </trkpt>
      <trkpt lat="46.87289" lon="-0.95822">
        <ele>150.5</ele>
        <time>2024-10-17T21:16:21.839Z</time>
      </trkpt>
      <trkpt lat="46.8729" lon="-0.95804">
        <ele>150.3</ele>
        <time>2024-10-17T21:16:23.456Z</time>
      </trkpt>
      <trkpt lat="46.87292" lon="-0.95785">
        <ele>150.2</ele>
        <time>2024-10-17T21:16:25.312Z</time>
      </trkpt>
      <trkpt lat="46.87293" lon="-0.95765">
        <ele>149.7</ele>
        <time>2024-10-17T21:16:26.838Z</time>
      </trkpt>
      <trkpt lat="46.87294" lon="-0.95755">
        <ele>149.5</ele>
        <time>2024-10-17T21:16:27.653Z</time>
      </trkpt>
      <trkpt lat="46.87295" lon="-0.95744">
        <ele>149.2</ele>
        <time>2024-10-17T21:16:28.479Z</time>
      </trkpt>
      <trkpt lat="46.87296" lon="-0.95733">
        <ele>148.8</ele>
        <time>2024-10-17T21:16:29.232Z</time>
      </trkpt>
      <trkpt lat="46.87297" lon="-0.95722">
        <ele>148.4</ele>
        <time>2024-10-17T21:16:29.986Z</time>
      </trkpt>
      <trkpt lat="46.87299" lon="-0.95698">
        <ele>149.2</ele>
        <time>2024-10-17T21:16:34.267Z</time>
      </trkpt>
      <trkpt lat="46.873" lon="-0.95686">
        <ele>149.6</ele>
        <time>2024-10-17T21:16:36.408Z</time>
      </trkpt>
      <trkpt lat="46.87301" lon="-0.95674">
        <ele>150.1</ele>
        <time>2024-10-17T21:16:38.912Z</time>
      </trkpt>
      <trkpt lat="46.87302" lon="-0.95661">
        <ele>150.5</ele>
        <time>2024-10-17T21:16:41.124Z</time>
      </trkpt>
      <trkpt lat="46.87303" lon="-0.95648">
        <ele>150.6</ele>
        <time>2024-10-17T21:16:42.638Z</time>
      </trkpt>
      <trkpt lat="46.87305" lon="-0.95623">
        <ele>150.9</ele>
        <time>2024-10-17T21:16:45.745Z</time>
      </trkpt>
      <trkpt lat="46.87306" lon="-0.95611">
        <ele>151</ele>
        <time>2024-10-17T21:16:47.156Z</time>
      </trkpt>
      <trkpt lat="46.87307" lon="-0.95598">
        <ele>151</ele>
        <time>2024-10-17T21:16:48.511Z</time>
      </trkpt>
      <trkpt lat="46.87309" lon="-0.95585">
        <ele>151</ele>
        <time>2024-10-17T21:16:49.892Z</time>
      </trkpt>
      <trkpt lat="46.8731" lon="-0.95573">
        <ele>151.4</ele>
        <time>2024-10-17T21:16:52.032Z</time>
      </trkpt>
      <trkpt lat="46.87311" lon="-0.9556">
        <ele>151.8</ele>
        <time>2024-10-17T21:16:54.245Z</time>
      </trkpt>
      <trkpt lat="46.87312" lon="-0.95548">
        <ele>152.3</ele>
        <time>2024-10-17T21:16:56.749Z</time>
      </trkpt>
      <trkpt lat="46.87312" lon="-0.95535">
        <ele>152.9</ele>
        <time>2024-10-17T21:16:59.708Z</time>
      </trkpt>
      <trkpt lat="46.87313" lon="-0.95523">
        <ele>153.5</ele>
        <time>2024-10-17T21:17:02.656Z</time>
      </trkpt>
      <trkpt lat="46.87313" lon="-0.9551">
        <ele>154.1</ele>
        <time>2024-10-17T21:17:05.615Z</time>
      </trkpt>
      <trkpt lat="46.87312" lon="-0.95498">
        <ele>154.5</ele>
        <time>2024-10-17T21:17:07.755Z</time>
      </trkpt>
      <trkpt lat="46.87312" lon="-0.95486">
        <ele>154.5</ele>
        <time>2024-10-17T21:17:08.998Z</time>
      </trkpt>
      <trkpt lat="46.87311" lon="-0.95473">
        <ele>154.4</ele>
        <time>2024-10-17T21:17:10.221Z</time>
      </trkpt>
      <trkpt lat="46.8731" lon="-0.95461">
        <ele>154.3</ele>
        <time>2024-10-17T21:17:11.342Z</time>
      </trkpt>
      <trkpt lat="46.87309" lon="-0.95448">
        <ele>154.2</ele>
        <time>2024-10-17T21:17:12.566Z</time>
      </trkpt>
      <trkpt lat="46.87308" lon="-0.95436">
        <ele>154.2</ele>
        <time>2024-10-17T21:17:13.818Z</time>
      </trkpt>
      <trkpt lat="46.87306" lon="-0.95423">
        <ele>154</ele>
        <time>2024-10-17T21:17:14.954Z</time>
      </trkpt>
      <trkpt lat="46.87304" lon="-0.95411">
        <ele>154.1</ele>
        <time>2024-10-17T21:17:16.393Z</time>
      </trkpt>
      <trkpt lat="46.87304" lon="-0.95409">
        <ele>154.1</ele>
        <time>2024-10-17T21:17:16.600Z</time>
      </trkpt>
      <trkpt lat="46.87302" lon="-0.95399">
        <ele>154.3</ele>
        <time>2024-10-17T21:17:18.045Z</time>
      </trkpt>
      <trkpt lat="46.87299" lon="-0.95386">
        <ele>154.2</ele>
        <time>2024-10-17T21:17:19.334Z</time>
      </trkpt>
      <trkpt lat="46.87296" lon="-0.95374">
        <ele>153.6</ele>
        <time>2024-10-17T21:17:20.128Z</time>
      </trkpt>
      <trkpt lat="46.87293" lon="-0.95362">
        <ele>153.1</ele>
        <time>2024-10-17T21:17:20.971Z</time>
      </trkpt>
      <trkpt lat="46.8729" lon="-0.9535">
        <ele>152.9</ele>
        <time>2024-10-17T21:17:22.052Z</time>
      </trkpt>
      <trkpt lat="46.87286" lon="-0.95337">
        <ele>152.6</ele>
        <time>2024-10-17T21:17:23.185Z</time>
      </trkpt>
      <trkpt lat="46.87282" lon="-0.95325">
        <ele>152.3</ele>
        <time>2024-10-17T21:17:24.230Z</time>
      </trkpt>
      <trkpt lat="46.87278" lon="-0.95313">
        <ele>152</ele>
        <time>2024-10-17T21:17:25.274Z</time>
      </trkpt>
      <trkpt lat="46.87274" lon="-0.95301">
        <ele>151.5</ele>
        <time>2024-10-17T21:17:26.168Z</time>
      </trkpt>
      <trkpt lat="46.8727" lon="-0.95289">
        <ele>150.7</ele>
        <time>2024-10-17T21:17:26.998Z</time>
      </trkpt>
      <trkpt lat="46.87265" lon="-0.95277">
        <ele>150.1</ele>
        <time>2024-10-17T21:17:27.894Z</time>
      </trkpt>
      <trkpt lat="46.87261" lon="-0.95265">
        <ele>149.8</ele>
        <time>2024-10-17T21:17:28.939Z</time>
      </trkpt>
      <trkpt lat="46.87256" lon="-0.95253">
        <ele>149.4</ele>
        <time>2024-10-17T21:17:29.969Z</time>
      </trkpt>
      <trkpt lat="46.87251" lon="-0.95241">
        <ele>149.1</ele>
        <time>2024-10-17T21:17:31.082Z</time>
      </trkpt>
      <trkpt lat="46.87244" lon="-0.95221">
        <ele>148.4</ele>
        <time>2024-10-17T21:17:32.684Z</time>
      </trkpt>
      <trkpt lat="46.87238" lon="-0.95205">
        <ele>148.3</ele>
        <time>2024-10-17T21:17:34.439Z</time>
      </trkpt>
      <trkpt lat="46.87233" lon="-0.95192">
        <ele>148.1</ele>
        <time>2024-10-17T21:17:35.736Z</time>
      </trkpt>
      <trkpt lat="46.87229" lon="-0.95181">
        <ele>147.6</ele>
        <time>2024-10-17T21:17:36.550Z</time>
      </trkpt>
      <trkpt lat="46.87225" lon="-0.95168">
        <ele>147.2</ele>
        <time>2024-10-17T21:17:37.600Z</time>
      </trkpt>
      <trkpt lat="46.87221" lon="-0.95155">
        <ele>146.5</ele>
        <time>2024-10-17T21:17:38.486Z</time>
      </trkpt>
      <trkpt lat="46.87218" lon="-0.95142">
        <ele>145.8</ele>
        <time>2024-10-17T21:17:39.338Z</time>
      </trkpt>
      <trkpt lat="46.87214" lon="-0.95129">
        <ele>145.1</ele>
        <time>2024-10-17T21:17:40.225Z</time>
      </trkpt>
      <trkpt lat="46.87211" lon="-0.95116">
        <ele>144.4</ele>
        <time>2024-10-17T21:17:41.077Z</time>
      </trkpt>
      <trkpt lat="46.87209" lon="-0.95102">
        <ele>143.7</ele>
        <time>2024-10-17T21:17:41.966Z</time>
      </trkpt>
      <trkpt lat="46.87206" lon="-0.95089">
        <ele>143</ele>
        <time>2024-10-17T21:17:42.819Z</time>
      </trkpt>
      <trkpt lat="46.87204" lon="-0.95075">
        <ele>142.4</ele>
        <time>2024-10-17T21:17:43.738Z</time>
      </trkpt>
      <trkpt lat="46.87202" lon="-0.95061">
        <ele>141.7</ele>
        <time>2024-10-17T21:17:44.626Z</time>
      </trkpt>
      <trkpt lat="46.872" lon="-0.95048">
        <ele>140.9</ele>
        <time>2024-10-17T21:17:45.455Z</time>
      </trkpt>
      <trkpt lat="46.87199" lon="-0.95034">
        <ele>139.8</ele>
        <time>2024-10-17T21:17:46.330Z</time>
      </trkpt>
      <trkpt lat="46.87198" lon="-0.9502">
        <ele>139.2</ele>
        <time>2024-10-17T21:17:47.228Z</time>
      </trkpt>
      <trkpt lat="46.87197" lon="-0.95005">
        <ele>139.1</ele>
        <time>2024-10-17T21:17:48.656Z</time>
      </trkpt>
      <trkpt lat="46.87196" lon="-0.94992">
        <ele>138.5</ele>
        <time>2024-10-17T21:17:49.469Z</time>
      </trkpt>
      <trkpt lat="46.87196" lon="-0.94977">
        <ele>137.4</ele>
        <time>2024-10-17T21:17:50.401Z</time>
      </trkpt>
      <trkpt lat="46.87196" lon="-0.94966">
        <ele>136.9</ele>
        <time>2024-10-17T21:17:51.086Z</time>
      </trkpt>
      <trkpt lat="46.87174" lon="-0.94962">
        <ele>135.2</ele>
        <time>2024-10-17T21:17:53.101Z</time>
      </trkpt>
      <trkpt lat="46.87155" lon="-0.94956">
        <ele>134.8</ele>
        <time>2024-10-17T21:17:55.554Z</time>
      </trkpt>
      <trkpt lat="46.87161" lon="-0.94903">
        <ele>132.7</ele>
        <time>2024-10-17T21:17:59.097Z</time>
      </trkpt>
      <trkpt lat="46.8717" lon="-0.94842">
        <ele>130.2</ele>
        <time>2024-10-17T21:18:03.176Z</time>
      </trkpt>
      <trkpt lat="46.87197" lon="-0.94687">
        <ele>122.7</ele>
        <time>2024-10-17T21:18:13.117Z</time>
      </trkpt>
      <trkpt lat="46.87219" lon="-0.94558">
        <ele>118.9</ele>
        <time>2024-10-17T21:18:22.852Z</time>
      </trkpt>
      <trkpt lat="46.87232" lon="-0.94495">
        <ele>123.2</ele>
        <time>2024-10-17T21:18:44.658Z</time>
      </trkpt>
      <trkpt lat="46.87241" lon="-0.94448">
        <ele>126.5</ele>
        <time>2024-10-17T21:19:01.506Z</time>
      </trkpt>
      <trkpt lat="46.87224" lon="-0.94413">
        <ele>127.9</ele>
        <time>2024-10-17T21:19:09.042Z</time>
      </trkpt>
      <trkpt lat="46.87207" lon="-0.94387">
        <ele>126.5</ele>
        <time>2024-10-17T21:19:11.419Z</time>
      </trkpt>
      <trkpt lat="46.87192" lon="-0.9437">
        <ele>125.9</ele>
        <time>2024-10-17T21:19:13.611Z</time>
      </trkpt>
      <trkpt lat="46.87174" lon="-0.94351">
        <ele>125</ele>
        <time>2024-10-17T21:19:16.010Z</time>
      </trkpt>
      <trkpt lat="46.87158" lon="-0.94332">
        <ele>123.7</ele>
        <time>2024-10-17T21:19:17.925Z</time>
      </trkpt>
      <trkpt lat="46.87143" lon="-0.94311">
        <ele>123.1</ele>
        <time>2024-10-17T21:19:20.376Z</time>
      </trkpt>
      <trkpt lat="46.8714" lon="-0.94306">
        <ele>123</ele>
        <time>2024-10-17T21:19:20.943Z</time>
      </trkpt>
      <trkpt lat="46.8714" lon="-0.94306">
        <ele>123</ele>
        <time>2024-10-17T21:19:20.943Z</time>
      </trkpt>
      <trkpt lat="46.87126" lon="-0.94284">
        <ele>122.5</ele>
        <time>2024-10-17T21:19:23.457Z</time>
      </trkpt>
      <trkpt lat="46.87114" lon="-0.94262">
        <ele>122.6</ele>
        <time>2024-10-17T21:19:26.523Z</time>
      </trkpt>
      <trkpt lat="46.87103" lon="-0.94242">
        <ele>122.8</ele>
        <time>2024-10-17T21:19:29.498Z</time>
      </trkpt>
      <trkpt lat="46.87091" lon="-0.94218">
        <ele>123</ele>
        <time>2024-10-17T21:19:32.891Z</time>
      </trkpt>
      <trkpt lat="46.87077" lon="-0.94189">
        <ele>123.2</ele>
        <time>2024-10-17T21:19:36.877Z</time>
      </trkpt>
      <trkpt lat="46.87061" lon="-0.9416">
        <ele>125</ele>
        <time>2024-10-17T21:19:45.727Z</time>
      </trkpt>
      <trkpt lat="46.87047" lon="-0.94133">
        <ele>126.1</ele>
        <time>2024-10-17T21:19:51.659Z</time>
      </trkpt>
      <trkpt lat="46.87034" lon="-0.94108">
        <ele>126.8</ele>
        <time>2024-10-17T21:19:56.250Z</time>
      </trkpt>
      <trkpt lat="46.87015" lon="-0.94074">
        <ele>128.1</ele>
        <time>2024-10-17T21:20:03.546Z</time>
      </trkpt>
      <trkpt lat="46.87002" lon="-0.94049">
        <ele>129.2</ele>
        <time>2024-10-17T21:20:09.312Z</time>
      </trkpt>
      <trkpt lat="46.86991" lon="-0.94025">
        <ele>130.4</ele>
        <time>2024-10-17T21:20:15.318Z</time>
      </trkpt>
      <trkpt lat="46.86982" lon="-0.94007">
        <ele>130.4</ele>
        <time>2024-10-17T21:20:17.628Z</time>
      </trkpt>
      <trkpt lat="46.86977" lon="-0.93996">
        <ele>130.2</ele>
        <time>2024-10-17T21:20:18.753Z</time>
      </trkpt>
      <trkpt lat="46.8697" lon="-0.93978">
        <ele>129.9</ele>
        <time>2024-10-17T21:20:20.530Z</time>
      </trkpt>
      <trkpt lat="46.86963" lon="-0.93961">
        <ele>129.7</ele>
        <time>2024-10-17T21:20:22.329Z</time>
      </trkpt>
      <trkpt lat="46.86956" lon="-0.9394">
        <ele>129.3</ele>
        <time>2024-10-17T21:20:24.273Z</time>
      </trkpt>
      <trkpt lat="46.86949" lon="-0.93919">
        <ele>128.4</ele>
        <time>2024-10-17T21:20:25.822Z</time>
      </trkpt>
      <trkpt lat="46.86945" lon="-0.93901">
        <ele>128</ele>
        <time>2024-10-17T21:20:27.325Z</time>
      </trkpt>
      <trkpt lat="46.8694" lon="-0.93878">
        <ele>127.5</ele>
        <time>2024-10-17T21:20:29.251Z</time>
      </trkpt>
      <trkpt lat="46.86937" lon="-0.93856">
        <ele>127.1</ele>
        <time>2024-10-17T21:20:31.101Z</time>
      </trkpt>
      <trkpt lat="46.86935" lon="-0.93845">
        <ele>126.6</ele>
        <time>2024-10-17T21:20:31.819Z</time>
      </trkpt>
      <trkpt lat="46.86934" lon="-0.93825">
        <ele>126.4</ele>
        <time>2024-10-17T21:20:33.639Z</time>
      </trkpt>
      <trkpt lat="46.86932" lon="-0.938">
        <ele>126.7</ele>
        <time>2024-10-17T21:20:36.747Z</time>
      </trkpt>
      <trkpt lat="46.8693" lon="-0.93784">
        <ele>126.4</ele>
        <time>2024-10-17T21:20:38.079Z</time>
      </trkpt>
      <trkpt lat="46.8693" lon="-0.9378">
        <ele>126.4</ele>
        <time>2024-10-17T21:20:38.493Z</time>
      </trkpt>
      <trkpt lat="46.86927" lon="-0.93757">
        <ele>126.6</ele>
        <time>2024-10-17T21:20:41.238Z</time>
      </trkpt>
      <trkpt lat="46.86924" lon="-0.93739">
        <ele>126.1</ele>
        <time>2024-10-17T21:20:42.618Z</time>
      </trkpt>
      <trkpt lat="46.86921" lon="-0.93715">
        <ele>125.5</ele>
        <time>2024-10-17T21:20:44.483Z</time>
      </trkpt>
      <trkpt lat="46.86918" lon="-0.93694">
        <ele>126</ele>
        <time>2024-10-17T21:20:47.673Z</time>
      </trkpt>
      <trkpt lat="46.86912" lon="-0.93661">
        <ele>124.7</ele>
        <time>2024-10-17T21:20:49.947Z</time>
      </trkpt>
      <trkpt lat="46.86908" lon="-0.9363">
        <ele>124.5</ele>
        <time>2024-10-17T21:20:52.947Z</time>
      </trkpt>
      <trkpt lat="46.86903" lon="-0.93601">
        <ele>124.5</ele>
        <time>2024-10-17T21:20:56.046Z</time>
      </trkpt>
      <trkpt lat="46.86898" lon="-0.93568">
        <ele>124.7</ele>
        <time>2024-10-17T21:20:59.856Z</time>
      </trkpt>
      <trkpt lat="46.86894" lon="-0.93547">
        <ele>125.3</ele>
        <time>2024-10-17T21:21:03.346Z</time>
      </trkpt>
      <trkpt lat="46.86894" lon="-0.93547">
        <ele>125.3</ele>
        <time>2024-10-17T21:21:03.346Z</time>
      </trkpt>
      <trkpt lat="46.8689" lon="-0.9353">
        <ele>125.9</ele>
        <time>2024-10-17T21:21:06.547Z</time>
      </trkpt>
      <trkpt lat="46.86885" lon="-0.93506">
        <ele>126.6</ele>
        <time>2024-10-17T21:21:10.590Z</time>
      </trkpt>
      <trkpt lat="46.86879" lon="-0.93478">
        <ele>127.7</ele>
        <time>2024-10-17T21:21:16.233Z</time>
      </trkpt>
      <trkpt lat="46.86874" lon="-0.93456">
        <ele>128.9</ele>
        <time>2024-10-17T21:21:22.133Z</time>
      </trkpt>
      <trkpt lat="46.8687" lon="-0.93438">
        <ele>129.4</ele>
        <time>2024-10-17T21:21:25.104Z</time>
      </trkpt>
      <trkpt lat="46.86869" lon="-0.93424">
        <ele>129.5</ele>
        <time>2024-10-17T21:21:26.719Z</time>
      </trkpt>
      <trkpt lat="46.86868" lon="-0.93414">
        <ele>129.6</ele>
        <time>2024-10-17T21:21:27.928Z</time>
      </trkpt>
      <trkpt lat="46.86869" lon="-0.93401">
        <ele>130.1</ele>
        <time>2024-10-17T21:21:30.480Z</time>
      </trkpt>
      <trkpt lat="46.86871" lon="-0.93382">
        <ele>131</ele>
        <time>2024-10-17T21:21:34.913Z</time>
      </trkpt>
      <trkpt lat="46.86874" lon="-0.9336">
        <ele>132</ele>
        <time>2024-10-17T21:21:39.862Z</time>
      </trkpt>
      <trkpt lat="46.86877" lon="-0.93337">
        <ele>133</ele>
        <time>2024-10-17T21:21:44.842Z</time>
      </trkpt>
      <trkpt lat="46.86881" lon="-0.93304">
        <ele>133.4</ele>
        <time>2024-10-17T21:21:48.981Z</time>
      </trkpt>
      <trkpt lat="46.86883" lon="-0.93284">
        <ele>133.6</ele>
        <time>2024-10-17T21:21:51.399Z</time>
      </trkpt>
      <trkpt lat="46.86885" lon="-0.9326">
        <ele>134.4</ele>
        <time>2024-10-17T21:21:55.681Z</time>
      </trkpt>
      <trkpt lat="46.86886" lon="-0.93244">
        <ele>134.6</ele>
        <time>2024-10-17T21:21:57.681Z</time>
      </trkpt>
      <trkpt lat="46.86886" lon="-0.93244">
        <ele>134.6</ele>
        <time>2024-10-17T21:21:57.681Z</time>
      </trkpt>
      <trkpt lat="46.86887" lon="-0.9323">
        <ele>134.2</ele>
        <time>2024-10-17T21:21:58.713Z</time>
      </trkpt>
      <trkpt lat="46.86888" lon="-0.93214">
        <ele>134</ele>
        <time>2024-10-17T21:22:00.127Z</time>
      </trkpt>
      <trkpt lat="46.86889" lon="-0.9319">
        <ele>133.8</ele>
        <time>2024-10-17T21:22:02.356Z</time>
      </trkpt>
      <trkpt lat="46.8689" lon="-0.93166">
        <ele>133.1</ele>
        <time>2024-10-17T21:22:04.107Z</time>
      </trkpt>
      <trkpt lat="46.8689" lon="-0.93139">
        <ele>132.1</ele>
        <time>2024-10-17T21:22:05.923Z</time>
      </trkpt>
      <trkpt lat="46.86889" lon="-0.9311">
        <ele>131</ele>
        <time>2024-10-17T21:22:07.860Z</time>
      </trkpt>
      <trkpt lat="46.86889" lon="-0.93078">
        <ele>129.8</ele>
        <time>2024-10-17T21:22:10.003Z</time>
      </trkpt>
      <trkpt lat="46.86889" lon="-0.93064">
        <ele>129.3</ele>
        <time>2024-10-17T21:22:10.956Z</time>
      </trkpt>
      <trkpt lat="46.86888" lon="-0.93045">
        <ele>128.6</ele>
        <time>2024-10-17T21:22:12.242Z</time>
      </trkpt>
      <trkpt lat="46.86888" lon="-0.93025">
        <ele>128</ele>
        <time>2024-10-17T21:22:13.685Z</time>
      </trkpt>
      <trkpt lat="46.86888" lon="-0.92999">
        <ele>127.9</ele>
        <time>2024-10-17T21:22:16.240Z</time>
      </trkpt>
      <trkpt lat="46.86888" lon="-0.92973">
        <ele>126.9</ele>
        <time>2024-10-17T21:22:17.966Z</time>
      </trkpt>
      <trkpt lat="46.86886" lon="-0.92948">
        <ele>125.8</ele>
        <time>2024-10-17T21:22:19.557Z</time>
      </trkpt>
      <trkpt lat="46.86885" lon="-0.9292">
        <ele>124.8</ele>
        <time>2024-10-17T21:22:21.468Z</time>
      </trkpt>
      <trkpt lat="46.86884" lon="-0.92903">
        <ele>124.6</ele>
        <time>2024-10-17T21:22:22.983Z</time>
      </trkpt>
      <trkpt lat="46.86882" lon="-0.92887">
        <ele>124.5</ele>
        <time>2024-10-17T21:22:24.534Z</time>
      </trkpt>
      <trkpt lat="46.8688" lon="-0.92877">
        <ele>124.1</ele>
        <time>2024-10-17T21:22:25.225Z</time>
      </trkpt>
      <trkpt lat="46.86876" lon="-0.92867">
        <ele>123.6</ele>
        <time>2024-10-17T21:22:25.961Z</time>
      </trkpt>
      <trkpt lat="46.86869" lon="-0.92861">
        <ele>123.3</ele>
        <time>2024-10-17T21:22:26.862Z</time>
      </trkpt>
      <trkpt lat="46.86862" lon="-0.92857">
        <ele>123.2</ele>
        <time>2024-10-17T21:22:27.870Z</time>
      </trkpt>
      <trkpt lat="46.86862" lon="-0.92857">
        <ele>123.2</ele>
        <time>2024-10-17T21:22:27.870Z</time>
      </trkpt>
      <trkpt lat="46.86857" lon="-0.92859">
        <ele>123.2</ele>
        <time>2024-10-17T21:22:28.656Z</time>
      </trkpt>
      <trkpt lat="46.86852" lon="-0.92861">
        <ele>123.3</ele>
        <time>2024-10-17T21:22:29.611Z</time>
      </trkpt>
      <trkpt lat="46.86846" lon="-0.92864">
        <ele>123.4</ele>
        <time>2024-10-17T21:22:30.736Z</time>
      </trkpt>
      <trkpt lat="46.86839" lon="-0.92869">
        <ele>123.3</ele>
        <time>2024-10-17T21:22:31.786Z</time>
      </trkpt>
      <trkpt lat="46.86832" lon="-0.92874">
        <ele>123.2</ele>
        <time>2024-10-17T21:22:32.836Z</time>
      </trkpt>
      <trkpt lat="46.86821" lon="-0.92882">
        <ele>123.9</ele>
        <time>2024-10-17T21:22:36.390Z</time>
      </trkpt>
      <trkpt lat="46.86808" lon="-0.92888">
        <ele>124.8</ele>
        <time>2024-10-17T21:22:40.838Z</time>
      </trkpt>
      <trkpt lat="46.86798" lon="-0.92894">
        <ele>125.4</ele>
        <time>2024-10-17T21:22:43.905Z</time>
      </trkpt>
      <trkpt lat="46.86787" lon="-0.92898">
        <ele>126.1</ele>
        <time>2024-10-17T21:22:47.398Z</time>
      </trkpt>
      <trkpt lat="46.86776" lon="-0.92901">
        <ele>126.7</ele>
        <time>2024-10-17T21:22:50.496Z</time>
      </trkpt>
      <trkpt lat="46.86767" lon="-0.92902">
        <ele>126.8</ele>
        <time>2024-10-17T21:22:52.022Z</time>
      </trkpt>
      <trkpt lat="46.86762" lon="-0.92902">
        <ele>126.9</ele>
        <time>2024-10-17T21:22:52.950Z</time>
      </trkpt>
      <trkpt lat="46.86752" lon="-0.92901">
        <ele>127.1</ele>
        <time>2024-10-17T21:22:54.809Z</time>
      </trkpt>
      <trkpt lat="46.8674" lon="-0.92898">
        <ele>127.7</ele>
        <time>2024-10-17T21:22:57.998Z</time>
      </trkpt>
      <trkpt lat="46.86726" lon="-0.92894">
        <ele>128.5</ele>
        <time>2024-10-17T21:23:02.077Z</time>
      </trkpt>
      <trkpt lat="46.86713" lon="-0.9289">
        <ele>128.9</ele>
        <time>2024-10-17T21:23:04.836Z</time>
      </trkpt>
      <trkpt lat="46.86696" lon="-0.92885">
        <ele>129.1</ele>
        <time>2024-10-17T21:23:07.781Z</time>
      </trkpt>
      <trkpt lat="46.86688" lon="-0.92882">
        <ele>129</ele>
        <time>2024-10-17T21:23:08.901Z</time>
      </trkpt>
      <trkpt lat="46.86681" lon="-0.9288">
        <ele>128.8</ele>
        <time>2024-10-17T21:23:09.748Z</time>
      </trkpt>
      <trkpt lat="46.86669" lon="-0.92876">
        <ele>128.5</ele>
        <time>2024-10-17T21:23:11.254Z</time>
      </trkpt>
      <trkpt lat="46.86656" lon="-0.92872">
        <ele>127.8</ele>
        <time>2024-10-17T21:23:12.573Z</time>
      </trkpt>
      <trkpt lat="46.8664" lon="-0.92868">
        <ele>126.3</ele>
        <time>2024-10-17T21:23:14.049Z</time>
      </trkpt>
      <trkpt lat="46.86623" lon="-0.92864">
        <ele>125</ele>
        <time>2024-10-17T21:23:15.615Z</time>
      </trkpt>
      <trkpt lat="46.86619" lon="-0.92864">
        <ele>124.7</ele>
        <time>2024-10-17T21:23:15.978Z</time>
      </trkpt>
      <trkpt lat="46.8661" lon="-0.92862">
        <ele>124</ele>
        <time>2024-10-17T21:23:16.806Z</time>
      </trkpt>
      <trkpt lat="46.86604" lon="-0.9286">
        <ele>123.5</ele>
        <time>2024-10-17T21:23:17.365Z</time>
      </trkpt>
      <trkpt lat="46.86594" lon="-0.92859">
        <ele>122.8</ele>
        <time>2024-10-17T21:23:18.277Z</time>
      </trkpt>
      <trkpt lat="46.86586" lon="-0.92858">
        <ele>122.2</ele>
        <time>2024-10-17T21:23:19.007Z</time>
      </trkpt>
      <trkpt lat="46.86579" lon="-0.92859">
        <ele>121.9</ele>
        <time>2024-10-17T21:23:19.755Z</time>
      </trkpt>
      <trkpt lat="46.86569" lon="-0.92861">
        <ele>121.5</ele>
        <time>2024-10-17T21:23:20.854Z</time>
      </trkpt>
      <trkpt lat="46.86562" lon="-0.92863">
        <ele>121.2</ele>
        <time>2024-10-17T21:23:21.616Z</time>
      </trkpt>
      <trkpt lat="46.86551" lon="-0.92866">
        <ele>121.2</ele>
        <time>2024-10-17T21:23:23.312Z</time>
      </trkpt>
      <trkpt lat="46.86532" lon="-0.92872">
        <ele>121.8</ele>
        <time>2024-10-17T21:23:27.385Z</time>
      </trkpt>
      <trkpt lat="46.86518" lon="-0.92877">
        <ele>122.3</ele>
        <time>2024-10-17T21:23:30.542Z</time>
      </trkpt>
      <trkpt lat="46.8651" lon="-0.92879">
        <ele>122.5</ele>
        <time>2024-10-17T21:23:32.127Z</time>
      </trkpt>
      <trkpt lat="46.86501" lon="-0.92879">
        <ele>122.7</ele>
        <time>2024-10-17T21:23:33.838Z</time>
      </trkpt>
      <trkpt lat="46.8649" lon="-0.92878">
        <ele>123.2</ele>
        <time>2024-10-17T21:23:36.586Z</time>
      </trkpt>
      <trkpt lat="46.86477" lon="-0.92876">
        <ele>123.8</ele>
        <time>2024-10-17T21:23:39.868Z</time>
      </trkpt>
      <trkpt lat="46.86456" lon="-0.9287">
        <ele>124.8</ele>
        <time>2024-10-17T21:23:45.295Z</time>
      </trkpt>
      <trkpt lat="46.86442" lon="-0.92865">
        <ele>125.8</ele>
        <time>2024-10-17T21:23:50.216Z</time>
      </trkpt>
      <trkpt lat="46.86421" lon="-0.92858">
        <ele>127.1</ele>
        <time>2024-10-17T21:23:56.731Z</time>
      </trkpt>
      <trkpt lat="46.864" lon="-0.92848">
        <ele>129.2</ele>
        <time>2024-10-17T21:24:07.370Z</time>
      </trkpt>
      <trkpt lat="46.86384" lon="-0.9284">
        <ele>130.2</ele>
        <time>2024-10-17T21:24:12.402Z</time>
      </trkpt>
      <trkpt lat="46.86368" lon="-0.9283">
        <ele>131.1</ele>
        <time>2024-10-17T21:24:17.104Z</time>
      </trkpt>
      <trkpt lat="46.86347" lon="-0.92818">
        <ele>133.1</ele>
        <time>2024-10-17T21:24:27.105Z</time>
      </trkpt>
      <trkpt lat="46.86326" lon="-0.92806">
        <ele>134.2</ele>
        <time>2024-10-17T21:24:32.974Z</time>
      </trkpt>
      <trkpt lat="46.86313" lon="-0.92797">
        <ele>135.6</ele>
        <time>2024-10-17T21:24:40.099Z</time>
      </trkpt>
      <trkpt lat="46.86304" lon="-0.9279">
        <ele>136.6</ele>
        <time>2024-10-17T21:24:45.197Z</time>
      </trkpt>
      <trkpt lat="46.86292" lon="-0.92778">
        <ele>137</ele>
        <time>2024-10-17T21:24:48.129Z</time>
      </trkpt>
      <trkpt lat="46.86283" lon="-0.92766">
        <ele>136.7</ele>
        <time>2024-10-17T21:24:49.615Z</time>
      </trkpt>
      <trkpt lat="46.86276" lon="-0.92758">
        <ele>136.6</ele>
        <time>2024-10-17T21:24:50.829Z</time>
      </trkpt>
      <trkpt lat="46.86272" lon="-0.9275">
        <ele>136.8</ele>
        <time>2024-10-17T21:24:52.227Z</time>
      </trkpt>
      <trkpt lat="46.8627" lon="-0.92743">
        <ele>137.2</ele>
        <time>2024-10-17T21:24:54.195Z</time>
      </trkpt>
      <trkpt lat="46.86269" lon="-0.92734">
        <ele>137.8</ele>
        <time>2024-10-17T21:24:57.242Z</time>
      </trkpt>
      <trkpt lat="46.86269" lon="-0.92719">
        <ele>138.7</ele>
        <time>2024-10-17T21:25:01.734Z</time>
      </trkpt>
      <trkpt lat="46.86269" lon="-0.92711">
        <ele>138.8</ele>
        <time>2024-10-17T21:25:02.731Z</time>
      </trkpt>
      <trkpt lat="46.86268" lon="-0.92703">
        <ele>138.9</ele>
        <time>2024-10-17T21:25:03.741Z</time>
      </trkpt>
      <trkpt lat="46.86267" lon="-0.92686">
        <ele>139.3</ele>
        <time>2024-10-17T21:25:06.285Z</time>
      </trkpt>
      <trkpt lat="46.86265" lon="-0.92672">
        <ele>139.8</ele>
        <time>2024-10-17T21:25:08.907Z</time>
      </trkpt>
      <trkpt lat="46.86263" lon="-0.9266">
        <ele>140</ele>
        <time>2024-10-17T21:25:10.539Z</time>
      </trkpt>
      <trkpt lat="46.86262" lon="-0.9265">
        <ele>140</ele>
        <time>2024-10-17T21:25:11.586Z</time>
      </trkpt>
      <trkpt lat="46.8626" lon="-0.92637">
        <ele>140</ele>
        <time>2024-10-17T21:25:12.967Z</time>
      </trkpt>
      <trkpt lat="46.86259" lon="-0.92631">
        <ele>140.2</ele>
        <time>2024-10-17T21:25:14.046Z</time>
      </trkpt>
      <trkpt lat="46.8626" lon="-0.92625">
        <ele>140.3</ele>
        <time>2024-10-17T21:25:14.862Z</time>
      </trkpt>
      <trkpt lat="46.86261" lon="-0.92618">
        <ele>140.5</ele>
        <time>2024-10-17T21:25:16.016Z</time>
      </trkpt>
      <trkpt lat="46.86257" lon="-0.92603">
        <ele>140.8</ele>
        <time>2024-10-17T21:25:18.230Z</time>
      </trkpt>
      <trkpt lat="46.86255" lon="-0.92596">
        <ele>140.9</ele>
        <time>2024-10-17T21:25:19.185Z</time>
      </trkpt>
      <trkpt lat="46.86252" lon="-0.9259">
        <ele>141</ele>
        <time>2024-10-17T21:25:20.125Z</time>
      </trkpt>
      <trkpt lat="46.8625" lon="-0.92586">
        <ele>141</ele>
        <time>2024-10-17T21:25:20.639Z</time>
      </trkpt>
      <trkpt lat="46.86247" lon="-0.9258">
        <ele>141.1</ele>
        <time>2024-10-17T21:25:21.579Z</time>
      </trkpt>
      <trkpt lat="46.86247" lon="-0.9258">
        <ele>141.1</ele>
        <time>2024-10-17T21:25:21.579Z</time>
      </trkpt>
      <trkpt lat="46.86239" lon="-0.92572">
        <ele>141.4</ele>
        <time>2024-10-17T21:25:23.612Z</time>
      </trkpt>
      <trkpt lat="46.86233" lon="-0.92567">
        <ele>141.6</ele>
        <time>2024-10-17T21:25:25.027Z</time>
      </trkpt>
      <trkpt lat="46.86223" lon="-0.92558">
        <ele>141.9</ele>
        <time>2024-10-17T21:25:27.344Z</time>
      </trkpt>
      <trkpt lat="46.86209" lon="-0.92545">
        <ele>142.2</ele>
        <time>2024-10-17T21:25:30.359Z</time>
      </trkpt>
      <trkpt lat="46.86198" lon="-0.92536">
        <ele>142.1</ele>
        <time>2024-10-17T21:25:32.134Z</time>
      </trkpt>
      <trkpt lat="46.86181" lon="-0.92524">
        <ele>142.6</ele>
        <time>2024-10-17T21:25:35.897Z</time>
      </trkpt>
      <trkpt lat="46.86168" lon="-0.92514">
        <ele>143</ele>
        <time>2024-10-17T21:25:38.850Z</time>
      </trkpt>
      <trkpt lat="46.86154" lon="-0.92496">
        <ele>143.1</ele>
        <time>2024-10-17T21:25:41.825Z</time>
      </trkpt>
      <trkpt lat="46.86154" lon="-0.92496">
        <ele>143.1</ele>
        <time>2024-10-17T21:25:41.825Z</time>
      </trkpt>
      <trkpt lat="46.86158" lon="-0.9249">
        <ele>143.1</ele>
        <time>2024-10-17T21:25:42.693Z</time>
      </trkpt>
      <trkpt lat="46.86164" lon="-0.9248">
        <ele>143.1</ele>
        <time>2024-10-17T21:25:44.072Z</time>
      </trkpt>
      <trkpt lat="46.86174" lon="-0.92466">
        <ele>143.4</ele>
        <time>2024-10-17T21:25:46.688Z</time>
      </trkpt>
      <trkpt lat="46.86186" lon="-0.92452">
        <ele>143.9</ele>
        <time>2024-10-17T21:25:49.969Z</time>
      </trkpt>
      <trkpt lat="46.862" lon="-0.92441">
        <ele>144</ele>
        <time>2024-10-17T21:25:52.529Z</time>
      </trkpt>
      <trkpt lat="46.86214" lon="-0.92432">
        <ele>144</ele>
        <time>2024-10-17T21:25:54.846Z</time>
      </trkpt>
      <trkpt lat="46.86231" lon="-0.92421">
        <ele>143.7</ele>
        <time>2024-10-17T21:25:57.281Z</time>
      </trkpt>
      <trkpt lat="46.86231" lon="-0.92421">
        <ele>143.7</ele>
        <time>2024-10-17T21:25:57.281Z</time>
      </trkpt>
      <trkpt lat="46.86224" lon="-0.92401">
        <ele>143.4</ele>
        <time>2024-10-17T21:25:59.237Z</time>
      </trkpt>
      <trkpt lat="46.86219" lon="-0.92383">
        <ele>143.3</ele>
        <time>2024-10-17T21:26:01.114Z</time>
      </trkpt>
      <trkpt lat="46.86214" lon="-0.9237">
        <ele>143.6</ele>
        <time>2024-10-17T21:26:03.216Z</time>
      </trkpt>
      <trkpt lat="46.86209" lon="-0.92362">
        <ele>143.5</ele>
        <time>2024-10-17T21:26:04.209Z</time>
      </trkpt>
      <trkpt lat="46.862" lon="-0.9235">
        <ele>143.2</ele>
        <time>2024-10-17T21:26:05.695Z</time>
      </trkpt>
      <trkpt lat="46.8619" lon="-0.92337">
        <ele>143</ele>
        <time>2024-10-17T21:26:07.466Z</time>
      </trkpt>
      <trkpt lat="46.86178" lon="-0.92325">
        <ele>143</ele>
        <time>2024-10-17T21:26:09.669Z</time>
      </trkpt>
      <trkpt lat="46.86169" lon="-0.92312">
        <ele>143</ele>
        <time>2024-10-17T21:26:11.586Z</time>
      </trkpt>
      <trkpt lat="46.86161" lon="-0.92304">
        <ele>142.8</ele>
        <time>2024-10-17T21:26:12.808Z</time>
      </trkpt>
      <trkpt lat="46.86158" lon="-0.92296">
        <ele>142.6</ele>
        <time>2024-10-17T21:26:13.526Z</time>
      </trkpt>
      <trkpt lat="46.86155" lon="-0.92289">
        <ele>142.5</ele>
        <time>2024-10-17T21:26:14.256Z</time>
      </trkpt>
      <trkpt lat="46.8615" lon="-0.92279">
        <ele>142.6</ele>
        <time>2024-10-17T21:26:15.699Z</time>
      </trkpt>
      <trkpt lat="46.86145" lon="-0.9227">
        <ele>142.8</ele>
        <time>2024-10-17T21:26:17.257Z</time>
      </trkpt>
      <trkpt lat="46.86142" lon="-0.92254">
        <ele>142.9</ele>
        <time>2024-10-17T21:26:19.131Z</time>
      </trkpt>
      <trkpt lat="46.8614" lon="-0.92239">
        <ele>143</ele>
        <time>2024-10-17T21:26:20.870Z</time>
      </trkpt>
      <trkpt lat="46.86139" lon="-0.92226">
        <ele>143</ele>
        <time>2024-10-17T21:26:22.226Z</time>
      </trkpt>
      <trkpt lat="46.86136" lon="-0.92208">
        <ele>142.6</ele>
        <time>2024-10-17T21:26:23.690Z</time>
      </trkpt>
      <trkpt lat="46.86133" lon="-0.92193">
        <ele>142.4</ele>
        <time>2024-10-17T21:26:25.059Z</time>
      </trkpt>
      <trkpt lat="46.86127" lon="-0.92174">
        <ele>142.9</ele>
        <time>2024-10-17T21:26:28.204Z</time>
      </trkpt>
      <trkpt lat="46.8612" lon="-0.92155">
        <ele>143.4</ele>
        <time>2024-10-17T21:26:31.406Z</time>
      </trkpt>
      <trkpt lat="46.86113" lon="-0.92132">
        <ele>143.9</ele>
        <time>2024-10-17T21:26:34.939Z</time>
      </trkpt>
      <trkpt lat="46.8611" lon="-0.92125">
        <ele>144.1</ele>
        <time>2024-10-17T21:26:36.187Z</time>
      </trkpt>
      <trkpt lat="46.86106" lon="-0.92113">
        <ele>144.4</ele>
        <time>2024-10-17T21:26:38.144Z</time>
      </trkpt>
      <trkpt lat="46.861" lon="-0.92094">
        <ele>144.8</ele>
        <time>2024-10-17T21:26:41.045Z</time>
      </trkpt>
      <trkpt lat="46.86095" lon="-0.92082">
        <ele>145.2</ele>
        <time>2024-10-17T21:26:43.332Z</time>
      </trkpt>
      <trkpt lat="46.86088" lon="-0.92069">
        <ele>146.1</ele>
        <time>2024-10-17T21:26:47.769Z</time>
      </trkpt>
      <trkpt lat="46.86079" lon="-0.92055">
        <ele>147</ele>
        <time>2024-10-17T21:26:52.202Z</time>
      </trkpt>
      <trkpt lat="46.8607" lon="-0.9204">
        <ele>147</ele>
        <time>2024-10-17T21:26:54.270Z</time>
      </trkpt>
      <trkpt lat="46.86058" lon="-0.92024">
        <ele>147</ele>
        <time>2024-10-17T21:26:56.731Z</time>
      </trkpt>
      <trkpt lat="46.86048" lon="-0.92008">
        <ele>147.4</ele>
        <time>2024-10-17T21:26:59.702Z</time>
      </trkpt>
      <trkpt lat="46.86037" lon="-0.91991">
        <ele>148.4</ele>
        <time>2024-10-17T21:27:04.682Z</time>
      </trkpt>
      <trkpt lat="46.86034" lon="-0.91987">
        <ele>148.7</ele>
        <time>2024-10-17T21:27:06.156Z</time>
      </trkpt>
      <trkpt lat="46.86019" lon="-0.91965">
        <ele>149.2</ele>
        <time>2024-10-17T21:27:10.254Z</time>
      </trkpt>
      <trkpt lat="46.86012" lon="-0.91951">
        <ele>149.1</ele>
        <time>2024-10-17T21:27:11.916Z</time>
      </trkpt>
      <trkpt lat="46.86005" lon="-0.91939">
        <ele>149.2</ele>
        <time>2024-10-17T21:27:13.706Z</time>
      </trkpt>
      <trkpt lat="46.85999" lon="-0.91927">
        <ele>149.6</ele>
        <time>2024-10-17T21:27:16.060Z</time>
      </trkpt>
      <trkpt lat="46.85999" lon="-0.91927">
        <ele>149.6</ele>
        <time>2024-10-17T21:27:16.060Z</time>
      </trkpt>
      <trkpt lat="46.85991" lon="-0.91908">
        <ele>150.2</ele>
        <time>2024-10-17T21:27:19.593Z</time>
      </trkpt>
      <trkpt lat="46.85982" lon="-0.91886">
        <ele>150.5</ele>
        <time>2024-10-17T21:27:22.748Z</time>
      </trkpt>
      <trkpt lat="46.85976" lon="-0.91872">
        <ele>150.7</ele>
        <time>2024-10-17T21:27:24.794Z</time>
      </trkpt>
      <trkpt lat="46.85973" lon="-0.91865">
        <ele>150.9</ele>
        <time>2024-10-17T21:27:26.042Z</time>
      </trkpt>
      <trkpt lat="46.85961" lon="-0.91842">
        <ele>152.5</ele>
        <time>2024-10-17T21:27:33.942Z</time>
      </trkpt>
      <trkpt lat="46.8595" lon="-0.91822">
        <ele>153.3</ele>
        <time>2024-10-17T21:27:38.329Z</time>
      </trkpt>
      <trkpt lat="46.85936" lon="-0.91799">
        <ele>154.2</ele>
        <time>2024-10-17T21:27:43.412Z</time>
      </trkpt>
      <trkpt lat="46.85922" lon="-0.91775">
        <ele>155.1</ele>
        <time>2024-10-17T21:27:48.554Z</time>
      </trkpt>
      <trkpt lat="46.85894" lon="-0.91724">
        <ele>157.9</ele>
        <time>2024-10-17T21:28:02.493Z</time>
      </trkpt>
      <trkpt lat="46.85859" lon="-0.91663">
        <ele>162.1</ele>
        <time>2024-10-17T21:28:23.156Z</time>
      </trkpt>
      <trkpt lat="46.85835" lon="-0.91622">
        <ele>163.6</ele>
        <time>2024-10-17T21:28:31.838Z</time>
      </trkpt>
      <trkpt lat="46.85828" lon="-0.91612">
        <ele>164.2</ele>
        <time>2024-10-17T21:28:34.836Z</time>
      </trkpt>
      <trkpt lat="46.85822" lon="-0.91604">
        <ele>165</ele>
        <time>2024-10-17T21:28:38.917Z</time>
      </trkpt>
      <trkpt lat="46.8581" lon="-0.9159">
        <ele>165.8</ele>
        <time>2024-10-17T21:28:43.086Z</time>
      </trkpt>
      <trkpt lat="46.85797" lon="-0.91577">
        <ele>166.9</ele>
        <time>2024-10-17T21:28:48.498Z</time>
      </trkpt>
      <trkpt lat="46.8578" lon="-0.91562">
        <ele>167.8</ele>
        <time>2024-10-17T21:28:53.446Z</time>
      </trkpt>
      <trkpt lat="46.85754" lon="-0.91538">
        <ele>169.4</ele>
        <time>2024-10-17T21:29:01.788Z</time>
      </trkpt>
      <trkpt lat="46.8573" lon="-0.91516">
        <ele>171</ele>
        <time>2024-10-17T21:29:09.930Z</time>
      </trkpt>
      <trkpt lat="46.85718" lon="-0.91504">
        <ele>171.6</ele>
        <time>2024-10-17T21:29:13.376Z</time>
      </trkpt>
      <trkpt lat="46.8571" lon="-0.91494">
        <ele>171.7</ele>
        <time>2024-10-17T21:29:15.127Z</time>
      </trkpt>
      <trkpt lat="46.85697" lon="-0.91478">
        <ele>171.2</ele>
        <time>2024-10-17T21:29:17.123Z</time>
      </trkpt>
      <trkpt lat="46.8569" lon="-0.91466">
        <ele>171</ele>
        <time>2024-10-17T21:29:18.508Z</time>
      </trkpt>
      <trkpt lat="46.85674" lon="-0.9144">
        <ele>169.8</ele>
        <time>2024-10-17T21:29:20.924Z</time>
      </trkpt>
      <trkpt lat="46.85652" lon="-0.91406">
        <ele>167.5</ele>
        <time>2024-10-17T21:29:23.835Z</time>
      </trkpt>
      <trkpt lat="46.85634" lon="-0.91386">
        <ele>167.5</ele>
        <time>2024-10-17T21:29:27.260Z</time>
      </trkpt>
      <trkpt lat="46.85615" lon="-0.91372">
        <ele>166.7</ele>
        <time>2024-10-17T21:29:29.610Z</time>
      </trkpt>
      <trkpt lat="46.85583" lon="-0.91354">
        <ele>166.7</ele>
        <time>2024-10-17T21:29:34.805Z</time>
      </trkpt>
      <trkpt lat="46.85547" lon="-0.91333">
        <ele>167.1</ele>
        <time>2024-10-17T21:29:41.305Z</time>
      </trkpt>
      <trkpt lat="46.85527" lon="-0.91319">
        <ele>167.5</ele>
        <time>2024-10-17T21:29:45.335Z</time>
      </trkpt>
      <trkpt lat="46.85517" lon="-0.9131">
        <ele>167.8</ele>
        <time>2024-10-17T21:29:47.651Z</time>
      </trkpt>
      <trkpt lat="46.85513" lon="-0.91306">
        <ele>167.8</ele>
        <time>2024-10-17T21:29:48.386Z</time>
      </trkpt>
      <trkpt lat="46.85498" lon="-0.91278">
        <ele>168.7</ele>
        <time>2024-10-17T21:29:53.862Z</time>
      </trkpt>
      <trkpt lat="46.85485" lon="-0.91255">
        <ele>168.9</ele>
        <time>2024-10-17T21:29:57.267Z</time>
      </trkpt>
      <trkpt lat="46.85458" lon="-0.91206">
        <ele>168.5</ele>
        <time>2024-10-17T21:30:03.251Z</time>
      </trkpt>
      <trkpt lat="46.85416" lon="-0.91123">
        <ele>166</ele>
        <time>2024-10-17T21:30:11.178Z</time>
      </trkpt>
      <trkpt lat="46.85395" lon="-0.91082">
        <ele>165</ele>
        <time>2024-10-17T21:30:15.323Z</time>
      </trkpt>
      <trkpt lat="46.85364" lon="-0.9102">
        <ele>164.1</ele>
        <time>2024-10-17T21:30:22.145Z</time>
      </trkpt>
      <trkpt lat="46.85353" lon="-0.90992">
        <ele>165.2</ele>
        <time>2024-10-17T21:30:27.968Z</time>
      </trkpt>
      <trkpt lat="46.8534" lon="-0.90956">
        <ele>166.4</ele>
        <time>2024-10-17T21:30:34.718Z</time>
      </trkpt>
      <trkpt lat="46.85323" lon="-0.909">
        <ele>169.3</ele>
        <time>2024-10-17T21:30:48.992Z</time>
      </trkpt>
      <trkpt lat="46.85314" lon="-0.90873">
        <ele>169.6</ele>
        <time>2024-10-17T21:30:52.593Z</time>
      </trkpt>
      <trkpt lat="46.85314" lon="-0.90873">
        <ele>169.6</ele>
        <time>2024-10-17T21:30:52.593Z</time>
      </trkpt>
      <trkpt lat="46.85309" lon="-0.90854">
        <ele>169.9</ele>
        <time>2024-10-17T21:30:55.220Z</time>
      </trkpt>
      <trkpt lat="46.85293" lon="-0.90805">
        <ele>171.4</ele>
        <time>2024-10-17T21:31:03.930Z</time>
      </trkpt>
      <trkpt lat="46.85287" lon="-0.90783">
        <ele>171.8</ele>
        <time>2024-10-17T21:31:07.095Z</time>
      </trkpt>
      <trkpt lat="46.8528" lon="-0.90764">
        <ele>170.8</ele>
        <time>2024-10-17T21:31:08.437Z</time>
      </trkpt>
      <trkpt lat="46.85279" lon="-0.90757">
        <ele>171</ele>
        <time>2024-10-17T21:31:09.591Z</time>
      </trkpt>
      <trkpt lat="46.85272" lon="-0.90735">
        <ele>171.7</ele>
        <time>2024-10-17T21:31:13.569Z</time>
      </trkpt>
      <trkpt lat="46.85265" lon="-0.90712">
        <ele>172.6</ele>
        <time>2024-10-17T21:31:18.254Z</time>
      </trkpt>
      <trkpt lat="46.85261" lon="-0.907">
        <ele>172.9</ele>
        <time>2024-10-17T21:31:20.212Z</time>
      </trkpt>
      <trkpt lat="46.85257" lon="-0.90683">
        <ele>173.4</ele>
        <time>2024-10-17T21:31:23.105Z</time>
      </trkpt>
      <trkpt lat="46.85254" lon="-0.90665">
        <ele>174.1</ele>
        <time>2024-10-17T21:31:26.689Z</time>
      </trkpt>
      <trkpt lat="46.85252" lon="-0.9065">
        <ele>174.1</ele>
        <time>2024-10-17T21:31:28.272Z</time>
      </trkpt>
      <trkpt lat="46.85241" lon="-0.90588">
        <ele>175.1</ele>
        <time>2024-10-17T21:31:36.657Z</time>
      </trkpt>
      <trkpt lat="46.85235" lon="-0.90557">
        <ele>176.6</ele>
        <time>2024-10-17T21:31:44.049Z</time>
      </trkpt>
      <trkpt lat="46.85234" lon="-0.90548">
        <ele>177.6</ele>
        <time>2024-10-17T21:31:48.099Z</time>
      </trkpt>
      <trkpt lat="46.85231" lon="-0.90539">
        <ele>178.1</ele>
        <time>2024-10-17T21:31:50.555Z</time>
      </trkpt>
      <trkpt lat="46.85226" lon="-0.90517">
        <ele>180.1</ele>
        <time>2024-10-17T21:32:00.685Z</time>
      </trkpt>
      <trkpt lat="46.85216" lon="-0.90486">
        <ele>182.4</ele>
        <time>2024-10-17T21:32:12.410Z</time>
      </trkpt>
      <trkpt lat="46.85216" lon="-0.90486">
        <ele>182.4</ele>
        <time>2024-10-17T21:32:12.410Z</time>
      </trkpt>
      <trkpt lat="46.85209" lon="-0.90467">
        <ele>182.3</ele>
        <time>2024-10-17T21:32:14.510Z</time>
      </trkpt>
      <trkpt lat="46.85201" lon="-0.90436">
        <ele>181.3</ele>
        <time>2024-10-17T21:32:16.897Z</time>
      </trkpt>
      <trkpt lat="46.852" lon="-0.90419">
        <ele>181.3</ele>
        <time>2024-10-17T21:32:18.665Z</time>
      </trkpt>
      <trkpt lat="46.85199" lon="-0.90386">
        <ele>180.9</ele>
        <time>2024-10-17T21:32:21.585Z</time>
      </trkpt>
      <trkpt lat="46.85198" lon="-0.90364">
        <ele>181.1</ele>
        <time>2024-10-17T21:32:24.191Z</time>
      </trkpt>
      <trkpt lat="46.85198" lon="-0.90351">
        <ele>181.4</ele>
        <time>2024-10-17T21:32:26.117Z</time>
      </trkpt>
      <trkpt lat="46.85198" lon="-0.90336">
        <ele>181.8</ele>
        <time>2024-10-17T21:32:28.483Z</time>
      </trkpt>
      <trkpt lat="46.85198" lon="-0.90319">
        <ele>181.8</ele>
        <time>2024-10-17T21:32:30.245Z</time>
      </trkpt>
      <trkpt lat="46.852" lon="-0.90312">
        <ele>182.2</ele>
        <time>2024-10-17T21:32:32.213Z</time>
      </trkpt>
      <trkpt lat="46.85204" lon="-0.90306">
        <ele>183.1</ele>
        <time>2024-10-17T21:32:35.934Z</time>
      </trkpt>
      <trkpt lat="46.85213" lon="-0.90293">
        <ele>184.6</ele>
        <time>2024-10-17T21:32:43.689Z</time>
      </trkpt>
      <trkpt lat="46.85233" lon="-0.90271">
        <ele>186.7</ele>
        <time>2024-10-17T21:32:54.101Z</time>
      </trkpt>
      <trkpt lat="46.85233" lon="-0.90271">
        <ele>186.7</ele>
        <time>2024-10-17T21:32:54.101Z</time>
      </trkpt>
      <trkpt lat="46.85246" lon="-0.90268">
        <ele>187.6</ele>
        <time>2024-10-17T21:32:58.535Z</time>
      </trkpt>
      <trkpt lat="46.85253" lon="-0.90267">
        <ele>188.3</ele>
        <time>2024-10-17T21:33:02.113Z</time>
      </trkpt>
      <trkpt lat="46.85263" lon="-0.90264">
        <ele>189.4</ele>
        <time>2024-10-17T21:33:07.807Z</time>
      </trkpt>
      <trkpt lat="46.85275" lon="-0.90256">
        <ele>189.7</ele>
        <time>2024-10-17T21:33:10.330Z</time>
      </trkpt>
      <trkpt lat="46.85282" lon="-0.90251">
        <ele>189.5</ele>
        <time>2024-10-17T21:33:11.273Z</time>
      </trkpt>
      <trkpt lat="46.85288" lon="-0.90246">
        <ele>189.3</ele>
        <time>2024-10-17T21:33:12.087Z</time>
      </trkpt>
      <trkpt lat="46.85297" lon="-0.90237">
        <ele>188.7</ele>
        <time>2024-10-17T21:33:13.154Z</time>
      </trkpt>
      <trkpt lat="46.85305" lon="-0.90227">
        <ele>187.7</ele>
        <time>2024-10-17T21:33:14.111Z</time>
      </trkpt>
      <trkpt lat="46.8531" lon="-0.90219">
        <ele>187</ele>
        <time>2024-10-17T21:33:14.785Z</time>
      </trkpt>
      <trkpt lat="46.85314" lon="-0.90209">
        <ele>186.8</ele>
        <time>2024-10-17T21:33:15.747Z</time>
      </trkpt>
      <trkpt lat="46.8532" lon="-0.90194">
        <ele>186.5</ele>
        <time>2024-10-17T21:33:17.191Z</time>
      </trkpt>
      <trkpt lat="46.85328" lon="-0.90172">
        <ele>187.5</ele>
        <time>2024-10-17T21:33:22.232Z</time>
      </trkpt>
      <trkpt lat="46.85333" lon="-0.9016">
        <ele>188</ele>
        <time>2024-10-17T21:33:24.839Z</time>
      </trkpt>
      <trkpt lat="46.85343" lon="-0.90134">
        <ele>189.5</ele>
        <time>2024-10-17T21:33:32.209Z</time>
      </trkpt>
      <trkpt lat="46.85347" lon="-0.90125">
        <ele>190.2</ele>
        <time>2024-10-17T21:33:35.757Z</time>
      </trkpt>
      <trkpt lat="46.85362" lon="-0.90093">
        <ele>192.9</ele>
        <time>2024-10-17T21:33:49.616Z</time>
      </trkpt>
      <trkpt lat="46.85369" lon="-0.90078">
        <ele>195</ele>
        <time>2024-10-17T21:33:57.681Z</time>
      </trkpt>
      <trkpt lat="46.85374" lon="-0.90069">
        <ele>196.2</ele>
        <time>2024-10-17T21:34:02.830Z</time>
      </trkpt>
      <trkpt lat="46.85398" lon="-0.90018">
        <ele>202.3</ele>
        <time>2024-10-17T21:34:30.324Z</time>
      </trkpt>
      <trkpt lat="46.85417" lon="-0.89967">
        <ele>205.9</ele>
        <time>2024-10-17T21:34:48.394Z</time>
      </trkpt>
      <trkpt lat="46.85428" lon="-0.89943">
        <ele>207.9</ele>
        <time>2024-10-17T21:34:58.650Z</time>
      </trkpt>
      <trkpt lat="46.85437" lon="-0.8992">
        <ele>209.7</ele>
        <time>2024-10-17T21:35:07.848Z</time>
      </trkpt>
      <trkpt lat="46.85451" lon="-0.89886">
        <ele>211.4</ele>
        <time>2024-10-17T21:35:16.310Z</time>
      </trkpt>
      <trkpt lat="46.85463" lon="-0.89857">
        <ele>214</ele>
        <time>2024-10-17T21:35:29.805Z</time>
      </trkpt>
      <trkpt lat="46.85471" lon="-0.89836">
        <ele>215.7</ele>
        <time>2024-10-17T21:35:38.555Z</time>
      </trkpt>
      <trkpt lat="46.85482" lon="-0.89801">
        <ele>217.8</ele>
        <time>2024-10-17T21:35:48.910Z</time>
      </trkpt>
      <trkpt lat="46.85488" lon="-0.89781">
        <ele>218.7</ele>
        <time>2024-10-17T21:35:53.422Z</time>
      </trkpt>
      <trkpt lat="46.85491" lon="-0.89766">
        <ele>218.9</ele>
        <time>2024-10-17T21:35:55.378Z</time>
      </trkpt>
      <trkpt lat="46.85493" lon="-0.89756">
        <ele>219</ele>
        <time>2024-10-17T21:35:56.620Z</time>
      </trkpt>
      <trkpt lat="46.85494" lon="-0.89742">
        <ele>218.8</ele>
        <time>2024-10-17T21:35:57.832Z</time>
      </trkpt>
      <trkpt lat="46.85495" lon="-0.89731">
        <ele>218.6</ele>
        <time>2024-10-17T21:35:58.746Z</time>
      </trkpt>
      <trkpt lat="46.85495" lon="-0.89717">
        <ele>217.9</ele>
        <time>2024-10-17T21:35:59.616Z</time>
      </trkpt>
      <trkpt lat="46.85496" lon="-0.89699">
        <ele>216.9</ele>
        <time>2024-10-17T21:36:00.739Z</time>
      </trkpt>
      <trkpt lat="46.85497" lon="-0.89683">
        <ele>216.3</ele>
        <time>2024-10-17T21:36:01.817Z</time>
      </trkpt>
      <trkpt lat="46.85497" lon="-0.89668">
        <ele>215.7</ele>
        <time>2024-10-17T21:36:02.798Z</time>
      </trkpt>
      <trkpt lat="46.85498" lon="-0.89656">
        <ele>215</ele>
        <time>2024-10-17T21:36:03.550Z</time>
      </trkpt>
      <trkpt lat="46.85499" lon="-0.89625">
        <ele>213.4</ele>
        <time>2024-10-17T21:36:05.479Z</time>
      </trkpt>
      <trkpt lat="46.855" lon="-0.89593">
        <ele>212.3</ele>
        <time>2024-10-17T21:36:07.692Z</time>
      </trkpt>
      <trkpt lat="46.85501" lon="-0.89559">
        <ele>211.2</ele>
        <time>2024-10-17T21:36:10.091Z</time>
      </trkpt>
      <trkpt lat="46.85503" lon="-0.89531">
        <ele>210.1</ele>
        <time>2024-10-17T21:36:11.949Z</time>
      </trkpt>
      <trkpt lat="46.85503" lon="-0.89498">
        <ele>208.9</ele>
        <time>2024-10-17T21:36:14.183Z</time>
      </trkpt>
      <trkpt lat="46.85506" lon="-0.89454">
        <ele>209.3</ele>
        <time>2024-10-17T21:36:19.408Z</time>
      </trkpt>
      <trkpt lat="46.85505" lon="-0.8945">
        <ele>209.3</ele>
        <time>2024-10-17T21:36:19.849Z</time>
      </trkpt>
      <trkpt lat="46.85504" lon="-0.89432">
        <ele>210.7</ele>
        <time>2024-10-17T21:36:27.116Z</time>
      </trkpt>
      <trkpt lat="46.85501" lon="-0.89414">
        <ele>212.5</ele>
        <time>2024-10-17T21:36:35.344Z</time>
      </trkpt>
      <trkpt lat="46.85497" lon="-0.89405">
        <ele>213.4</ele>
        <time>2024-10-17T21:36:39.958Z</time>
      </trkpt>
      <trkpt lat="46.85493" lon="-0.89397">
        <ele>214.1</ele>
        <time>2024-10-17T21:36:43.560Z</time>
      </trkpt>
      <trkpt lat="46.85488" lon="-0.8939">
        <ele>214.6</ele>
        <time>2024-10-17T21:36:46.017Z</time>
      </trkpt>
      <trkpt lat="46.85464" lon="-0.89366">
        <ele>216.8</ele>
        <time>2024-10-17T21:36:56.832Z</time>
      </trkpt>
      <trkpt lat="46.85438" lon="-0.89338">
        <ele>220.1</ele>
        <time>2024-10-17T21:37:13.783Z</time>
      </trkpt>
      <trkpt lat="46.85419" lon="-0.89317">
        <ele>221.8</ele>
        <time>2024-10-17T21:37:22.139Z</time>
      </trkpt>
      <trkpt lat="46.85417" lon="-0.89313">
        <ele>222.2</ele>
        <time>2024-10-17T21:37:24.208Z</time>
      </trkpt>
      <trkpt lat="46.85414" lon="-0.89308">
        <ele>222.4</ele>
        <time>2024-10-17T21:37:25.323Z</time>
      </trkpt>
      <trkpt lat="46.85412" lon="-0.89303">
        <ele>222.8</ele>
        <time>2024-10-17T21:37:27.373Z</time>
      </trkpt>
      <trkpt lat="46.85411" lon="-0.89297">
        <ele>223.3</ele>
        <time>2024-10-17T21:37:29.959Z</time>
      </trkpt>
      <trkpt lat="46.8541" lon="-0.89291">
        <ele>223.9</ele>
        <time>2024-10-17T21:37:32.702Z</time>
      </trkpt>
      <trkpt lat="46.85409" lon="-0.89283">
        <ele>224.6</ele>
        <time>2024-10-17T21:37:36.251Z</time>
      </trkpt>
      <trkpt lat="46.85409" lon="-0.89273">
        <ele>225.3</ele>
        <time>2024-10-17T21:37:39.848Z</time>
      </trkpt>
      <trkpt lat="46.8541" lon="-0.89266">
        <ele>225.7</ele>
        <time>2024-10-17T21:37:41.825Z</time>
      </trkpt>
      <trkpt lat="46.85413" lon="-0.89254">
        <ele>226.5</ele>
        <time>2024-10-17T21:37:45.848Z</time>
      </trkpt>
      <trkpt lat="46.85419" lon="-0.89236">
        <ele>227.7</ele>
        <time>2024-10-17T21:37:51.837Z</time>
      </trkpt>
      <trkpt lat="46.85429" lon="-0.89211">
        <ele>229.3</ele>
        <time>2024-10-17T21:37:59.735Z</time>
      </trkpt>
      <trkpt lat="46.85438" lon="-0.89186">
        <ele>230.5</ele>
        <time>2024-10-17T21:38:05.717Z</time>
      </trkpt>
      <trkpt lat="46.8544" lon="-0.89177">
        <ele>230.7</ele>
        <time>2024-10-17T21:38:07.074Z</time>
      </trkpt>
      <trkpt lat="46.85442" lon="-0.8917">
        <ele>230.8</ele>
        <time>2024-10-17T21:38:08.029Z</time>
      </trkpt>
      <trkpt lat="46.85442" lon="-0.89162">
        <ele>230.8</ele>
        <time>2024-10-17T21:38:08.858Z</time>
      </trkpt>
      <trkpt lat="46.85443" lon="-0.8915">
        <ele>230.9</ele>
        <time>2024-10-17T21:38:10.270Z</time>
      </trkpt>
      <trkpt lat="46.85442" lon="-0.8913">
        <ele>230.8</ele>
        <time>2024-10-17T21:38:12.212Z</time>
      </trkpt>
      <trkpt lat="46.85442" lon="-0.89086">
        <ele>230.9</ele>
        <time>2024-10-17T21:38:16.919Z</time>
      </trkpt>
      <trkpt lat="46.85442" lon="-0.8906">
        <ele>230.9</ele>
        <time>2024-10-17T21:38:19.614Z</time>
      </trkpt>
      <trkpt lat="46.85442" lon="-0.89045">
        <ele>230.9</ele>
        <time>2024-10-17T21:38:21.168Z</time>
      </trkpt>
      <trkpt lat="46.85447" lon="-0.89044">
        <ele>231.1</ele>
        <time>2024-10-17T21:38:22.341Z</time>
      </trkpt>
      <trkpt lat="46.85474" lon="-0.89035">
        <ele>232</ele>
        <time>2024-10-17T21:38:28.254Z</time>
      </trkpt>
      <trkpt lat="46.8551" lon="-0.89019">
        <ele>232</ele>
        <time>2024-10-17T21:38:33.955Z</time>
      </trkpt>
      <trkpt lat="46.85559" lon="-0.89027">
        <ele>232</ele>
        <time>2024-10-17T21:38:41.426Z</time>
      </trkpt>
      <trkpt lat="46.85589" lon="-0.89029">
        <ele>232.1</ele>
        <time>2024-10-17T21:38:46.125Z</time>
      </trkpt>
      <trkpt lat="46.8561" lon="-0.89027">
        <ele>232</ele>
        <time>2024-10-17T21:38:49.175Z</time>
      </trkpt>
      <trkpt lat="46.85612" lon="-0.89011">
        <ele>231.4</ele>
        <time>2024-10-17T21:38:50.271Z</time>
      </trkpt>
      <trkpt lat="46.85597" lon="-0.88959">
        <ele>230</ele>
        <time>2024-10-17T21:38:54.575Z</time>
      </trkpt>
      <trkpt lat="46.85573" lon="-0.88908">
        <ele>231.3</ele>
        <time>2024-10-17T21:39:03.430Z</time>
      </trkpt>
      <trkpt lat="46.85539" lon="-0.88849">
        <ele>233.9</ele>
        <time>2024-10-17T21:39:17.249Z</time>
      </trkpt>
      <trkpt lat="46.85517" lon="-0.8881">
        <ele>235.8</ele>
        <time>2024-10-17T21:39:26.990Z</time>
      </trkpt>
      <trkpt lat="46.85506" lon="-0.88775">
        <ele>237.4</ele>
        <time>2024-10-17T21:39:34.998Z</time>
      </trkpt>
      <trkpt lat="46.855" lon="-0.8874">
        <ele>239.4</ele>
        <time>2024-10-17T21:39:44.874Z</time>
      </trkpt>
      <trkpt lat="46.85494" lon="-0.88716">
        <ele>240</ele>
        <time>2024-10-17T21:39:48.687Z</time>
      </trkpt>
      <trkpt lat="46.85494" lon="-0.88687">
        <ele>241.1</ele>
        <time>2024-10-17T21:39:54.312Z</time>
      </trkpt>
      <trkpt lat="46.85494" lon="-0.88648">
        <ele>243</ele>
        <time>2024-10-17T21:40:03.651Z</time>
      </trkpt>
      <trkpt lat="46.85493" lon="-0.88582">
        <ele>245.3</ele>
        <time>2024-10-17T21:40:15.730Z</time>
      </trkpt>
      <trkpt lat="46.85493" lon="-0.88491">
        <ele>247</ele>
        <time>2024-10-17T21:40:28.252Z</time>
      </trkpt>
      <trkpt lat="46.85493" lon="-0.88428">
        <ele>248.6</ele>
        <time>2024-10-17T21:40:37.969Z</time>
      </trkpt>
      <trkpt lat="46.85492" lon="-0.88402">
        <ele>249.2</ele>
        <time>2024-10-17T21:40:41.825Z</time>
      </trkpt>
      <trkpt lat="46.85491" lon="-0.88383">
        <ele>249.8</ele>
        <time>2024-10-17T21:40:45.101Z</time>
      </trkpt>
      <trkpt lat="46.85488" lon="-0.88362">
        <ele>250.1</ele>
        <time>2024-10-17T21:40:47.838Z</time>
      </trkpt>
      <trkpt lat="46.85484" lon="-0.88335">
        <ele>250.8</ele>
        <time>2024-10-17T21:40:52.094Z</time>
      </trkpt>
      <trkpt lat="46.85479" lon="-0.88313">
        <ele>251.2</ele>
        <time>2024-10-17T21:40:55.211Z</time>
      </trkpt>
      <trkpt lat="46.85476" lon="-0.88289">
        <ele>251.4</ele>
        <time>2024-10-17T21:40:58.057Z</time>
      </trkpt>
      <trkpt lat="46.85473" lon="-0.8827">
        <ele>251.4</ele>
        <time>2024-10-17T21:41:00.077Z</time>
      </trkpt>
      <trkpt lat="46.8547" lon="-0.88252">
        <ele>251.7</ele>
        <time>2024-10-17T21:41:02.525Z</time>
      </trkpt>
      <trkpt lat="46.85466" lon="-0.88232">
        <ele>252.1</ele>
        <time>2024-10-17T21:41:05.417Z</time>
      </trkpt>
      <trkpt lat="46.85461" lon="-0.8821">
        <ele>252.5</ele>
        <time>2024-10-17T21:41:08.534Z</time>
      </trkpt>
      <trkpt lat="46.85457" lon="-0.88193">
        <ele>253.1</ele>
        <time>2024-10-17T21:41:11.735Z</time>
      </trkpt>
      <trkpt lat="46.85453" lon="-0.88177">
        <ele>253.6</ele>
        <time>2024-10-17T21:41:14.553Z</time>
      </trkpt>
      <trkpt lat="46.85447" lon="-0.88157">
        <ele>254.3</ele>
        <time>2024-10-17T21:41:18.347Z</time>
      </trkpt>
      <trkpt lat="46.85442" lon="-0.88135">
        <ele>255.2</ele>
        <time>2024-10-17T21:41:22.921Z</time>
      </trkpt>
      <trkpt lat="46.85437" lon="-0.88112">
        <ele>256.2</ele>
        <time>2024-10-17T21:41:27.928Z</time>
      </trkpt>
      <trkpt lat="46.85434" lon="-0.88089">
        <ele>256.7</ele>
        <time>2024-10-17T21:41:31.298Z</time>
      </trkpt>
      <trkpt lat="46.85432" lon="-0.8807">
        <ele>257.2</ele>
        <time>2024-10-17T21:41:34.294Z</time>
      </trkpt>
      <trkpt lat="46.85431" lon="-0.88054">
        <ele>257.5</ele>
        <time>2024-10-17T21:41:36.505Z</time>
      </trkpt>
      <trkpt lat="46.85429" lon="-0.88029">
        <ele>258</ele>
        <time>2024-10-17T21:41:40.037Z</time>
      </trkpt>
      <trkpt lat="46.85429" lon="-0.88006">
        <ele>258.4</ele>
        <time>2024-10-17T21:41:43.136Z</time>
      </trkpt>
      <trkpt lat="46.85429" lon="-0.87983">
        <ele>258.8</ele>
        <time>2024-10-17T21:41:46.235Z</time>
      </trkpt>
      <trkpt lat="46.85429" lon="-0.87961">
        <ele>259.2</ele>
        <time>2024-10-17T21:41:49.238Z</time>
      </trkpt>
      <trkpt lat="46.85429" lon="-0.87939">
        <ele>259.6</ele>
        <time>2024-10-17T21:41:52.240Z</time>
      </trkpt>
      <trkpt lat="46.8543" lon="-0.87915">
        <ele>260</ele>
        <time>2024-10-17T21:41:55.440Z</time>
      </trkpt>
      <trkpt lat="46.85429" lon="-0.87871">
        <ele>260.8</ele>
        <time>2024-10-17T21:42:01.448Z</time>
      </trkpt>
      <trkpt lat="46.8543" lon="-0.87825">
        <ele>261</ele>
        <time>2024-10-17T21:42:06.520Z</time>
      </trkpt>
      <trkpt lat="46.8543" lon="-0.87798">
        <ele>260.7</ele>
        <time>2024-10-17T21:42:08.937Z</time>
      </trkpt>
      <trkpt lat="46.85431" lon="-0.8777">
        <ele>259.7</ele>
        <time>2024-10-17T21:42:10.848Z</time>
      </trkpt>
      <trkpt lat="46.85431" lon="-0.87746">
        <ele>258.9</ele>
        <time>2024-10-17T21:42:12.523Z</time>
      </trkpt>
      <trkpt lat="46.85431" lon="-0.87719">
        <ele>258.4</ele>
        <time>2024-10-17T21:42:14.733Z</time>
      </trkpt>
      <trkpt lat="46.85432" lon="-0.87698">
        <ele>257.7</ele>
        <time>2024-10-17T21:42:16.203Z</time>
      </trkpt>
      <trkpt lat="46.85433" lon="-0.87683">
        <ele>257.2</ele>
        <time>2024-10-17T21:42:17.256Z</time>
      </trkpt>
      <trkpt lat="46.85432" lon="-0.87643">
        <ele>255.3</ele>
        <time>2024-10-17T21:42:19.745Z</time>
      </trkpt>
      <trkpt lat="46.85431" lon="-0.87622">
        <ele>254.4</ele>
        <time>2024-10-17T21:42:21.088Z</time>
      </trkpt>
      <trkpt lat="46.85429" lon="-0.87597">
        <ele>253.9</ele>
        <time>2024-10-17T21:42:23.116Z</time>
      </trkpt>
      <trkpt lat="46.85427" lon="-0.87571">
        <ele>253.7</ele>
        <time>2024-10-17T21:42:25.563Z</time>
      </trkpt>
      <trkpt lat="46.85426" lon="-0.87548">
        <ele>253.7</ele>
        <time>2024-10-17T21:42:27.952Z</time>
      </trkpt>
      <trkpt lat="46.85425" lon="-0.87523">
        <ele>253.5</ele>
        <time>2024-10-17T21:42:30.283Z</time>
      </trkpt>
      <trkpt lat="46.85425" lon="-0.87491">
        <ele>252.9</ele>
        <time>2024-10-17T21:42:32.896Z</time>
      </trkpt>
      <trkpt lat="46.85424" lon="-0.8746">
        <ele>253.1</ele>
        <time>2024-10-17T21:42:36.423Z</time>
      </trkpt>
      <trkpt lat="46.85424" lon="-0.87431">
        <ele>253.5</ele>
        <time>2024-10-17T21:42:40.111Z</time>
      </trkpt>
      <trkpt lat="46.85425" lon="-0.874">
        <ele>253.8</ele>
        <time>2024-10-17T21:42:43.813Z</time>
      </trkpt>
      <trkpt lat="46.85427" lon="-0.87372">
        <ele>253.9</ele>
        <time>2024-10-17T21:42:46.880Z</time>
      </trkpt>
      <trkpt lat="46.85429" lon="-0.87346">
        <ele>253</ele>
        <time>2024-10-17T21:42:48.686Z</time>
      </trkpt>
      <trkpt lat="46.85432" lon="-0.87321">
        <ele>252</ele>
        <time>2024-10-17T21:42:50.356Z</time>
      </trkpt>
      <trkpt lat="46.85435" lon="-0.87287">
        <ele>250.7</ele>
        <time>2024-10-17T21:42:52.643Z</time>
      </trkpt>
      <trkpt lat="46.85441" lon="-0.87235">
        <ele>249.2</ele>
        <time>2024-10-17T21:42:56.512Z</time>
      </trkpt>
      <trkpt lat="46.8545" lon="-0.87138">
        <ele>247.2</ele>
        <time>2024-10-17T21:43:04.351Z</time>
      </trkpt>
      <trkpt lat="46.85455" lon="-0.87082">
        <ele>248.4</ele>
        <time>2024-10-17T21:43:12.462Z</time>
      </trkpt>
      <trkpt lat="46.85459" lon="-0.87037">
        <ele>248.2</ele>
        <time>2024-10-17T21:43:16.891Z</time>
      </trkpt>
      <trkpt lat="46.85463" lon="-0.86998">
        <ele>247</ele>
        <time>2024-10-17T21:43:19.724Z</time>
      </trkpt>
      <trkpt lat="46.85468" lon="-0.8695">
        <ele>245.5</ele>
        <time>2024-10-17T21:43:23.197Z</time>
      </trkpt>
      <trkpt lat="46.85471" lon="-0.86918">
        <ele>244.1</ele>
        <time>2024-10-17T21:43:25.246Z</time>
      </trkpt>
      <trkpt lat="46.85476" lon="-0.86875">
        <ele>242.4</ele>
        <time>2024-10-17T21:43:28.127Z</time>
      </trkpt>
      <trkpt lat="46.85478" lon="-0.86849">
        <ele>241.6</ele>
        <time>2024-10-17T21:43:30.004Z</time>
      </trkpt>
      <trkpt lat="46.85479" lon="-0.86836">
        <ele>241.1</ele>
        <time>2024-10-17T21:43:30.874Z</time>
      </trkpt>
      <trkpt lat="46.8548" lon="-0.86819">
        <ele>240.9</ele>
        <time>2024-10-17T21:43:32.390Z</time>
      </trkpt>
      <trkpt lat="46.8548" lon="-0.86802">
        <ele>240.6</ele>
        <time>2024-10-17T21:43:33.796Z</time>
      </trkpt>
      <trkpt lat="46.85479" lon="-0.86782">
        <ele>239.9</ele>
        <time>2024-10-17T21:43:35.173Z</time>
      </trkpt>
      <trkpt lat="46.85478" lon="-0.8676">
        <ele>239.2</ele>
        <time>2024-10-17T21:43:36.736Z</time>
      </trkpt>
      <trkpt lat="46.85476" lon="-0.86739">
        <ele>238.5</ele>
        <time>2024-10-17T21:43:38.220Z</time>
      </trkpt>
      <trkpt lat="46.85474" lon="-0.86719">
        <ele>237.9</ele>
        <time>2024-10-17T21:43:39.684Z</time>
      </trkpt>
      <trkpt lat="46.85473" lon="-0.86693">
        <ele>237.9</ele>
        <time>2024-10-17T21:43:42.382Z</time>
      </trkpt>
      <trkpt lat="46.85472" lon="-0.86673">
        <ele>237.2</ele>
        <time>2024-10-17T21:43:43.760Z</time>
      </trkpt>
      <trkpt lat="46.85472" lon="-0.86656">
        <ele>236.6</ele>
        <time>2024-10-17T21:43:44.923Z</time>
      </trkpt>
      <trkpt lat="46.85473" lon="-0.86629">
        <ele>236</ele>
        <time>2024-10-17T21:43:47.046Z</time>
      </trkpt>
      <trkpt lat="46.85474" lon="-0.86605">
        <ele>235.8</ele>
        <time>2024-10-17T21:43:49.275Z</time>
      </trkpt>
      <trkpt lat="46.85476" lon="-0.86574">
        <ele>234.8</ele>
        <time>2024-10-17T21:43:51.475Z</time>
      </trkpt>
      <trkpt lat="46.85478" lon="-0.86524">
        <ele>233.6</ele>
        <time>2024-10-17T21:43:55.330Z</time>
      </trkpt>
      <trkpt lat="46.85481" lon="-0.86475">
        <ele>233.4</ele>
        <time>2024-10-17T21:44:00.153Z</time>
      </trkpt>
      <trkpt lat="46.85483" lon="-0.86419">
        <ele>233.6</ele>
        <time>2024-10-17T21:44:06.264Z</time>
      </trkpt>
      <trkpt lat="46.85484" lon="-0.86396">
        <ele>232.8</ele>
        <time>2024-10-17T21:44:07.850Z</time>
      </trkpt>
      <trkpt lat="46.85483" lon="-0.86374">
        <ele>232.3</ele>
        <time>2024-10-17T21:44:09.572Z</time>
      </trkpt>
      <trkpt lat="46.85482" lon="-0.86345">
        <ele>231.4</ele>
        <time>2024-10-17T21:44:11.646Z</time>
      </trkpt>
      <trkpt lat="46.8548" lon="-0.86323">
        <ele>230.6</ele>
        <time>2024-10-17T21:44:13.154Z</time>
      </trkpt>
      <trkpt lat="46.85478" lon="-0.86303">
        <ele>229.9</ele>
        <time>2024-10-17T21:44:14.546Z</time>
      </trkpt>
      <trkpt lat="46.85476" lon="-0.86288">
        <ele>229.4</ele>
        <time>2024-10-17T21:44:15.619Z</time>
      </trkpt>
      <trkpt lat="46.85473" lon="-0.86269">
        <ele>229</ele>
        <time>2024-10-17T21:44:17.179Z</time>
      </trkpt>
      <trkpt lat="46.85464" lon="-0.86218">
        <ele>228.6</ele>
        <time>2024-10-17T21:44:22.108Z</time>
      </trkpt>
      <trkpt lat="46.85456" lon="-0.86167">
        <ele>228</ele>
        <time>2024-10-17T21:44:26.771Z</time>
      </trkpt>
      <trkpt lat="46.85447" lon="-0.86119">
        <ele>227.9</ele>
        <time>2024-10-17T21:44:31.787Z</time>
      </trkpt>
      <trkpt lat="46.85436" lon="-0.86057">
        <ele>227</ele>
        <time>2024-10-17T21:44:37.316Z</time>
      </trkpt>
      <trkpt lat="46.85422" lon="-0.85984">
        <ele>225.4</ele>
        <time>2024-10-17T21:44:43.341Z</time>
      </trkpt>
      <trkpt lat="46.85409" lon="-0.8592">
        <ele>222.5</ele>
        <time>2024-10-17T21:44:47.574Z</time>
      </trkpt>
      <trkpt lat="46.85403" lon="-0.85892">
        <ele>222.5</ele>
        <time>2024-10-17T21:44:50.614Z</time>
      </trkpt>
      <trkpt lat="46.85395" lon="-0.85863">
        <ele>221.8</ele>
        <time>2024-10-17T21:44:53.064Z</time>
      </trkpt>
      <trkpt lat="46.85386" lon="-0.85835">
        <ele>221.2</ele>
        <time>2024-10-17T21:44:55.571Z</time>
      </trkpt>
      <trkpt lat="46.85377" lon="-0.85811">
        <ele>221.1</ele>
        <time>2024-10-17T21:44:58.269Z</time>
      </trkpt>
      <trkpt lat="46.85369" lon="-0.8579">
        <ele>220.4</ele>
        <time>2024-10-17T21:45:00.020Z</time>
      </trkpt>
      <trkpt lat="46.85359" lon="-0.85765">
        <ele>219.5</ele>
        <time>2024-10-17T21:45:02.088Z</time>
      </trkpt>
      <trkpt lat="46.85338" lon="-0.85714">
        <ele>216.4</ele>
        <time>2024-10-17T21:45:05.789Z</time>
      </trkpt>
      <trkpt lat="46.85315" lon="-0.85656">
        <ele>213</ele>
        <time>2024-10-17T21:45:09.957Z</time>
      </trkpt>
      <trkpt lat="46.85295" lon="-0.85606">
        <ele>211</ele>
        <time>2024-10-17T21:45:13.951Z</time>
      </trkpt>
      <trkpt lat="46.85277" lon="-0.8556">
        <ele>208.3</ele>
        <time>2024-10-17T21:45:17.246Z</time>
      </trkpt>
      <trkpt lat="46.85265" lon="-0.85531">
        <ele>207.6</ele>
        <time>2024-10-17T21:45:19.954Z</time>
      </trkpt>
      <trkpt lat="46.8525" lon="-0.85494">
        <ele>205.8</ele>
        <time>2024-10-17T21:45:22.720Z</time>
      </trkpt>
      <trkpt lat="46.85238" lon="-0.85461">
        <ele>204.4</ele>
        <time>2024-10-17T21:45:25.225Z</time>
      </trkpt>
      <trkpt lat="46.85226" lon="-0.8543">
        <ele>203.3</ele>
        <time>2024-10-17T21:45:27.773Z</time>
      </trkpt>
      <trkpt lat="46.85216" lon="-0.85405">
        <ele>203</ele>
        <time>2024-10-17T21:45:30.390Z</time>
      </trkpt>
      <trkpt lat="46.85209" lon="-0.85383">
        <ele>202.9</ele>
        <time>2024-10-17T21:45:32.767Z</time>
      </trkpt>
      <trkpt lat="46.85202" lon="-0.85356">
        <ele>202.7</ele>
        <time>2024-10-17T21:45:35.493Z</time>
      </trkpt>
      <trkpt lat="46.85202" lon="-0.85356">
        <ele>202.7</ele>
        <time>2024-10-17T21:45:35.493Z</time>
      </trkpt>
      <trkpt lat="46.85197" lon="-0.85337">
        <ele>202.8</ele>
        <time>2024-10-17T21:45:37.755Z</time>
      </trkpt>
      <trkpt lat="46.85188" lon="-0.85302">
        <ele>202.1</ele>
        <time>2024-10-17T21:45:40.809Z</time>
      </trkpt>
      <trkpt lat="46.8518" lon="-0.85268">
        <ele>201.7</ele>
        <time>2024-10-17T21:45:44.027Z</time>
      </trkpt>
      <trkpt lat="46.85174" lon="-0.85243">
        <ele>201.2</ele>
        <time>2024-10-17T21:45:46.187Z</time>
      </trkpt>
      <trkpt lat="46.85171" lon="-0.85225">
        <ele>200.8</ele>
        <time>2024-10-17T21:45:47.651Z</time>
      </trkpt>
      <trkpt lat="46.85168" lon="-0.85202">
        <ele>200.9</ele>
        <time>2024-10-17T21:45:50.229Z</time>
      </trkpt>
      <trkpt lat="46.85167" lon="-0.85177">
        <ele>201</ele>
        <time>2024-10-17T21:45:52.976Z</time>
      </trkpt>
      <trkpt lat="46.85167" lon="-0.85154">
        <ele>200.5</ele>
        <time>2024-10-17T21:45:54.790Z</time>
      </trkpt>
      <trkpt lat="46.85166" lon="-0.85137">
        <ele>200</ele>
        <time>2024-10-17T21:45:56.031Z</time>
      </trkpt>
      <trkpt lat="46.85165" lon="-0.85099">
        <ele>199.6</ele>
        <time>2024-10-17T21:45:59.460Z</time>
      </trkpt>
      <trkpt lat="46.85164" lon="-0.85062">
        <ele>198.9</ele>
        <time>2024-10-17T21:46:02.478Z</time>
      </trkpt>
      <trkpt lat="46.85164" lon="-0.85038">
        <ele>198.8</ele>
        <time>2024-10-17T21:46:04.828Z</time>
      </trkpt>
      <trkpt lat="46.85164" lon="-0.85017">
        <ele>198.8</ele>
        <time>2024-10-17T21:46:07.004Z</time>
      </trkpt>
      <trkpt lat="46.85164" lon="-0.85003">
        <ele>198.8</ele>
        <time>2024-10-17T21:46:08.455Z</time>
      </trkpt>
      <trkpt lat="46.85165" lon="-0.84992">
        <ele>198.6</ele>
        <time>2024-10-17T21:46:09.368Z</time>
      </trkpt>
      <trkpt lat="46.85166" lon="-0.84983">
        <ele>198.3</ele>
        <time>2024-10-17T21:46:10.007Z</time>
      </trkpt>
      <trkpt lat="46.85169" lon="-0.84974">
        <ele>198.1</ele>
        <time>2024-10-17T21:46:10.813Z</time>
      </trkpt>
      <trkpt lat="46.85175" lon="-0.84957">
        <ele>197.9</ele>
        <time>2024-10-17T21:46:12.540Z</time>
      </trkpt>
      <trkpt lat="46.85182" lon="-0.84936">
        <ele>197.8</ele>
        <time>2024-10-17T21:46:14.823Z</time>
      </trkpt>
      <trkpt lat="46.85191" lon="-0.8491">
        <ele>197.8</ele>
        <time>2024-10-17T21:46:17.843Z</time>
      </trkpt>
      <trkpt lat="46.852" lon="-0.84882">
        <ele>197.8</ele>
        <time>2024-10-17T21:46:21.049Z</time>
      </trkpt>
      <trkpt lat="46.85204" lon="-0.8487">
        <ele>197.6</ele>
        <time>2024-10-17T21:46:22.189Z</time>
      </trkpt>
      <trkpt lat="46.85207" lon="-0.84856">
        <ele>197.4</ele>
        <time>2024-10-17T21:46:23.462Z</time>
      </trkpt>
      <trkpt lat="46.85208" lon="-0.84838">
        <ele>197.5</ele>
        <time>2024-10-17T21:46:25.487Z</time>
      </trkpt>
      <trkpt lat="46.85209" lon="-0.84824">
        <ele>197.6</ele>
        <time>2024-10-17T21:46:27.103Z</time>
      </trkpt>
      <trkpt lat="46.8521" lon="-0.84814">
        <ele>197.7</ele>
        <time>2024-10-17T21:46:28.312Z</time>
      </trkpt>
      <trkpt lat="46.8521" lon="-0.84779">
        <ele>198.6</ele>
        <time>2024-10-17T21:46:33.740Z</time>
      </trkpt>
      <trkpt lat="46.8521" lon="-0.84751">
        <ele>200.1</ele>
        <time>2024-10-17T21:46:41.127Z</time>
      </trkpt>
      <trkpt lat="46.8521" lon="-0.84733">
        <ele>200.1</ele>
        <time>2024-10-17T21:46:42.992Z</time>
      </trkpt>
      <trkpt lat="46.8521" lon="-0.84725">
        <ele>200.1</ele>
        <time>2024-10-17T21:46:43.821Z</time>
      </trkpt>
      <trkpt lat="46.8521" lon="-0.84694">
        <ele>199.7</ele>
        <time>2024-10-17T21:46:46.535Z</time>
      </trkpt>
      <trkpt lat="46.85211" lon="-0.84648">
        <ele>198.5</ele>
        <time>2024-10-17T21:46:49.997Z</time>
      </trkpt>
      <trkpt lat="46.85212" lon="-0.84596">
        <ele>197.7</ele>
        <time>2024-10-17T21:46:54.417Z</time>
      </trkpt>
      <trkpt lat="46.85212" lon="-0.84555">
        <ele>197.3</ele>
        <time>2024-10-17T21:46:58.149Z</time>
      </trkpt>
      <trkpt lat="46.85212" lon="-0.84538">
        <ele>197.3</ele>
        <time>2024-10-17T21:46:59.911Z</time>
      </trkpt>
      <trkpt lat="46.85211" lon="-0.84529">
        <ele>197.2</ele>
        <time>2024-10-17T21:47:00.728Z</time>
      </trkpt>
      <trkpt lat="46.8521" lon="-0.8452">
        <ele>197.2</ele>
        <time>2024-10-17T21:47:01.673Z</time>
      </trkpt>
      <trkpt lat="46.85207" lon="-0.84507">
        <ele>197.3</ele>
        <time>2024-10-17T21:47:03.252Z</time>
      </trkpt>
      <trkpt lat="46.85201" lon="-0.84492">
        <ele>197.5</ele>
        <time>2024-10-17T21:47:05.385Z</time>
      </trkpt>
      <trkpt lat="46.85194" lon="-0.84471">
        <ele>198</ele>
        <time>2024-10-17T21:47:08.749Z</time>
      </trkpt>
      <trkpt lat="46.85186" lon="-0.8445">
        <ele>197.6</ele>
        <time>2024-10-17T21:47:10.761Z</time>
      </trkpt>
      <trkpt lat="46.85179" lon="-0.84436">
        <ele>197.7</ele>
        <time>2024-10-17T21:47:12.712Z</time>
      </trkpt>
      <trkpt lat="46.85174" lon="-0.84426">
        <ele>197.6</ele>
        <time>2024-10-17T21:47:13.865Z</time>
      </trkpt>
      <trkpt lat="46.85168" lon="-0.84417">
        <ele>197.1</ele>
        <time>2024-10-17T21:47:14.688Z</time>
      </trkpt>
      <trkpt lat="46.8516" lon="-0.84407">
        <ele>197</ele>
        <time>2024-10-17T21:47:16.150Z</time>
      </trkpt>
      <trkpt lat="46.85152" lon="-0.84398">
        <ele>196.8</ele>
        <time>2024-10-17T21:47:17.431Z</time>
      </trkpt>
      <trkpt lat="46.85141" lon="-0.84387">
        <ele>196.2</ele>
        <time>2024-10-17T21:47:18.826Z</time>
      </trkpt>
      <trkpt lat="46.85128" lon="-0.84375">
        <ele>195.9</ele>
        <time>2024-10-17T21:47:20.784Z</time>
      </trkpt>
      <trkpt lat="46.8509" lon="-0.84341">
        <ele>194.2</ele>
        <time>2024-10-17T21:47:25.683Z</time>
      </trkpt>
      <trkpt lat="46.85059" lon="-0.84313">
        <ele>194</ele>
        <time>2024-10-17T21:47:30.929Z</time>
      </trkpt>
      <trkpt lat="46.85052" lon="-0.84307">
        <ele>193.9</ele>
        <time>2024-10-17T21:47:32.027Z</time>
      </trkpt>
      <trkpt lat="46.85051" lon="-0.84306">
        <ele>193.8</ele>
        <time>2024-10-17T21:47:32.137Z</time>
      </trkpt>
      <trkpt lat="46.8504" lon="-0.84296">
        <ele>193.3</ele>
        <time>2024-10-17T21:47:33.557Z</time>
      </trkpt>
      <trkpt lat="46.85008" lon="-0.84269">
        <ele>192.3</ele>
        <time>2024-10-17T21:47:37.980Z</time>
      </trkpt>
      <trkpt lat="46.85007" lon="-0.84268">
        <ele>192.3</ele>
        <time>2024-10-17T21:47:38.164Z</time>
      </trkpt>
      <trkpt lat="46.84985" lon="-0.84251">
        <ele>191.5</ele>
        <time>2024-10-17T21:47:41.027Z</time>
      </trkpt>
      <trkpt lat="46.84972" lon="-0.8424">
        <ele>191</ele>
        <time>2024-10-17T21:47:42.740Z</time>
      </trkpt>
      <trkpt lat="46.8496" lon="-0.84228">
        <ele>190.6</ele>
        <time>2024-10-17T21:47:44.474Z</time>
      </trkpt>
      <trkpt lat="46.84939" lon="-0.84209">
        <ele>189.8</ele>
        <time>2024-10-17T21:47:47.311Z</time>
      </trkpt>
      <trkpt lat="46.84912" lon="-0.84184">
        <ele>188.8</ele>
        <time>2024-10-17T21:47:51.012Z</time>
      </trkpt>
      <trkpt lat="46.84886" lon="-0.8416">
        <ele>188.1</ele>
        <time>2024-10-17T21:47:54.823Z</time>
      </trkpt>
      <trkpt lat="46.84858" lon="-0.84135">
        <ele>187.1</ele>
        <time>2024-10-17T21:47:58.647Z</time>
      </trkpt>
      <trkpt lat="46.84849" lon="-0.84124">
        <ele>187.3</ele>
        <time>2024-10-17T21:48:00.756Z</time>
      </trkpt>
      <trkpt lat="46.8484" lon="-0.84115">
        <ele>187.2</ele>
        <time>2024-10-17T21:48:02.274Z</time>
      </trkpt>
      <trkpt lat="46.84833" lon="-0.84107">
        <ele>187.1</ele>
        <time>2024-10-17T21:48:03.489Z</time>
      </trkpt>
      <trkpt lat="46.84826" lon="-0.84098">
        <ele>187.1</ele>
        <time>2024-10-17T21:48:04.901Z</time>
      </trkpt>
      <trkpt lat="46.84821" lon="-0.84089">
        <ele>187</ele>
        <time>2024-10-17T21:48:05.972Z</time>
      </trkpt>
      <trkpt lat="46.84815" lon="-0.84076">
        <ele>186.5</ele>
        <time>2024-10-17T21:48:07.083Z</time>
      </trkpt>
      <trkpt lat="46.84808" lon="-0.84061">
        <ele>185.4</ele>
        <time>2024-10-17T21:48:08.212Z</time>
      </trkpt>
      <trkpt lat="46.84805" lon="-0.84052">
        <ele>185.1</ele>
        <time>2024-10-17T21:48:08.935Z</time>
      </trkpt>
      <trkpt lat="46.84798" lon="-0.84034">
        <ele>185.6</ele>
        <time>2024-10-17T21:48:12.060Z</time>
      </trkpt>
      <trkpt lat="46.84787" lon="-0.84008">
        <ele>184.6</ele>
        <time>2024-10-17T21:48:14.207Z</time>
      </trkpt>
      <trkpt lat="46.84778" lon="-0.83986">
        <ele>184</ele>
        <time>2024-10-17T21:48:16.192Z</time>
      </trkpt>
      <trkpt lat="46.84771" lon="-0.83971">
        <ele>183.7</ele>
        <time>2024-10-17T21:48:17.714Z</time>
      </trkpt>
      <trkpt lat="46.84767" lon="-0.83959">
        <ele>183.5</ele>
        <time>2024-10-17T21:48:18.854Z</time>
      </trkpt>
      <trkpt lat="46.84763" lon="-0.8395">
        <ele>183.5</ele>
        <time>2024-10-17T21:48:19.966Z</time>
      </trkpt>
      <trkpt lat="46.84755" lon="-0.83929">
        <ele>183.7</ele>
        <time>2024-10-17T21:48:22.776Z</time>
      </trkpt>
      <trkpt lat="46.84754" lon="-0.83926">
        <ele>183.8</ele>
        <time>2024-10-17T21:48:23.334Z</time>
      </trkpt>
      <trkpt lat="46.8474" lon="-0.83892">
        <ele>183.1</ele>
        <time>2024-10-17T21:48:26.617Z</time>
      </trkpt>
      <trkpt lat="46.84733" lon="-0.83874">
        <ele>183.7</ele>
        <time>2024-10-17T21:48:30.020Z</time>
      </trkpt>
      <trkpt lat="46.84728" lon="-0.83857">
        <ele>184.6</ele>
        <time>2024-10-17T21:48:34.444Z</time>
      </trkpt>
      <trkpt lat="46.84725" lon="-0.83845">
        <ele>184.8</ele>
        <time>2024-10-17T21:48:36.118Z</time>
      </trkpt>
      <trkpt lat="46.84722" lon="-0.83832">
        <ele>185</ele>
        <time>2024-10-17T21:48:37.884Z</time>
      </trkpt>
      <trkpt lat="46.84719" lon="-0.83819">
        <ele>184.5</ele>
        <time>2024-10-17T21:48:38.813Z</time>
      </trkpt>
      <trkpt lat="46.84716" lon="-0.83805">
        <ele>184.2</ele>
        <time>2024-10-17T21:48:39.988Z</time>
      </trkpt>
      <trkpt lat="46.84711" lon="-0.83785">
        <ele>184</ele>
        <time>2024-10-17T21:48:41.936Z</time>
      </trkpt>
      <trkpt lat="46.84708" lon="-0.83768">
        <ele>183.5</ele>
        <time>2024-10-17T21:48:43.223Z</time>
      </trkpt>
      <trkpt lat="46.84708" lon="-0.83768">
        <ele>183.5</ele>
        <time>2024-10-17T21:48:43.223Z</time>
      </trkpt>
      <trkpt lat="46.84704" lon="-0.83753">
        <ele>182.8</ele>
        <time>2024-10-17T21:48:44.244Z</time>
      </trkpt>
      <trkpt lat="46.84701" lon="-0.8374">
        <ele>182.1</ele>
        <time>2024-10-17T21:48:45.097Z</time>
      </trkpt>
      <trkpt lat="46.84698" lon="-0.83729">
        <ele>181.5</ele>
        <time>2024-10-17T21:48:45.833Z</time>
      </trkpt>
      <trkpt lat="46.84694" lon="-0.8372">
        <ele>180.9</ele>
        <time>2024-10-17T21:48:46.501Z</time>
      </trkpt>
      <trkpt lat="46.84687" lon="-0.83704">
        <ele>180.4</ele>
        <time>2024-10-17T21:48:47.926Z</time>
      </trkpt>
      <trkpt lat="46.84675" lon="-0.83676">
        <ele>179.1</ele>
        <time>2024-10-17T21:48:50.101Z</time>
      </trkpt>
      <trkpt lat="46.84661" lon="-0.83645">
        <ele>176.6</ele>
        <time>2024-10-17T21:48:52.411Z</time>
      </trkpt>
      <trkpt lat="46.84661" lon="-0.83645">
        <ele>176.6</ele>
        <time>2024-10-17T21:48:52.411Z</time>
      </trkpt>
      <trkpt lat="46.84658" lon="-0.83639">
        <ele>176</ele>
        <time>2024-10-17T21:48:52.874Z</time>
      </trkpt>
      <trkpt lat="46.84646" lon="-0.83609">
        <ele>173.1</ele>
        <time>2024-10-17T21:48:55.035Z</time>
      </trkpt>
      <trkpt lat="46.84634" lon="-0.83584">
        <ele>170.9</ele>
        <time>2024-10-17T21:48:56.934Z</time>
      </trkpt>
      <trkpt lat="46.84628" lon="-0.8357">
        <ele>170.4</ele>
        <time>2024-10-17T21:48:58.123Z</time>
      </trkpt>
      <trkpt lat="46.84623" lon="-0.83562">
        <ele>170</ele>
        <time>2024-10-17T21:48:58.853Z</time>
      </trkpt>
      <trkpt lat="46.84619" lon="-0.8356">
        <ele>169.7</ele>
        <time>2024-10-17T21:48:59.238Z</time>
      </trkpt>
      <trkpt lat="46.84619" lon="-0.8356">
        <ele>169.7</ele>
        <time>2024-10-17T21:48:59.238Z</time>
      </trkpt>
      <trkpt lat="46.8462" lon="-0.83548">
        <ele>169.6</ele>
        <time>2024-10-17T21:49:00.359Z</time>
      </trkpt>
      <trkpt lat="46.8462" lon="-0.8354">
        <ele>169.5</ele>
        <time>2024-10-17T21:49:01.063Z</time>
      </trkpt>
      <trkpt lat="46.84619" lon="-0.83534">
        <ele>169.3</ele>
        <time>2024-10-17T21:49:01.498Z</time>
      </trkpt>
      <trkpt lat="46.84615" lon="-0.83514">
        <ele>169.1</ele>
        <time>2024-10-17T21:49:03.400Z</time>
      </trkpt>
      <trkpt lat="46.84609" lon="-0.83489">
        <ele>169.3</ele>
        <time>2024-10-17T21:49:06.461Z</time>
      </trkpt>
      <trkpt lat="46.84606" lon="-0.83481">
        <ele>169.4</ele>
        <time>2024-10-17T21:49:07.571Z</time>
      </trkpt>
      <trkpt lat="46.84604" lon="-0.83474">
        <ele>169.4</ele>
        <time>2024-10-17T21:49:08.357Z</time>
      </trkpt>
      <trkpt lat="46.84595" lon="-0.83457">
        <ele>169.2</ele>
        <time>2024-10-17T21:49:10.326Z</time>
      </trkpt>
      <trkpt lat="46.84586" lon="-0.8344">
        <ele>169.2</ele>
        <time>2024-10-17T21:49:12.554Z</time>
      </trkpt>
      <trkpt lat="46.84584" lon="-0.83436">
        <ele>169.3</ele>
        <time>2024-10-17T21:49:13.253Z</time>
      </trkpt>
      <trkpt lat="46.84583" lon="-0.83432">
        <ele>169.4</ele>
        <time>2024-10-17T21:49:13.889Z</time>
      </trkpt>
      <trkpt lat="46.84582" lon="-0.83422">
        <ele>169.7</ele>
        <time>2024-10-17T21:49:15.571Z</time>
      </trkpt>
      <trkpt lat="46.84586" lon="-0.83415">
        <ele>170.1</ele>
        <time>2024-10-17T21:49:17.555Z</time>
      </trkpt>
      <trkpt lat="46.8459" lon="-0.8341">
        <ele>170.5</ele>
        <time>2024-10-17T21:49:19.521Z</time>
      </trkpt>
      <trkpt lat="46.84598" lon="-0.83404">
        <ele>170.9</ele>
        <time>2024-10-17T21:49:21.739Z</time>
      </trkpt>
      <trkpt lat="46.84617" lon="-0.83393">
        <ele>171.3</ele>
        <time>2024-10-17T21:49:25.515Z</time>
      </trkpt>
      <trkpt lat="46.8463" lon="-0.83386">
        <ele>170.9</ele>
        <time>2024-10-17T21:49:27.150Z</time>
      </trkpt>
      <trkpt lat="46.84641" lon="-0.83379">
        <ele>170.5</ele>
        <time>2024-10-17T21:49:28.517Z</time>
      </trkpt>
      <trkpt lat="46.84651" lon="-0.83372">
        <ele>170.1</ele>
        <time>2024-10-17T21:49:29.756Z</time>
      </trkpt>
      <trkpt lat="46.84659" lon="-0.83365">
        <ele>169.6</ele>
        <time>2024-10-17T21:49:30.676Z</time>
      </trkpt>
      <trkpt lat="46.84668" lon="-0.83354">
        <ele>169.1</ele>
        <time>2024-10-17T21:49:31.925Z</time>
      </trkpt>
      <trkpt lat="46.84676" lon="-0.83342">
        <ele>168.2</ele>
        <time>2024-10-17T21:49:32.967Z</time>
      </trkpt>
      <trkpt lat="46.84685" lon="-0.83327">
        <ele>166.7</ele>
        <time>2024-10-17T21:49:34.208Z</time>
      </trkpt>
      <trkpt lat="46.84693" lon="-0.83314">
        <ele>165.3</ele>
        <time>2024-10-17T21:49:35.295Z</time>
      </trkpt>
      <trkpt lat="46.847" lon="-0.83306">
        <ele>164.6</ele>
        <time>2024-10-17T21:49:36.103Z</time>
      </trkpt>
      <trkpt lat="46.84708" lon="-0.833">
        <ele>164</ele>
        <time>2024-10-17T21:49:36.921Z</time>
      </trkpt>
      <trkpt lat="46.84719" lon="-0.83295">
        <ele>163.2</ele>
        <time>2024-10-17T21:49:37.968Z</time>
      </trkpt>
      <trkpt lat="46.84723" lon="-0.83294">
        <ele>163</ele>
        <time>2024-10-17T21:49:38.380Z</time>
      </trkpt>
      <trkpt lat="46.84734" lon="-0.83288">
        <ele>162.6</ele>
        <time>2024-10-17T21:49:39.712Z</time>
      </trkpt>
      <trkpt lat="46.84752" lon="-0.83279">
        <ele>161.9</ele>
        <time>2024-10-17T21:49:41.825Z</time>
      </trkpt>
      <trkpt lat="46.84764" lon="-0.83273">
        <ele>161.4</ele>
        <time>2024-10-17T21:49:43.207Z</time>
      </trkpt>
      <trkpt lat="46.84796" lon="-0.83255">
        <ele>160.9</ele>
        <time>2024-10-17T21:49:47.759Z</time>
      </trkpt>
      <trkpt lat="46.84808" lon="-0.83246">
        <ele>160.6</ele>
        <time>2024-10-17T21:49:49.437Z</time>
      </trkpt>
      <trkpt lat="46.84817" lon="-0.83238">
        <ele>160.1</ele>
        <time>2024-10-17T21:49:50.521Z</time>
      </trkpt>
      <trkpt lat="46.84822" lon="-0.83234">
        <ele>159.9</ele>
        <time>2024-10-17T21:49:51.163Z</time>
      </trkpt>
      <trkpt lat="46.84828" lon="-0.83224">
        <ele>159.8</ele>
        <time>2024-10-17T21:49:52.409Z</time>
      </trkpt>
      <trkpt lat="46.84833" lon="-0.83212">
        <ele>159.6</ele>
        <time>2024-10-17T21:49:53.620Z</time>
      </trkpt>
      <trkpt lat="46.84837" lon="-0.83198">
        <ele>159.4</ele>
        <time>2024-10-17T21:49:54.943Z</time>
      </trkpt>
      <trkpt lat="46.8484" lon="-0.83183">
        <ele>158.8</ele>
        <time>2024-10-17T21:49:55.981Z</time>
      </trkpt>
      <trkpt lat="46.8484" lon="-0.83169">
        <ele>157.9</ele>
        <time>2024-10-17T21:49:56.852Z</time>
      </trkpt>
      <trkpt lat="46.84841" lon="-0.8315">
        <ele>157.6</ele>
        <time>2024-10-17T21:49:58.464Z</time>
      </trkpt>
      <trkpt lat="46.84841" lon="-0.8314">
        <ele>157.4</ele>
        <time>2024-10-17T21:49:59.269Z</time>
      </trkpt>
      <trkpt lat="46.8484" lon="-0.8313">
        <ele>157.2</ele>
        <time>2024-10-17T21:50:00.084Z</time>
      </trkpt>
      <trkpt lat="46.84839" lon="-0.83108">
        <ele>157</ele>
        <time>2024-10-17T21:50:02.109Z</time>
      </trkpt>
      <trkpt lat="46.84839" lon="-0.83079">
        <ele>156.6</ele>
        <time>2024-10-17T21:50:04.621Z</time>
      </trkpt>
      <trkpt lat="46.84839" lon="-0.83061">
        <ele>156.4</ele>
        <time>2024-10-17T21:50:06.232Z</time>
      </trkpt>
      <trkpt lat="46.84841" lon="-0.83035">
        <ele>155.8</ele>
        <time>2024-10-17T21:50:08.269Z</time>
      </trkpt>
      <trkpt lat="46.84844" lon="-0.83018">
        <ele>155.6</ele>
        <time>2024-10-17T21:50:09.835Z</time>
      </trkpt>
      <trkpt lat="46.84847" lon="-0.83001">
        <ele>155.5</ele>
        <time>2024-10-17T21:50:11.520Z</time>
      </trkpt>
      <trkpt lat="46.84853" lon="-0.82981">
        <ele>155.5</ele>
        <time>2024-10-17T21:50:13.783Z</time>
      </trkpt>
      <trkpt lat="46.84859" lon="-0.8296">
        <ele>155.8</ele>
        <time>2024-10-17T21:50:16.650Z</time>
      </trkpt>
      <trkpt lat="46.8487" lon="-0.82931">
        <ele>156</ele>
        <time>2024-10-17T21:50:20.396Z</time>
      </trkpt>
      <trkpt lat="46.84876" lon="-0.82906">
        <ele>155.9</ele>
        <time>2024-10-17T21:50:23.004Z</time>
      </trkpt>
      <trkpt lat="46.8488" lon="-0.82888">
        <ele>155.7</ele>
        <time>2024-10-17T21:50:24.709Z</time>
      </trkpt>
      <trkpt lat="46.84884" lon="-0.82869">
        <ele>155.7</ele>
        <time>2024-10-17T21:50:26.769Z</time>
      </trkpt>
      <trkpt lat="46.84887" lon="-0.82851">
        <ele>155.9</ele>
        <time>2024-10-17T21:50:29.018Z</time>
      </trkpt>
      <trkpt lat="46.8489" lon="-0.82831">
        <ele>156</ele>
        <time>2024-10-17T21:50:31.293Z</time>
      </trkpt>
      <trkpt lat="46.84893" lon="-0.82811">
        <ele>155.3</ele>
        <time>2024-10-17T21:50:32.709Z</time>
      </trkpt>
      <trkpt lat="46.84895" lon="-0.82802">
        <ele>155.2</ele>
        <time>2024-10-17T21:50:33.562Z</time>
      </trkpt>
      <trkpt lat="46.84898" lon="-0.82785">
        <ele>155.3</ele>
        <time>2024-10-17T21:50:35.536Z</time>
      </trkpt>
      <trkpt lat="46.84911" lon="-0.82738">
        <ele>155.2</ele>
        <time>2024-10-17T21:50:40.649Z</time>
      </trkpt>
      <trkpt lat="46.8492" lon="-0.8271">
        <ele>154.7</ele>
        <time>2024-10-17T21:50:43.253Z</time>
      </trkpt>
      <trkpt lat="46.84922" lon="-0.82702">
        <ele>154.5</ele>
        <time>2024-10-17T21:50:43.912Z</time>
      </trkpt>
      <trkpt lat="46.84934" lon="-0.82664">
        <ele>154.6</ele>
        <time>2024-10-17T21:50:48.398Z</time>
      </trkpt>
      <trkpt lat="46.84937" lon="-0.82654">
        <ele>154.6</ele>
        <time>2024-10-17T21:50:49.530Z</time>
      </trkpt>
      <trkpt lat="46.84946" lon="-0.82626">
        <ele>154.6</ele>
        <time>2024-10-17T21:50:52.736Z</time>
      </trkpt>
      <trkpt lat="46.84957" lon="-0.82601">
        <ele>154.5</ele>
        <time>2024-10-17T21:50:55.678Z</time>
      </trkpt>
      <trkpt lat="46.84967" lon="-0.82582">
        <ele>154.8</ele>
        <time>2024-10-17T21:50:58.666Z</time>
      </trkpt>
      <trkpt lat="46.84978" lon="-0.82557">
        <ele>155</ele>
        <time>2024-10-17T21:51:02.059Z</time>
      </trkpt>
      <trkpt lat="46.84993" lon="-0.82532">
        <ele>154.8</ele>
        <time>2024-10-17T21:51:05.237Z</time>
      </trkpt>
      <trkpt lat="46.84992" lon="-0.8253">
        <ele>154.7</ele>
        <time>2024-10-17T21:51:05.398Z</time>
      </trkpt>
      <trkpt lat="46.84992" lon="-0.82529">
        <ele>154.7</ele>
        <time>2024-10-17T21:51:05.502Z</time>
      </trkpt>
      <trkpt lat="46.84993" lon="-0.82528">
        <ele>154.8</ele>
        <time>2024-10-17T21:51:05.997Z</time>
      </trkpt>
      <trkpt lat="46.85" lon="-0.82516">
        <ele>155</ele>
        <time>2024-10-17T21:51:07.968Z</time>
      </trkpt>
      <trkpt lat="46.8501" lon="-0.82493">
        <ele>155.4</ele>
        <time>2024-10-17T21:51:11.483Z</time>
      </trkpt>
      <trkpt lat="46.85017" lon="-0.82476">
        <ele>155.6</ele>
        <time>2024-10-17T21:51:13.865Z</time>
      </trkpt>
      <trkpt lat="46.8502" lon="-0.82467">
        <ele>155.7</ele>
        <time>2024-10-17T21:51:15.065Z</time>
      </trkpt>
      <trkpt lat="46.8502" lon="-0.82464">
        <ele>155.7</ele>
        <time>2024-10-17T21:51:15.376Z</time>
      </trkpt>
      <trkpt lat="46.8502" lon="-0.82461">
        <ele>155.7</ele>
        <time>2024-10-17T21:51:15.687Z</time>
      </trkpt>
      <trkpt lat="46.8502" lon="-0.82457">
        <ele>155.7</ele>
        <time>2024-10-17T21:51:16.101Z</time>
      </trkpt>
      <trkpt lat="46.85021" lon="-0.82454">
        <ele>155.8</ele>
        <time>2024-10-17T21:51:16.659Z</time>
      </trkpt>
      <trkpt lat="46.85023" lon="-0.82451">
        <ele>155.8</ele>
        <time>2024-10-17T21:51:17.093Z</time>
      </trkpt>
      <trkpt lat="46.85024" lon="-0.8245">
        <ele>155.9</ele>
        <time>2024-10-17T21:51:17.588Z</time>
      </trkpt>
      <trkpt lat="46.85028" lon="-0.82446">
        <ele>156</ele>
        <time>2024-10-17T21:51:18.494Z</time>
      </trkpt>
      <trkpt lat="46.85032" lon="-0.82446">
        <ele>156</ele>
        <time>2024-10-17T21:51:19.100Z</time>
      </trkpt>
      <trkpt lat="46.85038" lon="-0.82438">
        <ele>155.7</ele>
        <time>2024-10-17T21:51:20.001Z</time>
      </trkpt>
      <trkpt lat="46.85052" lon="-0.82415">
        <ele>155.7</ele>
        <time>2024-10-17T21:51:23.192Z</time>
      </trkpt>
      <trkpt lat="46.85055" lon="-0.82411">
        <ele>155.8</ele>
        <time>2024-10-17T21:51:23.985Z</time>
      </trkpt>
      <trkpt lat="46.85062" lon="-0.82395">
        <ele>155.4</ele>
        <time>2024-10-17T21:51:25.495Z</time>
      </trkpt>
      <trkpt lat="46.85081" lon="-0.82363">
        <ele>154.9</ele>
        <time>2024-10-17T21:51:29.256Z</time>
      </trkpt>
      <trkpt lat="46.85085" lon="-0.82353">
        <ele>154.7</ele>
        <time>2024-10-17T21:51:30.218Z</time>
      </trkpt>
      <trkpt lat="46.85095" lon="-0.82333">
        <ele>154</ele>
        <time>2024-10-17T21:51:32.039Z</time>
      </trkpt>
      <trkpt lat="46.85119" lon="-0.82291">
        <ele>153.5</ele>
        <time>2024-10-17T21:51:37.062Z</time>
      </trkpt>
      <trkpt lat="46.85129" lon="-0.82274">
        <ele>153</ele>
        <time>2024-10-17T21:51:38.820Z</time>
      </trkpt>
      <trkpt lat="46.85135" lon="-0.82263">
        <ele>153</ele>
        <time>2024-10-17T21:51:40.278Z</time>
      </trkpt>
      <trkpt lat="46.85148" lon="-0.8224">
        <ele>153</ele>
        <time>2024-10-17T21:51:43.370Z</time>
      </trkpt>
      <trkpt lat="46.85155" lon="-0.82226">
        <ele>153</ele>
        <time>2024-10-17T21:51:45.167Z</time>
      </trkpt>
      <trkpt lat="46.85173" lon="-0.82194">
        <ele>152.8</ele>
        <time>2024-10-17T21:51:49.188Z</time>
      </trkpt>
      <trkpt lat="46.85198" lon="-0.82148">
        <ele>152</ele>
        <time>2024-10-17T21:51:54.287Z</time>
      </trkpt>
      <trkpt lat="46.852" lon="-0.82145">
        <ele>152</ele>
        <time>2024-10-17T21:51:54.721Z</time>
      </trkpt>
      <trkpt lat="46.85227" lon="-0.82095">
        <ele>153.1</ele>
        <time>2024-10-17T21:52:03.288Z</time>
      </trkpt>
      <trkpt lat="46.85231" lon="-0.82089">
        <ele>153.3</ele>
        <time>2024-10-17T21:52:04.546Z</time>
      </trkpt>
      <trkpt lat="46.85239" lon="-0.82073">
        <ele>153.6</ele>
        <time>2024-10-17T21:52:07.121Z</time>
      </trkpt>
      <trkpt lat="46.85244" lon="-0.82059">
        <ele>153.8</ele>
        <time>2024-10-17T21:52:09.094Z</time>
      </trkpt>
      <trkpt lat="46.85249" lon="-0.82046">
        <ele>154.3</ele>
        <time>2024-10-17T21:52:11.757Z</time>
      </trkpt>
      <trkpt lat="46.85255" lon="-0.82031">
        <ele>155.2</ele>
        <time>2024-10-17T21:52:16.181Z</time>
      </trkpt>
      <trkpt lat="46.85264" lon="-0.82003">
        <ele>156.5</ele>
        <time>2024-10-17T21:52:22.674Z</time>
      </trkpt>
      <trkpt lat="46.85272" lon="-0.81973">
        <ele>157.8</ele>
        <time>2024-10-17T21:52:29.219Z</time>
      </trkpt>
      <trkpt lat="46.85279" lon="-0.81938">
        <ele>158.6</ele>
        <time>2024-10-17T21:52:34.518Z</time>
      </trkpt>
      <trkpt lat="46.85278" lon="-0.81918">
        <ele>159.9</ele>
        <time>2024-10-17T21:52:41.100Z</time>
      </trkpt>
      <trkpt lat="46.85278" lon="-0.81894">
        <ele>160</ele>
        <time>2024-10-17T21:52:43.739Z</time>
      </trkpt>
      <trkpt lat="46.85278" lon="-0.81859">
        <ele>159.9</ele>
        <time>2024-10-17T21:52:47.226Z</time>
      </trkpt>
      <trkpt lat="46.8528" lon="-0.81842">
        <ele>159.4</ele>
        <time>2024-10-17T21:52:48.484Z</time>
      </trkpt>
      <trkpt lat="46.85284" lon="-0.8182">
        <ele>159.3</ele>
        <time>2024-10-17T21:52:50.706Z</time>
      </trkpt>
      <trkpt lat="46.8529" lon="-0.81795">
        <ele>159.2</ele>
        <time>2024-10-17T21:52:53.314Z</time>
      </trkpt>
      <trkpt lat="46.85295" lon="-0.81772">
        <ele>159</ele>
        <time>2024-10-17T21:52:55.553Z</time>
      </trkpt>
      <trkpt lat="46.85303" lon="-0.81744">
        <ele>158.8</ele>
        <time>2024-10-17T21:52:58.430Z</time>
      </trkpt>
      <trkpt lat="46.85311" lon="-0.81715">
        <ele>159.1</ele>
        <time>2024-10-17T21:53:02.156Z</time>
      </trkpt>
      <trkpt lat="46.85313" lon="-0.81707">
        <ele>159</ele>
        <time>2024-10-17T21:53:02.912Z</time>
      </trkpt>
      <trkpt lat="46.8532" lon="-0.81679">
        <ele>159</ele>
        <time>2024-10-17T21:53:06.001Z</time>
      </trkpt>
      <trkpt lat="46.8533" lon="-0.81636">
        <ele>158.7</ele>
        <time>2024-10-17T21:53:10.307Z</time>
      </trkpt>
      <trkpt lat="46.8534" lon="-0.81597">
        <ele>158.1</ele>
        <time>2024-10-17T21:53:13.887Z</time>
      </trkpt>
      <trkpt lat="46.85347" lon="-0.81573">
        <ele>158.3</ele>
        <time>2024-10-17T21:53:16.907Z</time>
      </trkpt>
      <trkpt lat="46.85358" lon="-0.81549">
        <ele>158.5</ele>
        <time>2024-10-17T21:53:20.214Z</time>
      </trkpt>
      <trkpt lat="46.85367" lon="-0.81533">
        <ele>158.4</ele>
        <time>2024-10-17T21:53:22.224Z</time>
      </trkpt>
      <trkpt lat="46.85381" lon="-0.81513">
        <ele>158.2</ele>
        <time>2024-10-17T21:53:24.924Z</time>
      </trkpt>
      <trkpt lat="46.85399" lon="-0.81494">
        <ele>158.1</ele>
        <time>2024-10-17T21:53:28.149Z</time>
      </trkpt>
      <trkpt lat="46.85422" lon="-0.8147">
        <ele>158.1</ele>
        <time>2024-10-17T21:53:32.430Z</time>
      </trkpt>
      <trkpt lat="46.85456" lon="-0.81433">
        <ele>157.8</ele>
        <time>2024-10-17T21:53:38.443Z</time>
      </trkpt>
      <trkpt lat="46.85481" lon="-0.81403">
        <ele>157.5</ele>
        <time>2024-10-17T21:53:42.942Z</time>
      </trkpt>
      <trkpt lat="46.85505" lon="-0.81376">
        <ele>157</ele>
        <time>2024-10-17T21:53:46.896Z</time>
      </trkpt>
      <trkpt lat="46.85525" lon="-0.81356">
        <ele>156.8</ele>
        <time>2024-10-17T21:53:50.297Z</time>
      </trkpt>
      <trkpt lat="46.85558" lon="-0.81321">
        <ele>155.9</ele>
        <time>2024-10-17T21:53:55.378Z</time>
      </trkpt>
      <trkpt lat="46.85572" lon="-0.81307">
        <ele>155.4</ele>
        <time>2024-10-17T21:53:57.370Z</time>
      </trkpt>
      <trkpt lat="46.85589" lon="-0.81291">
        <ele>154.9</ele>
        <time>2024-10-17T21:53:59.836Z</time>
      </trkpt>
      <trkpt lat="46.85599" lon="-0.81282">
        <ele>154.5</ele>
        <time>2024-10-17T21:54:01.168Z</time>
      </trkpt>
      <trkpt lat="46.85607" lon="-0.81276">
        <ele>154.1</ele>
        <time>2024-10-17T21:54:02.112Z</time>
      </trkpt>
      <trkpt lat="46.85648" lon="-0.81246">
        <ele>153.6</ele>
        <time>2024-10-17T21:54:08.398Z</time>
      </trkpt>
      <trkpt lat="46.8567" lon="-0.8123">
        <ele>153</ele>
        <time>2024-10-17T21:54:11.402Z</time>
      </trkpt>
      <trkpt lat="46.85699" lon="-0.81207">
        <ele>152.5</ele>
        <time>2024-10-17T21:54:15.760Z</time>
      </trkpt>
      <trkpt lat="46.85714" lon="-0.81195">
        <ele>152.7</ele>
        <time>2024-10-17T21:54:18.669Z</time>
      </trkpt>
      <trkpt lat="46.8572" lon="-0.81189">
        <ele>152.7</ele>
        <time>2024-10-17T21:54:19.770Z</time>
      </trkpt>
      <trkpt lat="46.85731" lon="-0.81178">
        <ele>152.6</ele>
        <time>2024-10-17T21:54:21.653Z</time>
      </trkpt>
      <trkpt lat="46.85741" lon="-0.81167">
        <ele>152.7</ele>
        <time>2024-10-17T21:54:23.703Z</time>
      </trkpt>
      <trkpt lat="46.85752" lon="-0.81155">
        <ele>153</ele>
        <time>2024-10-17T21:54:26.302Z</time>
      </trkpt>
      <trkpt lat="46.85763" lon="-0.81142">
        <ele>153.4</ele>
        <time>2024-10-17T21:54:29.180Z</time>
      </trkpt>
      <trkpt lat="46.85774" lon="-0.81128">
        <ele>153.9</ele>
        <time>2024-10-17T21:54:32.359Z</time>
      </trkpt>
      <trkpt lat="46.85785" lon="-0.81115">
        <ele>154.2</ele>
        <time>2024-10-17T21:54:35.019Z</time>
      </trkpt>
      <trkpt lat="46.85795" lon="-0.81101">
        <ele>154.6</ele>
        <time>2024-10-17T21:54:37.855Z</time>
      </trkpt>
      <trkpt lat="46.85805" lon="-0.81088">
        <ele>155</ele>
        <time>2024-10-17T21:54:40.628Z</time>
      </trkpt>
      <trkpt lat="46.85814" lon="-0.81076">
        <ele>155</ele>
        <time>2024-10-17T21:54:42.473Z</time>
      </trkpt>
      <trkpt lat="46.85824" lon="-0.81064">
        <ele>155</ele>
        <time>2024-10-17T21:54:44.433Z</time>
      </trkpt>
      <trkpt lat="46.85831" lon="-0.81054">
        <ele>155.1</ele>
        <time>2024-10-17T21:54:46.073Z</time>
      </trkpt>
      <trkpt lat="46.85833" lon="-0.81052">
        <ele>155.1</ele>
        <time>2024-10-17T21:54:46.440Z</time>
      </trkpt>
      <trkpt lat="46.85842" lon="-0.8104">
        <ele>155.7</ele>
        <time>2024-10-17T21:54:49.629Z</time>
      </trkpt>
      <trkpt lat="46.85851" lon="-0.81028">
        <ele>156</ele>
        <time>2024-10-17T21:54:52.007Z</time>
      </trkpt>
      <trkpt lat="46.8586" lon="-0.81014">
        <ele>155.5</ele>
        <time>2024-10-17T21:54:53.454Z</time>
      </trkpt>
      <trkpt lat="46.85868" lon="-0.81001">
        <ele>155</ele>
        <time>2024-10-17T21:54:54.734Z</time>
      </trkpt>
      <trkpt lat="46.85877" lon="-0.80986">
        <ele>155</ele>
        <time>2024-10-17T21:54:56.802Z</time>
      </trkpt>
      <trkpt lat="46.85886" lon="-0.80971">
        <ele>155</ele>
        <time>2024-10-17T21:54:58.870Z</time>
      </trkpt>
      <trkpt lat="46.85894" lon="-0.80955">
        <ele>154.8</ele>
        <time>2024-10-17T21:55:00.666Z</time>
      </trkpt>
      <trkpt lat="46.85903" lon="-0.80938">
        <ele>154.5</ele>
        <time>2024-10-17T21:55:02.524Z</time>
      </trkpt>
      <trkpt lat="46.85912" lon="-0.80919">
        <ele>154.2</ele>
        <time>2024-10-17T21:55:04.545Z</time>
      </trkpt>
      <trkpt lat="46.85936" lon="-0.80859">
        <ele>152.6</ele>
        <time>2024-10-17T21:55:09.952Z</time>
      </trkpt>
      <trkpt lat="46.85961" lon="-0.80796">
        <ele>151.4</ele>
        <time>2024-10-17T21:55:16.058Z</time>
      </trkpt>
      <trkpt lat="46.85978" lon="-0.80754">
        <ele>150.8</ele>
        <time>2024-10-17T21:55:20.362Z</time>
      </trkpt>
      <trkpt lat="46.85995" lon="-0.80715">
        <ele>150.4</ele>
        <time>2024-10-17T21:55:24.632Z</time>
      </trkpt>
      <trkpt lat="46.86012" lon="-0.80676">
        <ele>150.2</ele>
        <time>2024-10-17T21:55:29.150Z</time>
      </trkpt>
      <trkpt lat="46.86027" lon="-0.80641">
        <ele>150</ele>
        <time>2024-10-17T21:55:33.157Z</time>
      </trkpt>
      <trkpt lat="46.86045" lon="-0.80605">
        <ele>149.4</ele>
        <time>2024-10-17T21:55:37.035Z</time>
      </trkpt>
      <trkpt lat="46.86054" lon="-0.80586">
        <ele>149.1</ele>
        <time>2024-10-17T21:55:39.056Z</time>
      </trkpt>
      <trkpt lat="46.8606" lon="-0.80576">
        <ele>149.2</ele>
        <time>2024-10-17T21:55:40.592Z</time>
      </trkpt>
      <trkpt lat="46.86069" lon="-0.80561">
        <ele>149.4</ele>
        <time>2024-10-17T21:55:42.985Z</time>
      </trkpt>
      <trkpt lat="46.86082" lon="-0.80542">
        <ele>149</ele>
        <time>2024-10-17T21:55:45.281Z</time>
      </trkpt>
      <trkpt lat="46.86099" lon="-0.80518">
        <ele>148.2</ele>
        <time>2024-10-17T21:55:47.965Z</time>
      </trkpt>
      <trkpt lat="46.86127" lon="-0.80481">
        <ele>146.9</ele>
        <time>2024-10-17T21:55:52.232Z</time>
      </trkpt>
      <trkpt lat="46.86145" lon="-0.80458">
        <ele>145.9</ele>
        <time>2024-10-17T21:55:54.791Z</time>
      </trkpt>
      <trkpt lat="46.86166" lon="-0.80436">
        <ele>144.7</ele>
        <time>2024-10-17T21:55:57.469Z</time>
      </trkpt>
      <trkpt lat="46.86185" lon="-0.80417">
        <ele>143.4</ele>
        <time>2024-10-17T21:55:59.699Z</time>
      </trkpt>
      <trkpt lat="46.86208" lon="-0.80391">
        <ele>142.5</ele>
        <time>2024-10-17T21:56:03.075Z</time>
      </trkpt>
      <trkpt lat="46.86227" lon="-0.80371">
        <ele>142</ele>
        <time>2024-10-17T21:56:06.010Z</time>
      </trkpt>
      <trkpt lat="46.86246" lon="-0.80352">
        <ele>141.7</ele>
        <time>2024-10-17T21:56:09.107Z</time>
      </trkpt>
      <trkpt lat="46.86262" lon="-0.80338">
        <ele>141.1</ele>
        <time>2024-10-17T21:56:11.251Z</time>
      </trkpt>
      <trkpt lat="46.86271" lon="-0.8033">
        <ele>141</ele>
        <time>2024-10-17T21:56:12.714Z</time>
      </trkpt>
      <trkpt lat="46.86284" lon="-0.80321">
        <ele>141</ele>
        <time>2024-10-17T21:56:14.893Z</time>
      </trkpt>
      <trkpt lat="46.86304" lon="-0.80309">
        <ele>141</ele>
        <time>2024-10-17T21:56:18.169Z</time>
      </trkpt>
      <trkpt lat="46.86319" lon="-0.803">
        <ele>141</ele>
        <time>2024-10-17T21:56:20.625Z</time>
      </trkpt>
      <trkpt lat="46.86326" lon="-0.80294">
        <ele>141</ele>
        <time>2024-10-17T21:56:21.855Z</time>
      </trkpt>
      <trkpt lat="46.8634" lon="-0.80284">
        <ele>140.8</ele>
        <time>2024-10-17T21:56:23.955Z</time>
      </trkpt>
      <trkpt lat="46.86357" lon="-0.80269">
        <ele>140.1</ele>
        <time>2024-10-17T21:56:26.186Z</time>
      </trkpt>
      <trkpt lat="46.86367" lon="-0.80261">
        <ele>140.1</ele>
        <time>2024-10-17T21:56:27.913Z</time>
      </trkpt>
      <trkpt lat="46.86393" lon="-0.80239">
        <ele>140.9</ele>
        <time>2024-10-17T21:56:33.911Z</time>
      </trkpt>
      <trkpt lat="46.86428" lon="-0.80209">
        <ele>140.8</ele>
        <time>2024-10-17T21:56:39.917Z</time>
      </trkpt>
      <trkpt lat="46.86461" lon="-0.80181">
        <ele>140.8</ele>
        <time>2024-10-17T21:56:45.698Z</time>
      </trkpt>
      <trkpt lat="46.86493" lon="-0.80154">
        <ele>140.5</ele>
        <time>2024-10-17T21:56:50.890Z</time>
      </trkpt>
      <trkpt lat="46.86505" lon="-0.80144">
        <ele>140.6</ele>
        <time>2024-10-17T21:56:53.136Z</time>
      </trkpt>
      <trkpt lat="46.86525" lon="-0.80127">
        <ele>140.1</ele>
        <time>2024-10-17T21:56:56.030Z</time>
      </trkpt>
      <trkpt lat="46.86534" lon="-0.80118">
        <ele>139.8</ele>
        <time>2024-10-17T21:56:57.331Z</time>
      </trkpt>
      <trkpt lat="46.86555" lon="-0.801">
        <ele>139</ele>
        <time>2024-10-17T21:57:00.116Z</time>
      </trkpt>
      <trkpt lat="46.86572" lon="-0.80087">
        <ele>140.6</ele>
        <time>2024-10-17T21:57:08.043Z</time>
      </trkpt>
      <trkpt lat="46.86572" lon="-0.80087">
        <ele>140.6</ele>
        <time>2024-10-17T21:57:08.043Z</time>
      </trkpt>
      <trkpt lat="46.86583" lon="-0.80076">
        <ele>142</ele>
        <time>2024-10-17T21:57:15.267Z</time>
      </trkpt>
      <trkpt lat="46.86589" lon="-0.8007">
        <ele>142</ele>
        <time>2024-10-17T21:57:16.368Z</time>
      </trkpt>
      <trkpt lat="46.86594" lon="-0.80064">
        <ele>142</ele>
        <time>2024-10-17T21:57:17.348Z</time>
      </trkpt>
      <trkpt lat="46.86596" lon="-0.80062">
        <ele>142</ele>
        <time>2024-10-17T21:57:17.715Z</time>
      </trkpt>
      <trkpt lat="46.86602" lon="-0.80054">
        <ele>142</ele>
        <time>2024-10-17T21:57:18.945Z</time>
      </trkpt>
      <trkpt lat="46.86607" lon="-0.80045">
        <ele>142</ele>
        <time>2024-10-17T21:57:20.147Z</time>
      </trkpt>
      <trkpt lat="46.8661" lon="-0.80041">
        <ele>142</ele>
        <time>2024-10-17T21:57:20.762Z</time>
      </trkpt>
      <trkpt lat="46.86612" lon="-0.80036">
        <ele>142</ele>
        <time>2024-10-17T21:57:21.362Z</time>
      </trkpt>
      <trkpt lat="46.86619" lon="-0.80021">
        <ele>142.1</ele>
        <time>2024-10-17T21:57:23.397Z</time>
      </trkpt>
      <trkpt lat="46.86633" lon="-0.79987">
        <ele>142.9</ele>
        <time>2024-10-17T21:57:28.994Z</time>
      </trkpt>
      <trkpt lat="46.86646" lon="-0.79954">
        <ele>143.2</ele>
        <time>2024-10-17T21:57:33.414Z</time>
      </trkpt>
      <trkpt lat="46.86651" lon="-0.79942">
        <ele>143.5</ele>
        <time>2024-10-17T21:57:35.436Z</time>
      </trkpt>
      <trkpt lat="46.86656" lon="-0.79928">
        <ele>143.8</ele>
        <time>2024-10-17T21:57:37.621Z</time>
      </trkpt>
      <trkpt lat="46.8666" lon="-0.79916">
        <ele>144</ele>
        <time>2024-10-17T21:57:39.350Z</time>
      </trkpt>
      <trkpt lat="46.86665" lon="-0.79902">
        <ele>144</ele>
        <time>2024-10-17T21:57:40.987Z</time>
      </trkpt>
      <trkpt lat="46.86669" lon="-0.79886">
        <ele>144.1</ele>
        <time>2024-10-17T21:57:42.906Z</time>
      </trkpt>
      <trkpt lat="46.86672" lon="-0.79871">
        <ele>144.5</ele>
        <time>2024-10-17T21:57:45.324Z</time>
      </trkpt>
      <trkpt lat="46.86672" lon="-0.79871">
        <ele>144.5</ele>
        <time>2024-10-17T21:57:45.324Z</time>
      </trkpt>
      <trkpt lat="46.86689" lon="-0.79879">
        <ele>144.1</ele>
        <time>2024-10-17T21:57:47.544Z</time>
      </trkpt>
      <trkpt lat="46.86712" lon="-0.79892">
        <ele>143.9</ele>
        <time>2024-10-17T21:57:51.010Z</time>
      </trkpt>
      <trkpt lat="46.86714" lon="-0.79892">
        <ele>143.9</ele>
        <time>2024-10-17T21:57:51.313Z</time>
      </trkpt>
      <trkpt lat="46.86749" lon="-0.79911">
        <ele>143</ele>
        <time>2024-10-17T21:57:55.890Z</time>
      </trkpt>
      <trkpt lat="46.86782" lon="-0.7993">
        <ele>143</ele>
        <time>2024-10-17T21:58:01.264Z</time>
      </trkpt>
      <trkpt lat="46.86795" lon="-0.79937">
        <ele>143</ele>
        <time>2024-10-17T21:58:03.363Z</time>
      </trkpt>
      <trkpt lat="46.86816" lon="-0.79949">
        <ele>143</ele>
        <time>2024-10-17T21:58:06.779Z</time>
      </trkpt>
      <trkpt lat="46.86835" lon="-0.79958">
        <ele>143.1</ele>
        <time>2024-10-17T21:58:09.955Z</time>
      </trkpt>
      <trkpt lat="46.86844" lon="-0.79963">
        <ele>143.4</ele>
        <time>2024-10-17T21:58:11.980Z</time>
      </trkpt>
      <trkpt lat="46.86855" lon="-0.79969">
        <ele>143.8</ele>
        <time>2024-10-17T21:58:14.533Z</time>
      </trkpt>
      <trkpt lat="46.8688" lon="-0.79981">
        <ele>144</ele>
        <time>2024-10-17T21:58:18.826Z</time>
      </trkpt>
      <trkpt lat="46.86892" lon="-0.79986">
        <ele>144</ele>
        <time>2024-10-17T21:58:20.717Z</time>
      </trkpt>
      <trkpt lat="46.8691" lon="-0.79993">
        <ele>144</ele>
        <time>2024-10-17T21:58:23.539Z</time>
      </trkpt>
      <trkpt lat="46.86917" lon="-0.79996">
        <ele>144</ele>
        <time>2024-10-17T21:58:24.645Z</time>
      </trkpt>
      <trkpt lat="46.86943" lon="-0.80002">
        <ele>144</ele>
        <time>2024-10-17T21:58:28.633Z</time>
      </trkpt>
      <trkpt lat="46.8695" lon="-0.80004">
        <ele>144</ele>
        <time>2024-10-17T21:58:29.714Z</time>
      </trkpt>
      <trkpt lat="46.8696" lon="-0.80006">
        <ele>144</ele>
        <time>2024-10-17T21:58:31.243Z</time>
      </trkpt>
      <trkpt lat="46.86967" lon="-0.80005">
        <ele>144</ele>
        <time>2024-10-17T21:58:32.309Z</time>
      </trkpt>
      <trkpt lat="46.86974" lon="-0.80004">
        <ele>144</ele>
        <time>2024-10-17T21:58:33.375Z</time>
      </trkpt>
      <trkpt lat="46.86977" lon="-0.80003">
        <ele>144</ele>
        <time>2024-10-17T21:58:33.841Z</time>
      </trkpt>
      <trkpt lat="46.86984" lon="-0.80001">
        <ele>144</ele>
        <time>2024-10-17T21:58:34.922Z</time>
      </trkpt>
      <trkpt lat="46.87001" lon="-0.79996">
        <ele>144</ele>
        <time>2024-10-17T21:58:37.549Z</time>
      </trkpt>
      <trkpt lat="46.87016" lon="-0.7999">
        <ele>144</ele>
        <time>2024-10-17T21:58:39.905Z</time>
      </trkpt>
      <trkpt lat="46.87025" lon="-0.79987">
        <ele>144</ele>
        <time>2024-10-17T21:58:41.304Z</time>
      </trkpt>
      <trkpt lat="46.87059" lon="-0.79974">
        <ele>144</ele>
        <time>2024-10-17T21:58:46.629Z</time>
      </trkpt>
      <trkpt lat="46.87112" lon="-0.79955">
        <ele>144</ele>
        <time>2024-10-17T21:58:54.898Z</time>
      </trkpt>
      <trkpt lat="46.87127" lon="-0.7995">
        <ele>144.5</ele>
        <time>2024-10-17T21:58:58.183Z</time>
      </trkpt>
      <trkpt lat="46.87149" lon="-0.79941">
        <ele>145</ele>
        <time>2024-10-17T21:59:02.511Z</time>
      </trkpt>
      <trkpt lat="46.87166" lon="-0.79934">
        <ele>145</ele>
        <time>2024-10-17T21:59:05.187Z</time>
      </trkpt>
      <trkpt lat="46.87171" lon="-0.79931">
        <ele>145.2</ele>
        <time>2024-10-17T21:59:06.404Z</time>
      </trkpt>
      <trkpt lat="46.87177" lon="-0.79927">
        <ele>145.4</ele>
        <time>2024-10-17T21:59:07.777Z</time>
      </trkpt>
      <trkpt lat="46.87184" lon="-0.79922">
        <ele>145.6</ele>
        <time>2024-10-17T21:59:09.316Z</time>
      </trkpt>
      <trkpt lat="46.87196" lon="-0.79913">
        <ele>146</ele>
        <time>2024-10-17T21:59:12.103Z</time>
      </trkpt>
      <trkpt lat="46.87218" lon="-0.79898">
        <ele>146</ele>
        <time>2024-10-17T21:59:15.781Z</time>
      </trkpt>
      <trkpt lat="46.87248" lon="-0.79875">
        <ele>147</ele>
        <time>2024-10-17T21:59:22.769Z</time>
      </trkpt>
      <trkpt lat="46.87273" lon="-0.79858">
        <ele>147.8</ele>
        <time>2024-10-17T21:59:28.425Z</time>
      </trkpt>
      <trkpt lat="46.87281" lon="-0.79851">
        <ele>148</ele>
        <time>2024-10-17T21:59:30.183Z</time>
      </trkpt>
      <trkpt lat="46.87288" lon="-0.79844">
        <ele>148</ele>
        <time>2024-10-17T21:59:31.468Z</time>
      </trkpt>
      <trkpt lat="46.87303" lon="-0.79823">
        <ele>148.3</ele>
        <time>2024-10-17T21:59:35.101Z</time>
      </trkpt>
      <trkpt lat="46.87308" lon="-0.79812">
        <ele>148.8</ele>
        <time>2024-10-17T21:59:37.659Z</time>
      </trkpt>
      <trkpt lat="46.87314" lon="-0.79803">
        <ele>149</ele>
        <time>2024-10-17T21:59:39.312Z</time>
      </trkpt>
      <trkpt lat="46.87316" lon="-0.79797">
        <ele>149</ele>
        <time>2024-10-17T21:59:40.004Z</time>
      </trkpt>
      <trkpt lat="46.87316" lon="-0.79797">
        <ele>149</ele>
        <time>2024-10-17T21:59:40.004Z</time>
      </trkpt>
      <trkpt lat="46.87316" lon="-0.7977">
        <ele>149.1</ele>
        <time>2024-10-17T21:59:42.951Z</time>
      </trkpt>
      <trkpt lat="46.87359" lon="-0.79829">
        <ele>149.9</ele>
        <time>2024-10-17T21:59:53.174Z</time>
      </trkpt>
      <trkpt lat="46.87411" lon="-0.79896">
        <ele>151</ele>
        <time>2024-10-17T22:00:05.482Z</time>
      </trkpt>
      <trkpt lat="46.8747" lon="-0.79996">
        <ele>149</ele>
        <time>2024-10-17T22:00:16.731Z</time>
      </trkpt>
      <trkpt lat="46.87521" lon="-0.80088">
        <ele>146.2</ele>
        <time>2024-10-17T22:00:25.876Z</time>
      </trkpt>
      <trkpt lat="46.87557" lon="-0.80141">
        <ele>145</ele>
        <time>2024-10-17T22:00:32.169Z</time>
      </trkpt>
      <trkpt lat="46.87579" lon="-0.80182">
        <ele>144.1</ele>
        <time>2024-10-17T22:00:36.496Z</time>
      </trkpt>
      <trkpt lat="46.87604" lon="-0.80246">
        <ele>144.6</ele>
        <time>2024-10-17T22:00:44.913Z</time>
      </trkpt>
      <trkpt lat="46.87638" lon="-0.80283">
        <ele>145.8</ele>
        <time>2024-10-17T22:00:53.537Z</time>
      </trkpt>
      <trkpt lat="46.87689" lon="-0.80311">
        <ele>147.8</ele>
        <time>2024-10-17T22:01:05.761Z</time>
      </trkpt>
      <trkpt lat="46.87747" lon="-0.8034">
        <ele>149.9</ele>
        <time>2024-10-17T22:01:19.122Z</time>
      </trkpt>
      <trkpt lat="46.87771" lon="-0.8035">
        <ele>150.3</ele>
        <time>2024-10-17T22:01:23.561Z</time>
      </trkpt>
      <trkpt lat="46.87781" lon="-0.80367">
        <ele>150.4</ele>
        <time>2024-10-17T22:01:26.036Z</time>
      </trkpt>
      <trkpt lat="46.87788" lon="-0.80389">
        <ele>151.7</ele>
        <time>2024-10-17T22:01:32.438Z</time>
      </trkpt>
      <trkpt lat="46.87788" lon="-0.80441">
        <ele>151.7</ele>
        <time>2024-10-17T22:01:37.824Z</time>
      </trkpt>
      <trkpt lat="46.87788" lon="-0.80499">
        <ele>150.4</ele>
        <time>2024-10-17T22:01:42.364Z</time>
      </trkpt>
      <trkpt lat="46.87802" lon="-0.80566">
        <ele>149</ele>
        <time>2024-10-17T22:01:48.000Z</time>
      </trkpt>
      <trkpt lat="46.87821" lon="-0.80618">
        <ele>147.2</ele>
        <time>2024-10-17T22:01:52.230Z</time>
      </trkpt>
      <trkpt lat="46.87852" lon="-0.80692">
        <ele>144.1</ele>
        <time>2024-10-17T22:01:58.141Z</time>
      </trkpt>
      <trkpt lat="46.8789" lon="-0.80777">
        <ele>142</ele>
        <time>2024-10-17T22:02:06.247Z</time>
      </trkpt>
      <trkpt lat="46.87922" lon="-0.80862">
        <ele>141.8</ele>
        <time>2024-10-17T22:02:16.017Z</time>
      </trkpt>
      <trkpt lat="46.8795" lon="-0.80927">
        <ele>141.4</ele>
        <time>2024-10-17T22:02:23.431Z</time>
      </trkpt>
      <trkpt lat="46.87964" lon="-0.80956">
        <ele>142.3</ele>
        <time>2024-10-17T22:02:28.901Z</time>
      </trkpt>
      <trkpt lat="46.87969" lon="-0.81003">
        <ele>143.1</ele>
        <time>2024-10-17T22:02:35.248Z</time>
      </trkpt>
      <trkpt lat="46.87972" lon="-0.81065">
        <ele>144</ele>
        <time>2024-10-17T22:02:43.236Z</time>
      </trkpt>
      <trkpt lat="46.87996" lon="-0.81126">
        <ele>144.3</ele>
        <time>2024-10-17T22:02:50.980Z</time>
      </trkpt>
      <trkpt lat="46.88026" lon="-0.81187">
        <ele>144.2</ele>
        <time>2024-10-17T22:02:58.622Z</time>
      </trkpt>
      <trkpt lat="46.88077" lon="-0.81251">
        <ele>143.7</ele>
        <time>2024-10-17T22:03:08.123Z</time>
      </trkpt>
      <trkpt lat="46.88117" lon="-0.813">
        <ele>143.4</ele>
        <time>2024-10-17T22:03:15.616Z</time>
      </trkpt>
      <trkpt lat="46.88143" lon="-0.81336">
        <ele>143.2</ele>
        <time>2024-10-17T22:03:20.764Z</time>
      </trkpt>
      <trkpt lat="46.88162" lon="-0.81368">
        <ele>143.8</ele>
        <time>2024-10-17T22:03:26.183Z</time>
      </trkpt>
      <trkpt lat="46.88187" lon="-0.81433">
        <ele>143.7</ele>
        <time>2024-10-17T22:03:33.766Z</time>
      </trkpt>
      <trkpt lat="46.88225" lon="-0.81526">
        <ele>145.1</ele>
        <time>2024-10-17T22:03:47.351Z</time>
      </trkpt>
      <trkpt lat="46.88266" lon="-0.81627">
        <ele>145.6</ele>
        <time>2024-10-17T22:04:00.275Z</time>
      </trkpt>
      <trkpt lat="46.88306" lon="-0.81683">
        <ele>145.4</ele>
        <time>2024-10-17T22:04:08.384Z</time>
      </trkpt>
      <trkpt lat="46.88365" lon="-0.81756">
        <ele>143.8</ele>
        <time>2024-10-17T22:04:18.124Z</time>
      </trkpt>
      <trkpt lat="46.88389" lon="-0.81793">
        <ele>143.4</ele>
        <time>2024-10-17T22:04:22.880Z</time>
      </trkpt>
      <trkpt lat="46.88409" lon="-0.81852">
        <ele>143.5</ele>
        <time>2024-10-17T22:04:29.847Z</time>
      </trkpt>
      <trkpt lat="46.8843" lon="-0.81945">
        <ele>142.5</ele>
        <time>2024-10-17T22:04:38.707Z</time>
      </trkpt>
      <trkpt lat="46.88458" lon="-0.82054">
        <ele>141</ele>
        <time>2024-10-17T22:04:48.896Z</time>
      </trkpt>
      <trkpt lat="46.88478" lon="-0.821">
        <ele>141.1</ele>
        <time>2024-10-17T22:04:54.689Z</time>
      </trkpt>
      <trkpt lat="46.88503" lon="-0.82128">
        <ele>142</ele>
        <time>2024-10-17T22:05:01.117Z</time>
      </trkpt>
      <trkpt lat="46.88539" lon="-0.82205">
        <ele>142.2</ele>
        <time>2024-10-17T22:05:11.074Z</time>
      </trkpt>
      <trkpt lat="46.8855" lon="-0.82236">
        <ele>142</ele>
        <time>2024-10-17T22:05:14.421Z</time>
      </trkpt>
      <trkpt lat="46.88555" lon="-0.82316">
        <ele>141.6</ele>
        <time>2024-10-17T22:05:22.197Z</time>
      </trkpt>
      <trkpt lat="46.88563" lon="-0.82364">
        <ele>140.9</ele>
        <time>2024-10-17T22:05:26.452Z</time>
      </trkpt>
      <trkpt lat="46.8859" lon="-0.82439">
        <ele>141</ele>
        <time>2024-10-17T22:05:35.377Z</time>
      </trkpt>
      <trkpt lat="46.88638" lon="-0.82538">
        <ele>140.6</ele>
        <time>2024-10-17T22:05:47.393Z</time>
      </trkpt>
      <trkpt lat="46.88683" lon="-0.82602">
        <ele>141</ele>
        <time>2024-10-17T22:05:57.509Z</time>
      </trkpt>
      <trkpt lat="46.88704" lon="-0.82635">
        <ele>141.1</ele>
        <time>2024-10-17T22:06:02.326Z</time>
      </trkpt>
      <trkpt lat="46.8872" lon="-0.82671">
        <ele>141</ele>
        <time>2024-10-17T22:06:06.633Z</time>
      </trkpt>
      <trkpt lat="46.88731" lon="-0.82705">
        <ele>140.7</ele>
        <time>2024-10-17T22:06:10.134Z</time>
      </trkpt>
      <trkpt lat="46.88739" lon="-0.82788">
        <ele>140</ele>
        <time>2024-10-17T22:06:17.897Z</time>
      </trkpt>
      <trkpt lat="46.88753" lon="-0.8285">
        <ele>140</ele>
        <time>2024-10-17T22:06:24.659Z</time>
      </trkpt>
      <trkpt lat="46.88795" lon="-0.82922">
        <ele>140</ele>
        <time>2024-10-17T22:06:34.462Z</time>
      </trkpt>
      <trkpt lat="46.88846" lon="-0.82994">
        <ele>140</ele>
        <time>2024-10-17T22:06:45.201Z</time>
      </trkpt>
      <trkpt lat="46.88888" lon="-0.83051">
        <ele>140</ele>
        <time>2024-10-17T22:06:53.881Z</time>
      </trkpt>
      <trkpt lat="46.88929" lon="-0.83106">
        <ele>140</ele>
        <time>2024-10-17T22:07:02.309Z</time>
      </trkpt>
      <trkpt lat="46.88978" lon="-0.83166">
        <ele>141</ele>
        <time>2024-10-17T22:07:13.631Z</time>
      </trkpt>
      <trkpt lat="46.89015" lon="-0.83202">
        <ele>141.4</ele>
        <time>2024-10-17T22:07:20.984Z</time>
      </trkpt>
      <trkpt lat="46.89049" lon="-0.83214">
        <ele>142.1</ele>
        <time>2024-10-17T22:07:27.477Z</time>
      </trkpt>
      <trkpt lat="46.89069" lon="-0.83234">
        <ele>143.2</ele>
        <time>2024-10-17T22:07:33.521Z</time>
      </trkpt>
      <trkpt lat="46.89094" lon="-0.8329">
        <ele>143.7</ele>
        <time>2024-10-17T22:07:41.235Z</time>
      </trkpt>
      <trkpt lat="46.89124" lon="-0.8334">
        <ele>143.5</ele>
        <time>2024-10-17T22:07:47.847Z</time>
      </trkpt>
      <trkpt lat="46.89154" lon="-0.83363">
        <ele>144.5</ele>
        <time>2024-10-17T22:07:54.835Z</time>
      </trkpt>
      <trkpt lat="46.8918" lon="-0.83377">
        <ele>145.7</ele>
        <time>2024-10-17T22:08:01.570Z</time>
      </trkpt>
      <trkpt lat="46.89204" lon="-0.83385">
        <ele>146.5</ele>
        <time>2024-10-17T22:08:06.826Z</time>
      </trkpt>
      <trkpt lat="46.89229" lon="-0.83393">
        <ele>147.1</ele>
        <time>2024-10-17T22:08:11.758Z</time>
      </trkpt>
      <trkpt lat="46.89278" lon="-0.83389">
        <ele>148</ele>
        <time>2024-10-17T22:08:20.706Z</time>
      </trkpt>
      <trkpt lat="46.89315" lon="-0.83392">
        <ele>148.3</ele>
        <time>2024-10-17T22:08:26.783Z</time>
      </trkpt>
      <trkpt lat="46.89343" lon="-0.83405">
        <ele>148.4</ele>
        <time>2024-10-17T22:08:31.382Z</time>
      </trkpt>
      <trkpt lat="46.89363" lon="-0.83427">
        <ele>148</ele>
        <time>2024-10-17T22:08:34.664Z</time>
      </trkpt>
      <trkpt lat="46.8938" lon="-0.83463">
        <ele>147.3</ele>
        <time>2024-10-17T22:08:38.351Z</time>
      </trkpt>
      <trkpt lat="46.89388" lon="-0.83495">
        <ele>146.2</ele>
        <time>2024-10-17T22:08:40.751Z</time>
      </trkpt>
      <trkpt lat="46.89388" lon="-0.83544">
        <ele>144.4</ele>
        <time>2024-10-17T22:08:44.054Z</time>
      </trkpt>
      <trkpt lat="46.89378" lon="-0.83578">
        <ele>143.5</ele>
        <time>2024-10-17T22:08:46.890Z</time>
      </trkpt>
      <trkpt lat="46.89375" lon="-0.83616">
        <ele>142.9</ele>
        <time>2024-10-17T22:08:50.125Z</time>
      </trkpt>
      <trkpt lat="46.8939" lon="-0.83696">
        <ele>143</ele>
        <time>2024-10-17T22:08:58.860Z</time>
      </trkpt>
      <trkpt lat="46.89411" lon="-0.83802">
        <ele>145</ele>
        <time>2024-10-17T22:09:13.901Z</time>
      </trkpt>
      <trkpt lat="46.89428" lon="-0.83822">
        <ele>145.8</ele>
        <time>2024-10-17T22:09:18.793Z</time>
      </trkpt>
      <trkpt lat="46.89451" lon="-0.83831">
        <ele>146.2</ele>
        <time>2024-10-17T22:09:23.064Z</time>
      </trkpt>
      <trkpt lat="46.89506" lon="-0.83838">
        <ele>148.2</ele>
        <time>2024-10-17T22:09:35.380Z</time>
      </trkpt>
      <trkpt lat="46.89553" lon="-0.83839">
        <ele>149.9</ele>
        <time>2024-10-17T22:09:45.860Z</time>
      </trkpt>
      <trkpt lat="46.89603" lon="-0.83817">
        <ele>150.8</ele>
        <time>2024-10-17T22:09:55.268Z</time>
      </trkpt>
      <trkpt lat="46.89655" lon="-0.83784">
        <ele>152</ele>
        <time>2024-10-17T22:10:05.923Z</time>
      </trkpt>
      <trkpt lat="46.89678" lon="-0.83774">
        <ele>152.3</ele>
        <time>2024-10-17T22:10:10.038Z</time>
      </trkpt>
      <trkpt lat="46.89696" lon="-0.83789">
        <ele>153</ele>
        <time>2024-10-17T22:10:14.528Z</time>
      </trkpt>
      <trkpt lat="46.89704" lon="-0.83806">
        <ele>153</ele>
        <time>2024-10-17T22:10:16.665Z</time>
      </trkpt>
      <trkpt lat="46.89723" lon="-0.83846">
        <ele>152.5</ele>
        <time>2024-10-17T22:10:21.068Z</time>
      </trkpt>
      <trkpt lat="46.89741" lon="-0.83896">
        <ele>151.7</ele>
        <time>2024-10-17T22:10:25.935Z</time>
      </trkpt>
      <trkpt lat="46.89761" lon="-0.83932">
        <ele>151.7</ele>
        <time>2024-10-17T22:10:30.739Z</time>
      </trkpt>
      <trkpt lat="46.89786" lon="-0.83942">
        <ele>152</ele>
        <time>2024-10-17T22:10:35.142Z</time>
      </trkpt>
      <trkpt lat="46.89818" lon="-0.83947">
        <ele>152.4</ele>
        <time>2024-10-17T22:10:40.657Z</time>
      </trkpt>
      <trkpt lat="46.89856" lon="-0.83949">
        <ele>154.6</ele>
        <time>2024-10-17T22:10:51.785Z</time>
      </trkpt>
      <trkpt lat="46.89878" lon="-0.83958">
        <ele>156.2</ele>
        <time>2024-10-17T22:10:59.655Z</time>
      </trkpt>
      <trkpt lat="46.89904" lon="-0.83986">
        <ele>158.1</ele>
        <time>2024-10-17T22:11:09.227Z</time>
      </trkpt>
      <trkpt lat="46.89933" lon="-0.84012">
        <ele>159.9</ele>
        <time>2024-10-17T22:11:18.560Z</time>
      </trkpt>
      <trkpt lat="46.89962" lon="-0.84024">
        <ele>160.8</ele>
        <time>2024-10-17T22:11:24.803Z</time>
      </trkpt>
      <trkpt lat="46.90001" lon="-0.8402">
        <ele>163.1</ele>
        <time>2024-10-17T22:11:36.391Z</time>
      </trkpt>
      <trkpt lat="46.90025" lon="-0.84022">
        <ele>165</ele>
        <time>2024-10-17T22:11:45.754Z</time>
      </trkpt>
      <trkpt lat="46.9009" lon="-0.84043">
        <ele>173</ele>
        <time>2024-10-17T22:12:27.000Z</time>
      </trkpt>
      <trkpt lat="46.90129" lon="-0.84051">
        <ele>178.7</ele>
        <time>2024-10-17T22:12:52.574Z</time>
      </trkpt>
      <trkpt lat="46.90155" lon="-0.84056">
        <ele>181.2</ele>
        <time>2024-10-17T22:13:05.246Z</time>
      </trkpt>
      <trkpt lat="46.902" lon="-0.84069">
        <ele>184.7</ele>
        <time>2024-10-17T22:13:22.457Z</time>
      </trkpt>
      <trkpt lat="46.90232" lon="-0.84065">
        <ele>186</ele>
        <time>2024-10-17T22:13:29.997Z</time>
      </trkpt>
      <trkpt lat="46.90277" lon="-0.84047">
        <ele>187.3</ele>
        <time>2024-10-17T22:13:39.443Z</time>
      </trkpt>
      <trkpt lat="46.90297" lon="-0.84045">
        <ele>187.4</ele>
        <time>2024-10-17T22:13:42.631Z</time>
      </trkpt>
      <trkpt lat="46.90317" lon="-0.84055">
        <ele>187.4</ele>
        <time>2024-10-17T22:13:45.833Z</time>
      </trkpt>
      <trkpt lat="46.90344" lon="-0.8408">
        <ele>189.3</ele>
        <time>2024-10-17T22:13:55.384Z</time>
      </trkpt>
      <trkpt lat="46.90393" lon="-0.84132">
        <ele>188.9</ele>
        <time>2024-10-17T22:14:04.008Z</time>
      </trkpt>
      <trkpt lat="46.90475" lon="-0.84191">
        <ele>187.2</ele>
        <time>2024-10-17T22:14:15.729Z</time>
      </trkpt>
      <trkpt lat="46.90548" lon="-0.84235">
        <ele>186.7</ele>
        <time>2024-10-17T22:14:27.007Z</time>
      </trkpt>
      <trkpt lat="46.90612" lon="-0.84263">
        <ele>183.5</ele>
        <time>2024-10-17T22:14:33.861Z</time>
      </trkpt>
      <trkpt lat="46.90714" lon="-0.84284">
        <ele>180.8</ele>
        <time>2024-10-17T22:14:46.276Z</time>
      </trkpt>
      <trkpt lat="46.90767" lon="-0.84293">
        <ele>179.4</ele>
        <time>2024-10-17T22:14:52.706Z</time>
      </trkpt>
      <trkpt lat="46.90813" lon="-0.8428">
        <ele>178.1</ele>
        <time>2024-10-17T22:14:58.285Z</time>
      </trkpt>
      <trkpt lat="46.90842" lon="-0.8428">
        <ele>177.8</ele>
        <time>2024-10-17T22:15:02.280Z</time>
      </trkpt>
      <trkpt lat="46.90893" lon="-0.84303">
        <ele>177.5</ele>
        <time>2024-10-17T22:15:09.953Z</time>
      </trkpt>
      <trkpt lat="46.90976" lon="-0.84335">
        <ele>175.1</ele>
        <time>2024-10-17T22:15:20.156Z</time>
      </trkpt>
      <trkpt lat="46.91063" lon="-0.84358">
        <ele>173.3</ele>
        <time>2024-10-17T22:15:31.332Z</time>
      </trkpt>
      <trkpt lat="46.91114" lon="-0.84369">
        <ele>172.8</ele>
        <time>2024-10-17T22:15:38.476Z</time>
      </trkpt>
      <trkpt lat="46.91186" lon="-0.84361">
        <ele>171</ele>
        <time>2024-10-17T22:15:47.269Z</time>
      </trkpt>
      <trkpt lat="46.91222" lon="-0.84373">
        <ele>170.7</ele>
        <time>2024-10-17T22:15:52.458Z</time>
      </trkpt>
      <trkpt lat="46.91293" lon="-0.8441">
        <ele>170.1</ele>
        <time>2024-10-17T22:16:03.066Z</time>
      </trkpt>
      <trkpt lat="46.91318" lon="-0.84412">
        <ele>169.1</ele>
        <time>2024-10-17T22:16:05.784Z</time>
      </trkpt>
      <trkpt lat="46.91343" lon="-0.84408">
        <ele>168.2</ele>
        <time>2024-10-17T22:16:08.599Z</time>
      </trkpt>
      <trkpt lat="46.914" lon="-0.84376">
        <ele>166.7</ele>
        <time>2024-10-17T22:16:16.055Z</time>
      </trkpt>
      <trkpt lat="46.91439" lon="-0.84375">
        <ele>165.8</ele>
        <time>2024-10-17T22:16:20.877Z</time>
      </trkpt>
      <trkpt lat="46.91492" lon="-0.84378">
        <ele>164</ele>
        <time>2024-10-17T22:16:26.897Z</time>
      </trkpt>
      <trkpt lat="46.91513" lon="-0.84386">
        <ele>165.4</ele>
        <time>2024-10-17T22:16:33.835Z</time>
      </trkpt>
      <trkpt lat="46.9157" lon="-0.84454">
        <ele>170.2</ele>
        <time>2024-10-17T22:16:57.588Z</time>
      </trkpt>
      <trkpt lat="46.91612" lon="-0.84519">
        <ele>170.8</ele>
        <time>2024-10-17T22:17:07.786Z</time>
      </trkpt>
      <trkpt lat="46.91661" lon="-0.84597">
        <ele>169.5</ele>
        <time>2024-10-17T22:17:17.123Z</time>
      </trkpt>
      <trkpt lat="46.91702" lon="-0.84629">
        <ele>170.7</ele>
        <time>2024-10-17T22:17:26.317Z</time>
      </trkpt>
      <trkpt lat="46.91734" lon="-0.84646">
        <ele>173.1</ele>
        <time>2024-10-17T22:17:38.119Z</time>
      </trkpt>
      <trkpt lat="46.91763" lon="-0.8467">
        <ele>175.6</ele>
        <time>2024-10-17T22:17:50.406Z</time>
      </trkpt>
      <trkpt lat="46.91801" lon="-0.84716">
        <ele>178.6</ele>
        <time>2024-10-17T22:18:05.416Z</time>
      </trkpt>
      <trkpt lat="46.91859" lon="-0.8478">
        <ele>184.1</ele>
        <time>2024-10-17T22:18:32.454Z</time>
      </trkpt>
      <trkpt lat="46.91892" lon="-0.84828">
        <ele>183.9</ele>
        <time>2024-10-17T22:18:39.224Z</time>
      </trkpt>
      <trkpt lat="46.91907" lon="-0.84852">
        <ele>183.4</ele>
        <time>2024-10-17T22:18:41.984Z</time>
      </trkpt>
      <trkpt lat="46.9194" lon="-0.84862">
        <ele>182.1</ele>
        <time>2024-10-17T22:18:45.679Z</time>
      </trkpt>
      <trkpt lat="46.91956" lon="-0.84863">
        <ele>181.5</ele>
        <time>2024-10-17T22:18:47.449Z</time>
      </trkpt>
      <trkpt lat="46.91961" lon="-0.84867">
        <ele>181.1</ele>
        <time>2024-10-17T22:18:47.967Z</time>
      </trkpt>
      <trkpt lat="46.91957" lon="-0.84881">
        <ele>180.5</ele>
        <time>2024-10-17T22:18:48.963Z</time>
      </trkpt>
      <trkpt lat="46.91955" lon="-0.84894">
        <ele>180.1</ele>
        <time>2024-10-17T22:18:49.923Z</time>
      </trkpt>
      <trkpt lat="46.91952" lon="-0.84914">
        <ele>179.6</ele>
        <time>2024-10-17T22:18:51.489Z</time>
      </trkpt>
      <trkpt lat="46.91951" lon="-0.84922">
        <ele>179.2</ele>
        <time>2024-10-17T22:18:51.994Z</time>
      </trkpt>
      <trkpt lat="46.91947" lon="-0.84949">
        <ele>177.7</ele>
        <time>2024-10-17T22:18:53.710Z</time>
      </trkpt>
      <trkpt lat="46.91943" lon="-0.84983">
        <ele>176.7</ele>
        <time>2024-10-17T22:18:56.222Z</time>
      </trkpt>
      <trkpt lat="46.91942" lon="-0.84993">
        <ele>176.4</ele>
        <time>2024-10-17T22:18:56.953Z</time>
      </trkpt>
      <trkpt lat="46.91939" lon="-0.85009">
        <ele>175.8</ele>
        <time>2024-10-17T22:18:58.077Z</time>
      </trkpt>
      <trkpt lat="46.91937" lon="-0.85024">
        <ele>175</ele>
        <time>2024-10-17T22:18:59.026Z</time>
      </trkpt>
      <trkpt lat="46.91935" lon="-0.85037">
        <ele>174.5</ele>
        <time>2024-10-17T22:18:59.917Z</time>
      </trkpt>
      <trkpt lat="46.91933" lon="-0.85052">
        <ele>173.6</ele>
        <time>2024-10-17T22:19:00.866Z</time>
      </trkpt>
      <trkpt lat="46.91929" lon="-0.85066">
        <ele>173</ele>
        <time>2024-10-17T22:19:01.861Z</time>
      </trkpt>
      <trkpt lat="46.91918" lon="-0.85081">
        <ele>172.2</ele>
        <time>2024-10-17T22:19:03.349Z</time>
      </trkpt>
      <trkpt lat="46.91907" lon="-0.85091">
        <ele>171.9</ele>
        <time>2024-10-17T22:19:04.949Z</time>
      </trkpt>
      <trkpt lat="46.91885" lon="-0.85103">
        <ele>170.8</ele>
        <time>2024-10-17T22:19:07.376Z</time>
      </trkpt>
      <trkpt lat="46.91859" lon="-0.85112">
        <ele>169.8</ele>
        <time>2024-10-17T22:19:10.330Z</time>
      </trkpt>
      <trkpt lat="46.91833" lon="-0.85118">
        <ele>167.7</ele>
        <time>2024-10-17T22:19:12.723Z</time>
      </trkpt>
      <trkpt lat="46.91811" lon="-0.85118">
        <ele>166.7</ele>
        <time>2024-10-17T22:19:15.019Z</time>
      </trkpt>
      <trkpt lat="46.91773" lon="-0.85114">
        <ele>165.4</ele>
        <time>2024-10-17T22:19:19.337Z</time>
      </trkpt>
      <trkpt lat="46.91755" lon="-0.85112">
        <ele>164.3</ele>
        <time>2024-10-17T22:19:21.038Z</time>
      </trkpt>
      <trkpt lat="46.91732" lon="-0.8511">
        <ele>163.5</ele>
        <time>2024-10-17T22:19:23.637Z</time>
      </trkpt>
      <trkpt lat="46.91719" lon="-0.85112">
        <ele>163.1</ele>
        <time>2024-10-17T22:19:25.159Z</time>
      </trkpt>
      <trkpt lat="46.91702" lon="-0.85117">
        <ele>163.1</ele>
        <time>2024-10-17T22:19:27.787Z</time>
      </trkpt>
      <trkpt lat="46.9168" lon="-0.85128">
        <ele>161.3</ele>
        <time>2024-10-17T22:19:29.900Z</time>
      </trkpt>
      <trkpt lat="46.91661" lon="-0.85139">
        <ele>159.4</ele>
        <time>2024-10-17T22:19:31.758Z</time>
      </trkpt>
      <trkpt lat="46.9165" lon="-0.85147">
        <ele>159.1</ele>
        <time>2024-10-17T22:19:33.260Z</time>
      </trkpt>
      <trkpt lat="46.91622" lon="-0.85176">
        <ele>156.9</ele>
        <time>2024-10-17T22:19:36.427Z</time>
      </trkpt>
      <trkpt lat="46.91602" lon="-0.85195">
        <ele>154.6</ele>
        <time>2024-10-17T22:19:38.595Z</time>
      </trkpt>
      <trkpt lat="46.91563" lon="-0.85229">
        <ele>150.5</ele>
        <time>2024-10-17T22:19:42.722Z</time>
      </trkpt>
      <trkpt lat="46.91535" lon="-0.85256">
        <ele>147.9</ele>
        <time>2024-10-17T22:19:45.770Z</time>
      </trkpt>
      <trkpt lat="46.91508" lon="-0.85278">
        <ele>147</ele>
        <time>2024-10-17T22:19:49.409Z</time>
      </trkpt>
      <trkpt lat="46.91489" lon="-0.85298">
        <ele>146.7</ele>
        <time>2024-10-17T22:19:52.564Z</time>
      </trkpt>
      <trkpt lat="46.91481" lon="-0.85306">
        <ele>146.7</ele>
        <time>2024-10-17T22:19:54.032Z</time>
      </trkpt>
      <trkpt lat="46.91475" lon="-0.85314">
        <ele>146.6</ele>
        <time>2024-10-17T22:19:55.131Z</time>
      </trkpt>
      <trkpt lat="46.91465" lon="-0.8533">
        <ele>147.4</ele>
        <time>2024-10-17T22:19:59.254Z</time>
      </trkpt>
      <trkpt lat="46.91459" lon="-0.85343">
        <ele>148</ele>
        <time>2024-10-17T22:20:02.314Z</time>
      </trkpt>
      <trkpt lat="46.91453" lon="-0.85361">
        <ele>148.5</ele>
        <time>2024-10-17T22:20:05.378Z</time>
      </trkpt>
      <trkpt lat="46.91447" lon="-0.8539">
        <ele>149.5</ele>
        <time>2024-10-17T22:20:10.733Z</time>
      </trkpt>
      <trkpt lat="46.91436" lon="-0.85438">
        <ele>152.6</ele>
        <time>2024-10-17T22:20:26.263Z</time>
      </trkpt>
      <trkpt lat="46.91428" lon="-0.8547">
        <ele>154</ele>
        <time>2024-10-17T22:20:33.284Z</time>
      </trkpt>
      <trkpt lat="46.91422" lon="-0.85496">
        <ele>153.6</ele>
        <time>2024-10-17T22:20:35.634Z</time>
      </trkpt>
      <trkpt lat="46.91414" lon="-0.85528">
        <ele>152.9</ele>
        <time>2024-10-17T22:20:38.356Z</time>
      </trkpt>
      <trkpt lat="46.91409" lon="-0.85553">
        <ele>151.8</ele>
        <time>2024-10-17T22:20:40.023Z</time>
      </trkpt>
      <trkpt lat="46.91407" lon="-0.85569">
        <ele>151.7</ele>
        <time>2024-10-17T22:20:41.572Z</time>
      </trkpt>
      <trkpt lat="46.91406" lon="-0.85583">
        <ele>151.6</ele>
        <time>2024-10-17T22:20:42.896Z</time>
      </trkpt>
      <trkpt lat="46.91405" lon="-0.85596">
        <ele>150.6</ele>
        <time>2024-10-17T22:20:43.709Z</time>
      </trkpt>
      <trkpt lat="46.91403" lon="-0.85623">
        <ele>148.4</ele>
        <time>2024-10-17T22:20:45.395Z</time>
      </trkpt>
      <trkpt lat="46.91404" lon="-0.85646">
        <ele>146.3</ele>
        <time>2024-10-17T22:20:46.827Z</time>
      </trkpt>
      <trkpt lat="46.91407" lon="-0.85713">
        <ele>142.1</ele>
        <time>2024-10-17T22:20:50.997Z</time>
      </trkpt>
      <trkpt lat="46.91407" lon="-0.85733">
        <ele>141.8</ele>
        <time>2024-10-17T22:20:52.701Z</time>
      </trkpt>
      <trkpt lat="46.91407" lon="-0.85748">
        <ele>141.8</ele>
        <time>2024-10-17T22:20:54.254Z</time>
      </trkpt>
      <trkpt lat="46.91406" lon="-0.85762">
        <ele>142.2</ele>
        <time>2024-10-17T22:20:56.542Z</time>
      </trkpt>
      <trkpt lat="46.91403" lon="-0.85797">
        <ele>143</ele>
        <time>2024-10-17T22:21:01.730Z</time>
      </trkpt>
      <trkpt lat="46.91399" lon="-0.85836">
        <ele>141.8</ele>
        <time>2024-10-17T22:21:04.560Z</time>
      </trkpt>
      <trkpt lat="46.91394" lon="-0.85886">
        <ele>139.1</ele>
        <time>2024-10-17T22:21:07.698Z</time>
      </trkpt>
      <trkpt lat="46.91391" lon="-0.85925">
        <ele>138.7</ele>
        <time>2024-10-17T22:21:11.247Z</time>
      </trkpt>
      <trkpt lat="46.91387" lon="-0.85962">
        <ele>137.9</ele>
        <time>2024-10-17T22:21:14.211Z</time>
      </trkpt>
      <trkpt lat="46.91385" lon="-0.85984">
        <ele>138.1</ele>
        <time>2024-10-17T22:21:16.830Z</time>
      </trkpt>
      <trkpt lat="46.91385" lon="-0.86004">
        <ele>138</ele>
        <time>2024-10-17T22:21:18.764Z</time>
      </trkpt>
      <trkpt lat="46.91386" lon="-0.86019">
        <ele>137.7</ele>
        <time>2024-10-17T22:21:19.976Z</time>
      </trkpt>
      <trkpt lat="46.91388" lon="-0.86039">
        <ele>137.2</ele>
        <time>2024-10-17T22:21:21.517Z</time>
      </trkpt>
      <trkpt lat="46.91392" lon="-0.86075">
        <ele>136.8</ele>
        <time>2024-10-17T22:21:24.783Z</time>
      </trkpt>
      <trkpt lat="46.91392" lon="-0.86086">
        <ele>136.8</ele>
        <time>2024-10-17T22:21:25.922Z</time>
      </trkpt>
      <trkpt lat="46.91392" lon="-0.86097">
        <ele>136.8</ele>
        <time>2024-10-17T22:21:27.060Z</time>
      </trkpt>
      <trkpt lat="46.91392" lon="-0.8611">
        <ele>136.8</ele>
        <time>2024-10-17T22:21:28.406Z</time>
      </trkpt>
      <trkpt lat="46.91391" lon="-0.8612">
        <ele>136.6</ele>
        <time>2024-10-17T22:21:29.220Z</time>
      </trkpt>
      <trkpt lat="46.9139" lon="-0.86133">
        <ele>136.2</ele>
        <time>2024-10-17T22:21:30.157Z</time>
      </trkpt>
      <trkpt lat="46.91387" lon="-0.86145">
        <ele>135.9</ele>
        <time>2024-10-17T22:21:31.145Z</time>
      </trkpt>
      <trkpt lat="46.91383" lon="-0.86158">
        <ele>135.5</ele>
        <time>2024-10-17T22:21:32.194Z</time>
      </trkpt>
      <trkpt lat="46.91379" lon="-0.8617">
        <ele>135.3</ele>
        <time>2024-10-17T22:21:33.332Z</time>
      </trkpt>
      <trkpt lat="46.91376" lon="-0.86177">
        <ele>135.3</ele>
        <time>2024-10-17T22:21:34.187Z</time>
      </trkpt>
      <trkpt lat="46.91368" lon="-0.86194">
        <ele>134.8</ele>
        <time>2024-10-17T22:21:35.769Z</time>
      </trkpt>
      <trkpt lat="46.91364" lon="-0.862">
        <ele>134.7</ele>
        <time>2024-10-17T22:21:36.511Z</time>
      </trkpt>
      <trkpt lat="46.91347" lon="-0.86233">
        <ele>133.3</ele>
        <time>2024-10-17T22:21:39.375Z</time>
      </trkpt>
      <trkpt lat="46.91337" lon="-0.86252">
        <ele>133</ele>
        <time>2024-10-17T22:21:41.482Z</time>
      </trkpt>
      <trkpt lat="46.91328" lon="-0.8627">
        <ele>133</ele>
        <time>2024-10-17T22:21:43.791Z</time>
      </trkpt>
      <trkpt lat="46.9132" lon="-0.86285">
        <ele>133</ele>
        <time>2024-10-17T22:21:45.761Z</time>
      </trkpt>
      <trkpt lat="46.91313" lon="-0.86298">
        <ele>133.3</ele>
        <time>2024-10-17T22:21:48.017Z</time>
      </trkpt>
      <trkpt lat="46.91305" lon="-0.86315">
        <ele>133.7</ele>
        <time>2024-10-17T22:21:50.888Z</time>
      </trkpt>
      <trkpt lat="46.91298" lon="-0.86331">
        <ele>133.8</ele>
        <time>2024-10-17T22:21:53.008Z</time>
      </trkpt>
      <trkpt lat="46.9129" lon="-0.86349">
        <ele>134.1</ele>
        <time>2024-10-17T22:21:55.744Z</time>
      </trkpt>
      <trkpt lat="46.91282" lon="-0.86371">
        <ele>133.9</ele>
        <time>2024-10-17T22:21:58.061Z</time>
      </trkpt>
      <trkpt lat="46.91272" lon="-0.86399">
        <ele>134.4</ele>
        <time>2024-10-17T22:22:02.208Z</time>
      </trkpt>
      <trkpt lat="46.91262" lon="-0.8643">
        <ele>135.1</ele>
        <time>2024-10-17T22:22:07.060Z</time>
      </trkpt>
      <trkpt lat="46.91246" lon="-0.86477">
        <ele>135.5</ele>
        <time>2024-10-17T22:22:13.128Z</time>
      </trkpt>
      <trkpt lat="46.91237" lon="-0.86499">
        <ele>135.5</ele>
        <time>2024-10-17T22:22:15.782Z</time>
      </trkpt>
      <trkpt lat="46.91232" lon="-0.86512">
        <ele>135.4</ele>
        <time>2024-10-17T22:22:17.193Z</time>
      </trkpt>
      <trkpt lat="46.91226" lon="-0.86524">
        <ele>135.1</ele>
        <time>2024-10-17T22:22:18.386Z</time>
      </trkpt>
      <trkpt lat="46.91214" lon="-0.86535">
        <ele>135.6</ele>
        <time>2024-10-17T22:22:21.510Z</time>
      </trkpt>
      <trkpt lat="46.91212" lon="-0.86537">
        <ele>135.6</ele>
        <time>2024-10-17T22:22:21.877Z</time>
      </trkpt>
      <trkpt lat="46.91209" lon="-0.8654">
        <ele>135.8</ele>
        <time>2024-10-17T22:22:22.902Z</time>
      </trkpt>
      <trkpt lat="46.91201" lon="-0.86545">
        <ele>136.2</ele>
        <time>2024-10-17T22:22:25.088Z</time>
      </trkpt>
      <trkpt lat="46.91191" lon="-0.86547">
        <ele>137.2</ele>
        <time>2024-10-17T22:22:30.195Z</time>
      </trkpt>
      <trkpt lat="46.91185" lon="-0.86547">
        <ele>138.2</ele>
        <time>2024-10-17T22:22:34.092Z</time>
      </trkpt>
      <trkpt lat="46.91178" lon="-0.86547">
        <ele>139.4</ele>
        <time>2024-10-17T22:22:38.637Z</time>
      </trkpt>
      <trkpt lat="46.91169" lon="-0.86544">
        <ele>141</ele>
        <time>2024-10-17T22:22:44.632Z</time>
      </trkpt>
      <trkpt lat="46.91163" lon="-0.86544">
        <ele>141.7</ele>
        <time>2024-10-17T22:22:48.259Z</time>
      </trkpt>
      <trkpt lat="46.91162" lon="-0.86543">
        <ele>141.8</ele>
        <time>2024-10-17T22:22:48.754Z</time>
      </trkpt>
      <trkpt lat="46.91153" lon="-0.86541">
        <ele>142.5</ele>
        <time>2024-10-17T22:22:52.197Z</time>
      </trkpt>
      <trkpt lat="46.91146" lon="-0.86539">
        <ele>142.8</ele>
        <time>2024-10-17T22:22:53.904Z</time>
      </trkpt>
      <trkpt lat="46.91138" lon="-0.86535">
        <ele>142.6</ele>
        <time>2024-10-17T22:22:54.945Z</time>
      </trkpt>
      <trkpt lat="46.91131" lon="-0.86531">
        <ele>140.7</ele>
        <time>2024-10-17T22:22:55.628Z</time>
      </trkpt>
      <trkpt lat="46.91125" lon="-0.86524">
        <ele>139.6</ele>
        <time>2024-10-17T22:22:56.325Z</time>
      </trkpt>
      <trkpt lat="46.91115" lon="-0.86538">
        <ele>136.9</ele>
        <time>2024-10-17T22:22:57.583Z</time>
      </trkpt>
      <trkpt lat="46.9111" lon="-0.86544">
        <ele>135.1</ele>
        <time>2024-10-17T22:22:58.171Z</time>
      </trkpt>
      <trkpt lat="46.91103" lon="-0.86557">
        <ele>132</ele>
        <time>2024-10-17T22:22:59.199Z</time>
      </trkpt>
      <trkpt lat="46.91089" lon="-0.86581">
        <ele>126.1</ele>
        <time>2024-10-17T22:23:01.159Z</time>
      </trkpt>
      <trkpt lat="46.9108" lon="-0.86597">
        <ele>125</ele>
        <time>2024-10-17T22:23:02.446Z</time>
      </trkpt>
      <trkpt lat="46.91071" lon="-0.86613">
        <ele>125.1</ele>
        <time>2024-10-17T22:23:04.744Z</time>
      </trkpt>
      <trkpt lat="46.91069" lon="-0.86618">
        <ele>125.4</ele>
        <time>2024-10-17T22:23:06.219Z</time>
      </trkpt>
      <trkpt lat="46.91067" lon="-0.86622">
        <ele>125.7</ele>
        <time>2024-10-17T22:23:07.719Z</time>
      </trkpt>
      <trkpt lat="46.91054" lon="-0.86649">
        <ele>126.8</ele>
        <time>2024-10-17T22:23:13.590Z</time>
      </trkpt>
      <trkpt lat="46.9104" lon="-0.86676">
        <ele>125.2</ele>
        <time>2024-10-17T22:23:15.695Z</time>
      </trkpt>
      <trkpt lat="46.91028" lon="-0.86701">
        <ele>126</ele>
        <time>2024-10-17T22:23:20.470Z</time>
      </trkpt>
      <trkpt lat="46.9102" lon="-0.86716">
        <ele>126.2</ele>
        <time>2024-10-17T22:23:22.767Z</time>
      </trkpt>
      <trkpt lat="46.91017" lon="-0.86723">
        <ele>126.4</ele>
        <time>2024-10-17T22:23:24.015Z</time>
      </trkpt>
      <trkpt lat="46.91016" lon="-0.86729">
        <ele>126.8</ele>
        <time>2024-10-17T22:23:26.040Z</time>
      </trkpt>
      <trkpt lat="46.91016" lon="-0.86735">
        <ele>127.1</ele>
        <time>2024-10-17T22:23:27.514Z</time>
      </trkpt>
      <trkpt lat="46.91017" lon="-0.8674">
        <ele>127.3</ele>
        <time>2024-10-17T22:23:28.533Z</time>
      </trkpt>
      <trkpt lat="46.91019" lon="-0.86749">
        <ele>127.6</ele>
        <time>2024-10-17T22:23:30.166Z</time>
      </trkpt>
      <trkpt lat="46.91024" lon="-0.86757">
        <ele>127.6</ele>
        <time>2024-10-17T22:23:31.289Z</time>
      </trkpt>
      <trkpt lat="46.91033" lon="-0.86769">
        <ele>127.4</ele>
        <time>2024-10-17T22:23:32.879Z</time>
      </trkpt>
      <trkpt lat="46.91041" lon="-0.86781">
        <ele>127.2</ele>
        <time>2024-10-17T22:23:34.363Z</time>
      </trkpt>
      <trkpt lat="46.9105" lon="-0.86798">
        <ele>126.7</ele>
        <time>2024-10-17T22:23:36.030Z</time>
      </trkpt>
      <trkpt lat="46.91057" lon="-0.86816">
        <ele>126.4</ele>
        <time>2024-10-17T22:23:37.806Z</time>
      </trkpt>
      <trkpt lat="46.91058" lon="-0.86818">
        <ele>126.4</ele>
        <time>2024-10-17T22:23:38.062Z</time>
      </trkpt>
      <trkpt lat="46.91068" lon="-0.86843">
        <ele>127</ele>
        <time>2024-10-17T22:23:42.183Z</time>
      </trkpt>
      <trkpt lat="46.91078" lon="-0.86865">
        <ele>126.3</ele>
        <time>2024-10-17T22:23:44.160Z</time>
      </trkpt>
      <trkpt lat="46.91089" lon="-0.8689">
        <ele>126.3</ele>
        <time>2024-10-17T22:23:47.238Z</time>
      </trkpt>
      <trkpt lat="46.91101" lon="-0.86918">
        <ele>126.3</ele>
        <time>2024-10-17T22:23:50.659Z</time>
      </trkpt>
      <trkpt lat="46.91109" lon="-0.86938">
        <ele>126</ele>
        <time>2024-10-17T22:23:52.685Z</time>
      </trkpt>
      <trkpt lat="46.91114" lon="-0.86954">
        <ele>126</ele>
        <time>2024-10-17T22:23:54.506Z</time>
      </trkpt>
      <trkpt lat="46.91116" lon="-0.86967">
        <ele>126.3</ele>
        <time>2024-10-17T22:23:56.460Z</time>
      </trkpt>
      <trkpt lat="46.91116" lon="-0.86977">
        <ele>126.5</ele>
        <time>2024-10-17T22:23:57.866Z</time>
      </trkpt>
      <trkpt lat="46.91114" lon="-0.86998">
        <ele>126.7</ele>
        <time>2024-10-17T22:24:00.383Z</time>
      </trkpt>
      <trkpt lat="46.91114" lon="-0.86998">
        <ele>126.7</ele>
        <time>2024-10-17T22:24:00.383Z</time>
      </trkpt>
      <trkpt lat="46.91122" lon="-0.87019">
        <ele>125.7</ele>
        <time>2024-10-17T22:24:01.931Z</time>
      </trkpt>
      <trkpt lat="46.91128" lon="-0.87065">
        <ele>124.9</ele>
        <time>2024-10-17T22:24:05.825Z</time>
      </trkpt>
      <trkpt lat="46.91128" lon="-0.87065">
        <ele>124.9</ele>
        <time>2024-10-17T22:24:05.825Z</time>
      </trkpt>
      <trkpt lat="46.91129" lon="-0.87065">
        <ele>124.9</ele>
        <time>2024-10-17T22:24:05.976Z</time>
      </trkpt>
      <trkpt lat="46.9113" lon="-0.87064">
        <ele>124.9</ele>
        <time>2024-10-17T22:24:06.160Z</time>
      </trkpt>
      <trkpt lat="46.91131" lon="-0.87064">
        <ele>124.9</ele>
        <time>2024-10-17T22:24:06.311Z</time>
      </trkpt>
      <trkpt lat="46.91132" lon="-0.87063">
        <ele>124.9</ele>
        <time>2024-10-17T22:24:06.495Z</time>
      </trkpt>
      <trkpt lat="46.91133" lon="-0.87063">
        <ele>124.9</ele>
        <time>2024-10-17T22:24:06.646Z</time>
      </trkpt>
      <trkpt lat="46.91134" lon="-0.87063">
        <ele>125</ele>
        <time>2024-10-17T22:24:07.158Z</time>
      </trkpt>
      <trkpt lat="46.91135" lon="-0.87063">
        <ele>125</ele>
        <time>2024-10-17T22:24:07.309Z</time>
      </trkpt>
      <trkpt lat="46.91136" lon="-0.87063">
        <ele>125</ele>
        <time>2024-10-17T22:24:07.461Z</time>
      </trkpt>
      <trkpt lat="46.91137" lon="-0.87064">
        <ele>125</ele>
        <time>2024-10-17T22:24:07.644Z</time>
      </trkpt>
      <trkpt lat="46.91138" lon="-0.87064">
        <ele>125</ele>
        <time>2024-10-17T22:24:07.796Z</time>
      </trkpt>
      <trkpt lat="46.91139" lon="-0.87064">
        <ele>125</ele>
        <time>2024-10-17T22:24:07.948Z</time>
      </trkpt>
      <trkpt lat="46.91139" lon="-0.87065">
        <ele>125</ele>
        <time>2024-10-17T22:24:08.051Z</time>
      </trkpt>
      <trkpt lat="46.9114" lon="-0.87065">
        <ele>125</ele>
        <time>2024-10-17T22:24:08.203Z</time>
      </trkpt>
      <trkpt lat="46.91141" lon="-0.87066">
        <ele>124.9</ele>
        <time>2024-10-17T22:24:08.313Z</time>
      </trkpt>
      <trkpt lat="46.91142" lon="-0.87066">
        <ele>124.9</ele>
        <time>2024-10-17T22:24:08.464Z</time>
      </trkpt>
      <trkpt lat="46.91142" lon="-0.87067">
        <ele>124.9</ele>
        <time>2024-10-17T22:24:08.568Z</time>
      </trkpt>
      <trkpt lat="46.91144" lon="-0.8707">
        <ele>124.8</ele>
        <time>2024-10-17T22:24:08.890Z</time>
      </trkpt>
      <trkpt lat="46.91145" lon="-0.87073">
        <ele>124.8</ele>
        <time>2024-10-17T22:24:09.236Z</time>
      </trkpt>
      <trkpt lat="46.91147" lon="-0.87076">
        <ele>124.7</ele>
        <time>2024-10-17T22:24:09.558Z</time>
      </trkpt>
      <trkpt lat="46.91147" lon="-0.87077">
        <ele>124.7</ele>
        <time>2024-10-17T22:24:09.662Z</time>
      </trkpt>
      <trkpt lat="46.91148" lon="-0.87078">
        <ele>124.7</ele>
        <time>2024-10-17T22:24:09.846Z</time>
      </trkpt>
      <trkpt lat="46.91148" lon="-0.87079">
        <ele>124.7</ele>
        <time>2024-10-17T22:24:09.949Z</time>
      </trkpt>
      <trkpt lat="46.91149" lon="-0.8708">
        <ele>124.6</ele>
        <time>2024-10-17T22:24:10.059Z</time>
      </trkpt>
      <trkpt lat="46.91149" lon="-0.87081">
        <ele>124.6</ele>
        <time>2024-10-17T22:24:10.163Z</time>
      </trkpt>
      <trkpt lat="46.91149" lon="-0.87082">
        <ele>124.6</ele>
        <time>2024-10-17T22:24:10.266Z</time>
      </trkpt>
      <trkpt lat="46.91149" lon="-0.87083">
        <ele>124.6</ele>
        <time>2024-10-17T22:24:10.370Z</time>
      </trkpt>
      <trkpt lat="46.9115" lon="-0.87084">
        <ele>124.6</ele>
        <time>2024-10-17T22:24:10.553Z</time>
      </trkpt>
      <trkpt lat="46.9115" lon="-0.87086">
        <ele>124.6</ele>
        <time>2024-10-17T22:24:10.760Z</time>
      </trkpt>
      <trkpt lat="46.9115" lon="-0.87087">
        <ele>124.7</ele>
        <time>2024-10-17T22:24:11.204Z</time>
      </trkpt>
      <trkpt lat="46.9115" lon="-0.87088">
        <ele>124.7</ele>
        <time>2024-10-17T22:24:11.307Z</time>
      </trkpt>
      <trkpt lat="46.9115" lon="-0.87089">
        <ele>124.7</ele>
        <time>2024-10-17T22:24:11.411Z</time>
      </trkpt>
      <trkpt lat="46.9115" lon="-0.8709">
        <ele>124.7</ele>
        <time>2024-10-17T22:24:11.514Z</time>
      </trkpt>
      <trkpt lat="46.9115" lon="-0.87091">
        <ele>124.7</ele>
        <time>2024-10-17T22:24:11.618Z</time>
      </trkpt>
      <trkpt lat="46.91149" lon="-0.87092">
        <ele>124.7</ele>
        <time>2024-10-17T22:24:11.801Z</time>
      </trkpt>
      <trkpt lat="46.91149" lon="-0.87094">
        <ele>124.8</ele>
        <time>2024-10-17T22:24:12.293Z</time>
      </trkpt>
      <trkpt lat="46.91149" lon="-0.87095">
        <ele>124.8</ele>
        <time>2024-10-17T22:24:12.396Z</time>
      </trkpt>
      <trkpt lat="46.91149" lon="-0.87096">
        <ele>124.8</ele>
        <time>2024-10-17T22:24:12.500Z</time>
      </trkpt>
      <trkpt lat="46.91148" lon="-0.87097">
        <ele>124.8</ele>
        <time>2024-10-17T22:24:12.683Z</time>
      </trkpt>
      <trkpt lat="46.91158" lon="-0.87111">
        <ele>125</ele>
        <time>2024-10-17T22:24:15.105Z</time>
      </trkpt>
      <trkpt lat="46.91163" lon="-0.8713">
        <ele>125</ele>
        <time>2024-10-17T22:24:17.212Z</time>
      </trkpt>
      <trkpt lat="46.91165" lon="-0.8714">
        <ele>125</ele>
        <time>2024-10-17T22:24:18.291Z</time>
      </trkpt>
      <trkpt lat="46.91171" lon="-0.87157">
        <ele>124.8</ele>
        <time>2024-10-17T22:24:20.016Z</time>
      </trkpt>
      <trkpt lat="46.91191" lon="-0.87201">
        <ele>124.9</ele>
        <time>2024-10-17T22:24:25.634Z</time>
      </trkpt>
      <trkpt lat="46.91199" lon="-0.87226">
        <ele>125</ele>
        <time>2024-10-17T22:24:28.642Z</time>
      </trkpt>
      <trkpt lat="46.91211" lon="-0.87261">
        <ele>126.2</ele>
        <time>2024-10-17T22:24:35.270Z</time>
      </trkpt>
      <trkpt lat="46.91221" lon="-0.87283">
        <ele>128.3</ele>
        <time>2024-10-17T22:24:46.155Z</time>
      </trkpt>
      <trkpt lat="46.91229" lon="-0.873">
        <ele>130.4</ele>
        <time>2024-10-17T22:24:55.313Z</time>
      </trkpt>
      <trkpt lat="46.91237" lon="-0.87318">
        <ele>131.8</ele>
        <time>2024-10-17T22:25:02.411Z</time>
      </trkpt>
      <trkpt lat="46.91243" lon="-0.87333">
        <ele>132.5</ele>
        <time>2024-10-17T22:25:05.936Z</time>
      </trkpt>
      <trkpt lat="46.91248" lon="-0.87351">
        <ele>132.9</ele>
        <time>2024-10-17T22:25:08.694Z</time>
      </trkpt>
      <trkpt lat="46.91252" lon="-0.87369">
        <ele>133.7</ele>
        <time>2024-10-17T22:25:12.685Z</time>
      </trkpt>
      <trkpt lat="46.91254" lon="-0.87387">
        <ele>135</ele>
        <time>2024-10-17T22:25:19.385Z</time>
      </trkpt>
      <trkpt lat="46.9126" lon="-0.87435">
        <ele>137.6</ele>
        <time>2024-10-17T22:25:32.185Z</time>
      </trkpt>
      <trkpt lat="46.91264" lon="-0.87464">
        <ele>138.9</ele>
        <time>2024-10-17T22:25:38.630Z</time>
      </trkpt>
      <trkpt lat="46.91268" lon="-0.87492">
        <ele>139.6</ele>
        <time>2024-10-17T22:25:42.969Z</time>
      </trkpt>
      <trkpt lat="46.9127" lon="-0.8752">
        <ele>140.2</ele>
        <time>2024-10-17T22:25:47.014Z</time>
      </trkpt>
      <trkpt lat="46.91273" lon="-0.87543">
        <ele>141.3</ele>
        <time>2024-10-17T22:25:52.431Z</time>
      </trkpt>
      <trkpt lat="46.91276" lon="-0.87559">
        <ele>141.9</ele>
        <time>2024-10-17T22:25:55.542Z</time>
      </trkpt>
      <trkpt lat="46.91278" lon="-0.8757">
        <ele>142</ele>
        <time>2024-10-17T22:25:56.880Z</time>
      </trkpt>
      <trkpt lat="46.91281" lon="-0.8758">
        <ele>142.6</ele>
        <time>2024-10-17T22:25:59.841Z</time>
      </trkpt>
      <trkpt lat="46.91284" lon="-0.87589">
        <ele>143.2</ele>
        <time>2024-10-17T22:26:02.836Z</time>
      </trkpt>
      <trkpt lat="46.91291" lon="-0.87607">
        <ele>144</ele>
        <time>2024-10-17T22:26:06.905Z</time>
      </trkpt>
      <trkpt lat="46.91304" lon="-0.8763">
        <ele>144.2</ele>
        <time>2024-10-17T22:26:10.308Z</time>
      </trkpt>
      <trkpt lat="46.9132" lon="-0.87656">
        <ele>144.8</ele>
        <time>2024-10-17T22:26:15.000Z</time>
      </trkpt>
      <trkpt lat="46.91336" lon="-0.87683">
        <ele>144.4</ele>
        <time>2024-10-17T22:26:18.192Z</time>
      </trkpt>
      <trkpt lat="46.91348" lon="-0.87705">
        <ele>145.6</ele>
        <time>2024-10-17T22:26:24.169Z</time>
      </trkpt>
      <trkpt lat="46.91357" lon="-0.8772">
        <ele>145.8</ele>
        <time>2024-10-17T22:26:26.561Z</time>
      </trkpt>
      <trkpt lat="46.91369" lon="-0.87731">
        <ele>146.4</ele>
        <time>2024-10-17T22:26:29.963Z</time>
      </trkpt>
      <trkpt lat="46.91382" lon="-0.87743">
        <ele>146.9</ele>
        <time>2024-10-17T22:26:33.246Z</time>
      </trkpt>
      <trkpt lat="46.914" lon="-0.87756">
        <ele>147.5</ele>
        <time>2024-10-17T22:26:37.405Z</time>
      </trkpt>
      <trkpt lat="46.9141" lon="-0.87766">
        <ele>147.5</ele>
        <time>2024-10-17T22:26:39.240Z</time>
      </trkpt>
      <trkpt lat="46.9142" lon="-0.87777">
        <ele>147.3</ele>
        <time>2024-10-17T22:26:40.881Z</time>
      </trkpt>
      <trkpt lat="46.91431" lon="-0.87789">
        <ele>148.2</ele>
        <time>2024-10-17T22:26:45.332Z</time>
      </trkpt>
      <trkpt lat="46.91437" lon="-0.87798">
        <ele>148.7</ele>
        <time>2024-10-17T22:26:47.857Z</time>
      </trkpt>
      <trkpt lat="46.91446" lon="-0.8781">
        <ele>149.1</ele>
        <time>2024-10-17T22:26:50.467Z</time>
      </trkpt>
      <trkpt lat="46.91461" lon="-0.87834">
        <ele>149.6</ele>
        <time>2024-10-17T22:26:54.706Z</time>
      </trkpt>
      <trkpt lat="46.91477" lon="-0.87863">
        <ele>150.4</ele>
        <time>2024-10-17T22:27:00.075Z</time>
      </trkpt>
      <trkpt lat="46.91494" lon="-0.87892">
        <ele>151.8</ele>
        <time>2024-10-17T22:27:07.305Z</time>
      </trkpt>
      <trkpt lat="46.91514" lon="-0.87927">
        <ele>153.2</ele>
        <time>2024-10-17T22:27:15.033Z</time>
      </trkpt>
      <trkpt lat="46.91533" lon="-0.87962">
        <ele>154.8</ele>
        <time>2024-10-17T22:27:23.357Z</time>
      </trkpt>
      <trkpt lat="46.91553" lon="-0.87997">
        <ele>156.8</ele>
        <time>2024-10-17T22:27:33.276Z</time>
      </trkpt>
      <trkpt lat="46.91582" lon="-0.88048">
        <ele>158.7</ele>
        <time>2024-10-17T22:27:44.107Z</time>
      </trkpt>
      <trkpt lat="46.91601" lon="-0.88083">
        <ele>160.6</ele>
        <time>2024-10-17T22:27:53.575Z</time>
      </trkpt>
      <trkpt lat="46.91623" lon="-0.88122">
        <ele>162.2</ele>
        <time>2024-10-17T22:28:02.292Z</time>
      </trkpt>
      <trkpt lat="46.91641" lon="-0.88154">
        <ele>163</ele>
        <time>2024-10-17T22:28:08.050Z</time>
      </trkpt>
      <trkpt lat="46.91659" lon="-0.88185">
        <ele>163</ele>
        <time>2024-10-17T22:28:12.262Z</time>
      </trkpt>
      <trkpt lat="46.91675" lon="-0.88212">
        <ele>162.7</ele>
        <time>2024-10-17T22:28:15.568Z</time>
      </trkpt>
      <trkpt lat="46.91692" lon="-0.88242">
        <ele>161.6</ele>
        <time>2024-10-17T22:28:18.430Z</time>
      </trkpt>
      <trkpt lat="46.91704" lon="-0.88262">
        <ele>160.8</ele>
        <time>2024-10-17T22:28:20.348Z</time>
      </trkpt>
      <trkpt lat="46.91716" lon="-0.88279">
        <ele>159.9</ele>
        <time>2024-10-17T22:28:21.993Z</time>
      </trkpt>
      <trkpt lat="46.91727" lon="-0.88292">
        <ele>159</ele>
        <time>2024-10-17T22:28:23.303Z</time>
      </trkpt>
      <trkpt lat="46.9174" lon="-0.88304">
        <ele>158.1</ele>
        <time>2024-10-17T22:28:24.772Z</time>
      </trkpt>
      <trkpt lat="46.91752" lon="-0.88313">
        <ele>157.5</ele>
        <time>2024-10-17T22:28:26.189Z</time>
      </trkpt>
      <trkpt lat="46.91765" lon="-0.88322">
        <ele>156.8</ele>
        <time>2024-10-17T22:28:27.657Z</time>
      </trkpt>
      <trkpt lat="46.91781" lon="-0.88331">
        <ele>156.2</ele>
        <time>2024-10-17T22:28:29.587Z</time>
      </trkpt>
      <trkpt lat="46.91801" lon="-0.88341">
        <ele>155.7</ele>
        <time>2024-10-17T22:28:32.187Z</time>
      </trkpt>
      <trkpt lat="46.9182" lon="-0.88351">
        <ele>155</ele>
        <time>2024-10-17T22:28:34.466Z</time>
      </trkpt>
      <trkpt lat="46.91843" lon="-0.88363">
        <ele>153.6</ele>
        <time>2024-10-17T22:28:36.819Z</time>
      </trkpt>
      <trkpt lat="46.91857" lon="-0.8837">
        <ele>152.9</ele>
        <time>2024-10-17T22:28:38.343Z</time>
      </trkpt>
      <trkpt lat="46.91872" lon="-0.88378">
        <ele>151.9</ele>
        <time>2024-10-17T22:28:39.831Z</time>
      </trkpt>
      <trkpt lat="46.91885" lon="-0.88384">
        <ele>150.8</ele>
        <time>2024-10-17T22:28:41.070Z</time>
      </trkpt>
      <trkpt lat="46.91899" lon="-0.88392">
        <ele>149.6</ele>
        <time>2024-10-17T22:28:42.437Z</time>
      </trkpt>
      <trkpt lat="46.91912" lon="-0.88399">
        <ele>148.6</ele>
        <time>2024-10-17T22:28:43.696Z</time>
      </trkpt>
      <trkpt lat="46.9195" lon="-0.88421">
        <ele>144.2</ele>
        <time>2024-10-17T22:28:47.411Z</time>
      </trkpt>
      <trkpt lat="46.9196" lon="-0.88431">
        <ele>142.9</ele>
        <time>2024-10-17T22:28:48.512Z</time>
      </trkpt>
      <trkpt lat="46.9197" lon="-0.88441">
        <ele>142.1</ele>
        <time>2024-10-17T22:28:49.618Z</time>
      </trkpt>
      <trkpt lat="46.91979" lon="-0.88451">
        <ele>141.2</ele>
        <time>2024-10-17T22:28:50.645Z</time>
      </trkpt>
      <trkpt lat="46.9198" lon="-0.88452">
        <ele>141.1</ele>
        <time>2024-10-17T22:28:50.755Z</time>
      </trkpt>
      <trkpt lat="46.91992" lon="-0.8847">
        <ele>140.7</ele>
        <time>2024-10-17T22:28:52.875Z</time>
      </trkpt>
      <trkpt lat="46.92006" lon="-0.88488">
        <ele>141.1</ele>
        <time>2024-10-17T22:28:56.389Z</time>
      </trkpt>
      <trkpt lat="46.92015" lon="-0.885">
        <ele>142.2</ele>
        <time>2024-10-17T22:29:01.908Z</time>
      </trkpt>
      <trkpt lat="46.92024" lon="-0.88513">
        <ele>143.1</ele>
        <time>2024-10-17T22:29:06.332Z</time>
      </trkpt>
      <trkpt lat="46.92034" lon="-0.88525">
        <ele>143.8</ele>
        <time>2024-10-17T22:29:09.936Z</time>
      </trkpt>
      <trkpt lat="46.92043" lon="-0.88535">
        <ele>144.6</ele>
        <time>2024-10-17T22:29:13.869Z</time>
      </trkpt>
      <trkpt lat="46.92051" lon="-0.88544">
        <ele>145.5</ele>
        <time>2024-10-17T22:29:18.374Z</time>
      </trkpt>
      <trkpt lat="46.92059" lon="-0.88553">
        <ele>146</ele>
        <time>2024-10-17T22:29:21.026Z</time>
      </trkpt>
      <trkpt lat="46.92066" lon="-0.88561">
        <ele>146.1</ele>
        <time>2024-10-17T22:29:22.530Z</time>
      </trkpt>
      <trkpt lat="46.92074" lon="-0.88569">
        <ele>146.6</ele>
        <time>2024-10-17T22:29:25.144Z</time>
      </trkpt>
      <trkpt lat="46.92083" lon="-0.88578">
        <ele>147.6</ele>
        <time>2024-10-17T22:29:30.175Z</time>
      </trkpt>
      <trkpt lat="46.92097" lon="-0.88593">
        <ele>148.2</ele>
        <time>2024-10-17T22:29:33.971Z</time>
      </trkpt>
      <trkpt lat="46.92106" lon="-0.88604">
        <ele>149.7</ele>
        <time>2024-10-17T22:29:41.509Z</time>
      </trkpt>
      <trkpt lat="46.92115" lon="-0.88619">
        <ele>151.2</ele>
        <time>2024-10-17T22:29:49.288Z</time>
      </trkpt>
      <trkpt lat="46.92122" lon="-0.88632">
        <ele>151.3</ele>
        <time>2024-10-17T22:29:51.156Z</time>
      </trkpt>
      <trkpt lat="46.92127" lon="-0.88646">
        <ele>151.7</ele>
        <time>2024-10-17T22:29:53.587Z</time>
      </trkpt>
      <trkpt lat="46.92135" lon="-0.8867">
        <ele>151.9</ele>
        <time>2024-10-17T22:29:56.667Z</time>
      </trkpt>
      <trkpt lat="46.9214" lon="-0.88691">
        <ele>152.6</ele>
        <time>2024-10-17T22:30:00.488Z</time>
      </trkpt>
      <trkpt lat="46.92145" lon="-0.88719">
        <ele>154.4</ele>
        <time>2024-10-17T22:30:09.531Z</time>
      </trkpt>
      <trkpt lat="46.92151" lon="-0.88749">
        <ele>157.2</ele>
        <time>2024-10-17T22:30:23.362Z</time>
      </trkpt>
      <trkpt lat="46.92153" lon="-0.8877">
        <ele>159.5</ele>
        <time>2024-10-17T22:30:32.766Z</time>
      </trkpt>
      <trkpt lat="46.92156" lon="-0.88789">
        <ele>161.2</ele>
        <time>2024-10-17T22:30:41.321Z</time>
      </trkpt>
      <trkpt lat="46.92158" lon="-0.88806">
        <ele>163</ele>
        <time>2024-10-17T22:30:48.973Z</time>
      </trkpt>
      <trkpt lat="46.9216" lon="-0.88826">
        <ele>164.6</ele>
        <time>2024-10-17T22:30:57.269Z</time>
      </trkpt>
      <trkpt lat="46.92161" lon="-0.88845">
        <ele>165.9</ele>
        <time>2024-10-17T22:31:03.919Z</time>
      </trkpt>
      <trkpt lat="46.92162" lon="-0.88862">
        <ele>166.9</ele>
        <time>2024-10-17T22:31:08.893Z</time>
      </trkpt>
      <trkpt lat="46.92163" lon="-0.88878">
        <ele>167.4</ele>
        <time>2024-10-17T22:31:11.636Z</time>
      </trkpt>
      <trkpt lat="46.92165" lon="-0.88896">
        <ele>168.1</ele>
        <time>2024-10-17T22:31:15.202Z</time>
      </trkpt>
      <trkpt lat="46.92167" lon="-0.8891">
        <ele>168.8</ele>
        <time>2024-10-17T22:31:18.643Z</time>
      </trkpt>
      <trkpt lat="46.9217" lon="-0.88925">
        <ele>169.2</ele>
        <time>2024-10-17T22:31:21.060Z</time>
      </trkpt>
      <trkpt lat="46.92173" lon="-0.88942">
        <ele>169.4</ele>
        <time>2024-10-17T22:31:23.208Z</time>
      </trkpt>
      <trkpt lat="46.92178" lon="-0.88963">
        <ele>169.7</ele>
        <time>2024-10-17T22:31:26.020Z</time>
      </trkpt>
      <trkpt lat="46.92182" lon="-0.88979">
        <ele>170.3</ele>
        <time>2024-10-17T22:31:29.158Z</time>
      </trkpt>
      <trkpt lat="46.92186" lon="-0.88994">
        <ele>171</ele>
        <time>2024-10-17T22:31:32.634Z</time>
      </trkpt>
      <trkpt lat="46.9219" lon="-0.89006">
        <ele>171.5</ele>
        <time>2024-10-17T22:31:35.199Z</time>
      </trkpt>
      <trkpt lat="46.92195" lon="-0.89019">
        <ele>172.1</ele>
        <time>2024-10-17T22:31:38.221Z</time>
      </trkpt>
      <trkpt lat="46.92201" lon="-0.89031">
        <ele>172.7</ele>
        <time>2024-10-17T22:31:41.242Z</time>
      </trkpt>
      <trkpt lat="46.92208" lon="-0.89043">
        <ele>173.2</ele>
        <time>2024-10-17T22:31:43.964Z</time>
      </trkpt>
      <trkpt lat="46.92216" lon="-0.89057">
        <ele>173.5</ele>
        <time>2024-10-17T22:31:46.383Z</time>
      </trkpt>
      <trkpt lat="46.92227" lon="-0.89072">
        <ele>173.9</ele>
        <time>2024-10-17T22:31:49.384Z</time>
      </trkpt>
      <trkpt lat="46.92239" lon="-0.89089">
        <ele>174.5</ele>
        <time>2024-10-17T22:31:53.096Z</time>
      </trkpt>
      <trkpt lat="46.92249" lon="-0.89105">
        <ele>174.4</ele>
        <time>2024-10-17T22:31:55.204Z</time>
      </trkpt>
      <trkpt lat="46.92255" lon="-0.89115">
        <ele>174</ele>
        <time>2024-10-17T22:31:56.162Z</time>
      </trkpt>
      <trkpt lat="46.92262" lon="-0.89128">
        <ele>173.7</ele>
        <time>2024-10-17T22:31:57.522Z</time>
      </trkpt>
      <trkpt lat="46.92268" lon="-0.89142">
        <ele>174</ele>
        <time>2024-10-17T22:31:59.774Z</time>
      </trkpt>
      <trkpt lat="46.92272" lon="-0.89153">
        <ele>174.5</ele>
        <time>2024-10-17T22:32:02.295Z</time>
      </trkpt>
      <trkpt lat="46.92276" lon="-0.8917">
        <ele>175</ele>
        <time>2024-10-17T22:32:05.186Z</time>
      </trkpt>
      <trkpt lat="46.92285" lon="-0.89202">
        <ele>176.3</ele>
        <time>2024-10-17T22:32:11.849Z</time>
      </trkpt>
      <trkpt lat="46.92286" lon="-0.89204">
        <ele>176.3</ele>
        <time>2024-10-17T22:32:12.106Z</time>
      </trkpt>
      <trkpt lat="46.92292" lon="-0.89226">
        <ele>176.5</ele>
        <time>2024-10-17T22:32:14.877Z</time>
      </trkpt>
      <trkpt lat="46.92297" lon="-0.89242">
        <ele>177.1</ele>
        <time>2024-10-17T22:32:18.050Z</time>
      </trkpt>
      <trkpt lat="46.92303" lon="-0.89259">
        <ele>177.7</ele>
        <time>2024-10-17T22:32:21.331Z</time>
      </trkpt>
      <trkpt lat="46.92309" lon="-0.89272">
        <ele>178.4</ele>
        <time>2024-10-17T22:32:24.795Z</time>
      </trkpt>
      <trkpt lat="46.92315" lon="-0.89287">
        <ele>178.8</ele>
        <time>2024-10-17T22:32:27.365Z</time>
      </trkpt>
      <trkpt lat="46.92322" lon="-0.89301">
        <ele>179.4</ele>
        <time>2024-10-17T22:32:30.523Z</time>
      </trkpt>
      <trkpt lat="46.92329" lon="-0.89314">
        <ele>180.1</ele>
        <time>2024-10-17T22:32:34.014Z</time>
      </trkpt>
      <trkpt lat="46.92339" lon="-0.8933">
        <ele>180.5</ele>
        <time>2024-10-17T22:32:36.985Z</time>
      </trkpt>
      <trkpt lat="46.92348" lon="-0.89345">
        <ele>180.2</ele>
        <time>2024-10-17T22:32:38.685Z</time>
      </trkpt>
      <trkpt lat="46.9236" lon="-0.89363">
        <ele>180.7</ele>
        <time>2024-10-17T22:32:42.213Z</time>
      </trkpt>
      <trkpt lat="46.92372" lon="-0.89381">
        <ele>180.2</ele>
        <time>2024-10-17T22:32:44.237Z</time>
      </trkpt>
      <trkpt lat="46.92381" lon="-0.89398">
        <ele>180.4</ele>
        <time>2024-10-17T22:32:46.785Z</time>
      </trkpt>
      <trkpt lat="46.92396" lon="-0.89421">
        <ele>181.3</ele>
        <time>2024-10-17T22:32:51.945Z</time>
      </trkpt>
      <trkpt lat="46.92407" lon="-0.89439">
        <ele>181.7</ele>
        <time>2024-10-17T22:32:55.152Z</time>
      </trkpt>
      <trkpt lat="46.9242" lon="-0.8946">
        <ele>182.7</ele>
        <time>2024-10-17T22:33:00.379Z</time>
      </trkpt>
      <trkpt lat="46.92441" lon="-0.89493">
        <ele>183.9</ele>
        <time>2024-10-17T22:33:07.479Z</time>
      </trkpt>
      <trkpt lat="46.92457" lon="-0.89519">
        <ele>184.5</ele>
        <time>2024-10-17T22:33:12.171Z</time>
      </trkpt>
      <trkpt lat="46.92468" lon="-0.89536">
        <ele>184.8</ele>
        <time>2024-10-17T22:33:15.100Z</time>
      </trkpt>
      <trkpt lat="46.92476" lon="-0.89548">
        <ele>185</ele>
        <time>2024-10-17T22:33:17.169Z</time>
      </trkpt>
      <trkpt lat="46.92484" lon="-0.89558">
        <ele>185</ele>
        <time>2024-10-17T22:33:18.763Z</time>
      </trkpt>
      <trkpt lat="46.92494" lon="-0.89571">
        <ele>185</ele>
        <time>2024-10-17T22:33:20.789Z</time>
      </trkpt>
      <trkpt lat="46.92505" lon="-0.89582">
        <ele>185</ele>
        <time>2024-10-17T22:33:22.808Z</time>
      </trkpt>
      <trkpt lat="46.92519" lon="-0.89595">
        <ele>185</ele>
        <time>2024-10-17T22:33:25.320Z</time>
      </trkpt>
      <trkpt lat="46.92532" lon="-0.89607">
        <ele>184.8</ele>
        <time>2024-10-17T22:33:27.388Z</time>
      </trkpt>
      <trkpt lat="46.92546" lon="-0.8962">
        <ele>184.4</ele>
        <time>2024-10-17T22:33:29.420Z</time>
      </trkpt>
      <trkpt lat="46.92557" lon="-0.8963">
        <ele>184.7</ele>
        <time>2024-10-17T22:33:31.908Z</time>
      </trkpt>
      <trkpt lat="46.92572" lon="-0.89645">
        <ele>185.1</ele>
        <time>2024-10-17T22:33:35.354Z</time>
      </trkpt>
      <trkpt lat="46.92572" lon="-0.89644">
        <ele>185.1</ele>
        <time>2024-10-17T22:33:35.457Z</time>
      </trkpt>
      <trkpt lat="46.92573" lon="-0.89644">
        <ele>185.1</ele>
        <time>2024-10-17T22:33:35.609Z</time>
      </trkpt>
      <trkpt lat="46.92573" lon="-0.89643">
        <ele>185.1</ele>
        <time>2024-10-17T22:33:35.712Z</time>
      </trkpt>
      <trkpt lat="46.92573" lon="-0.89642">
        <ele>185.1</ele>
        <time>2024-10-17T22:33:35.816Z</time>
      </trkpt>
      <trkpt lat="46.92574" lon="-0.89642">
        <ele>185.1</ele>
        <time>2024-10-17T22:33:35.967Z</time>
      </trkpt>
      <trkpt lat="46.92574" lon="-0.89641">
        <ele>185.1</ele>
        <time>2024-10-17T22:33:36.071Z</time>
      </trkpt>
      <trkpt lat="46.92575" lon="-0.89641">
        <ele>185.1</ele>
        <time>2024-10-17T22:33:36.222Z</time>
      </trkpt>
      <trkpt lat="46.92575" lon="-0.8964">
        <ele>185</ele>
        <time>2024-10-17T22:33:36.285Z</time>
      </trkpt>
      <trkpt lat="46.92576" lon="-0.8964">
        <ele>185</ele>
        <time>2024-10-17T22:33:36.436Z</time>
      </trkpt>
      <trkpt lat="46.92576" lon="-0.89639">
        <ele>185</ele>
        <time>2024-10-17T22:33:36.540Z</time>
      </trkpt>
      <trkpt lat="46.92577" lon="-0.89639">
        <ele>185</ele>
        <time>2024-10-17T22:33:36.691Z</time>
      </trkpt>
      <trkpt lat="46.92578" lon="-0.89639">
        <ele>185</ele>
        <time>2024-10-17T22:33:36.843Z</time>
      </trkpt>
      <trkpt lat="46.92579" lon="-0.89639">
        <ele>185</ele>
        <time>2024-10-17T22:33:36.994Z</time>
      </trkpt>
      <trkpt lat="46.9258" lon="-0.89639">
        <ele>185</ele>
        <time>2024-10-17T22:33:37.146Z</time>
      </trkpt>
      <trkpt lat="46.92581" lon="-0.8964">
        <ele>185</ele>
        <time>2024-10-17T22:33:37.329Z</time>
      </trkpt>
      <trkpt lat="46.92582" lon="-0.8964">
        <ele>185</ele>
        <time>2024-10-17T22:33:37.481Z</time>
      </trkpt>
      <trkpt lat="46.92582" lon="-0.89641">
        <ele>185.1</ele>
        <time>2024-10-17T22:33:37.924Z</time>
      </trkpt>
      <trkpt lat="46.92583" lon="-0.89641">
        <ele>185.1</ele>
        <time>2024-10-17T22:33:38.076Z</time>
      </trkpt>
      <trkpt lat="46.92583" lon="-0.89642">
        <ele>185.1</ele>
        <time>2024-10-17T22:33:38.179Z</time>
      </trkpt>
      <trkpt lat="46.92584" lon="-0.89642">
        <ele>185.1</ele>
        <time>2024-10-17T22:33:38.331Z</time>
      </trkpt>
      <trkpt lat="46.92584" lon="-0.89643">
        <ele>185.1</ele>
        <time>2024-10-17T22:33:38.434Z</time>
      </trkpt>
      <trkpt lat="46.92584" lon="-0.89644">
        <ele>185.2</ele>
        <time>2024-10-17T22:33:38.878Z</time>
      </trkpt>
      <trkpt lat="46.92585" lon="-0.89644">
        <ele>185.1</ele>
        <time>2024-10-17T22:33:38.969Z</time>
      </trkpt>
      <trkpt lat="46.92585" lon="-0.89645">
        <ele>185.2</ele>
        <time>2024-10-17T22:33:39.412Z</time>
      </trkpt>
      <trkpt lat="46.92585" lon="-0.89646">
        <ele>185.2</ele>
        <time>2024-10-17T22:33:39.516Z</time>
      </trkpt>
      <trkpt lat="46.92585" lon="-0.89647">
        <ele>185.2</ele>
        <time>2024-10-17T22:33:39.619Z</time>
      </trkpt>
      <trkpt lat="46.92585" lon="-0.89648">
        <ele>185.3</ele>
        <time>2024-10-17T22:33:40.063Z</time>
      </trkpt>
      <trkpt lat="46.92585" lon="-0.89649">
        <ele>185.3</ele>
        <time>2024-10-17T22:33:40.166Z</time>
      </trkpt>
      <trkpt lat="46.92585" lon="-0.8965">
        <ele>185.3</ele>
        <time>2024-10-17T22:33:40.270Z</time>
      </trkpt>
      <trkpt lat="46.92585" lon="-0.89651">
        <ele>185.4</ele>
        <time>2024-10-17T22:33:40.713Z</time>
      </trkpt>
      <trkpt lat="46.92585" lon="-0.89652">
        <ele>185.4</ele>
        <time>2024-10-17T22:33:40.817Z</time>
      </trkpt>
      <trkpt lat="46.92585" lon="-0.89653">
        <ele>185.4</ele>
        <time>2024-10-17T22:33:40.920Z</time>
      </trkpt>
      <trkpt lat="46.92585" lon="-0.89654">
        <ele>185.5</ele>
        <time>2024-10-17T22:33:41.364Z</time>
      </trkpt>
      <trkpt lat="46.92584" lon="-0.89654">
        <ele>185.5</ele>
        <time>2024-10-17T22:33:41.515Z</time>
      </trkpt>
      <trkpt lat="46.92584" lon="-0.89655">
        <ele>185.6</ele>
        <time>2024-10-17T22:33:41.959Z</time>
      </trkpt>
      <trkpt lat="46.92594" lon="-0.89666">
        <ele>185.6</ele>
        <time>2024-10-17T22:33:43.854Z</time>
      </trkpt>
      <trkpt lat="46.92602" lon="-0.89676">
        <ele>185.8</ele>
        <time>2024-10-17T22:33:45.786Z</time>
      </trkpt>
      <trkpt lat="46.9261" lon="-0.89685">
        <ele>186.3</ele>
        <time>2024-10-17T22:33:48.437Z</time>
      </trkpt>
      <trkpt lat="46.92618" lon="-0.89696">
        <ele>186.8</ele>
        <time>2024-10-17T22:33:51.180Z</time>
      </trkpt>
      <trkpt lat="46.92632" lon="-0.89714">
        <ele>186.8</ele>
        <time>2024-10-17T22:33:54.003Z</time>
      </trkpt>
      <trkpt lat="46.92638" lon="-0.89721">
        <ele>187</ele>
        <time>2024-10-17T22:33:55.526Z</time>
      </trkpt>
      <trkpt lat="46.92648" lon="-0.89735">
        <ele>187.8</ele>
        <time>2024-10-17T22:33:59.573Z</time>
      </trkpt>
      <trkpt lat="46.92664" lon="-0.89759">
        <ele>188.4</ele>
        <time>2024-10-17T22:34:04.124Z</time>
      </trkpt>
      <trkpt lat="46.92684" lon="-0.89788">
        <ele>189.4</ele>
        <time>2024-10-17T22:34:10.352Z</time>
      </trkpt>
      <trkpt lat="46.92704" lon="-0.89817">
        <ele>189.7</ele>
        <time>2024-10-17T22:34:15.089Z</time>
      </trkpt>
      <trkpt lat="46.92718" lon="-0.89839">
        <ele>189.5</ele>
        <time>2024-10-17T22:34:17.933Z</time>
      </trkpt>
      <trkpt lat="46.92731" lon="-0.89859">
        <ele>189.3</ele>
        <time>2024-10-17T22:34:20.525Z</time>
      </trkpt>
      <trkpt lat="46.92754" lon="-0.89893">
        <ele>188.8</ele>
        <time>2024-10-17T22:34:24.837Z</time>
      </trkpt>
      <trkpt lat="46.92767" lon="-0.8991">
        <ele>188.7</ele>
        <time>2024-10-17T22:34:27.341Z</time>
      </trkpt>
      <trkpt lat="46.92777" lon="-0.89924">
        <ele>189.3</ele>
        <time>2024-10-17T22:34:30.706Z</time>
      </trkpt>
      <trkpt lat="46.92787" lon="-0.89934">
        <ele>189.5</ele>
        <time>2024-10-17T22:34:32.872Z</time>
      </trkpt>
      <trkpt lat="46.92797" lon="-0.89944">
        <ele>190</ele>
        <time>2024-10-17T22:34:35.743Z</time>
      </trkpt>
      <trkpt lat="46.92823" lon="-0.89967">
        <ele>191.9</ele>
        <time>2024-10-17T22:34:45.203Z</time>
      </trkpt>
      <trkpt lat="46.92833" lon="-0.89978">
        <ele>192.4</ele>
        <time>2024-10-17T22:34:48.122Z</time>
      </trkpt>
      <trkpt lat="46.92846" lon="-0.90003">
        <ele>194.1</ele>
        <time>2024-10-17T22:34:56.500Z</time>
      </trkpt>
      <trkpt lat="46.92846" lon="-0.90003">
        <ele>194.1</ele>
        <time>2024-10-17T22:34:56.500Z</time>
      </trkpt>
      <trkpt lat="46.92852" lon="-0.90003">
        <ele>194</ele>
        <time>2024-10-17T22:34:57.282Z</time>
      </trkpt>
      <trkpt lat="46.92857" lon="-0.90002">
        <ele>194</ele>
        <time>2024-10-17T22:34:58.047Z</time>
      </trkpt>
      <trkpt lat="46.92864" lon="-0.90002">
        <ele>194</ele>
        <time>2024-10-17T22:34:59.108Z</time>
      </trkpt>
      <trkpt lat="46.92864" lon="-0.90002">
        <ele>194</ele>
        <time>2024-10-17T22:34:59.108Z</time>
      </trkpt>
      <trkpt lat="46.92866" lon="-0.90011">
        <ele>194.1</ele>
        <time>2024-10-17T22:35:00.251Z</time>
      </trkpt>
      <trkpt lat="46.92868" lon="-0.90021">
        <ele>194.2</ele>
        <time>2024-10-17T22:35:01.491Z</time>
      </trkpt>
      <trkpt lat="46.92872" lon="-0.90054">
        <ele>195.3</ele>
        <time>2024-10-17T22:35:07.394Z</time>
      </trkpt>
      <trkpt lat="46.92876" lon="-0.90086">
        <ele>196.6</ele>
        <time>2024-10-17T22:35:13.952Z</time>
      </trkpt>
      <trkpt lat="46.92876" lon="-0.90093">
        <ele>196.9</ele>
        <time>2024-10-17T22:35:15.445Z</time>
      </trkpt>
      <trkpt lat="46.92877" lon="-0.90101">
        <ele>197.2</ele>
        <time>2024-10-17T22:35:16.991Z</time>
      </trkpt>
      <trkpt lat="46.92876" lon="-0.90111">
        <ele>197.5</ele>
        <time>2024-10-17T22:35:18.672Z</time>
      </trkpt>
      <trkpt lat="46.92875" lon="-0.90119">
        <ele>197.5</ele>
        <time>2024-10-17T22:35:19.513Z</time>
      </trkpt>
      <trkpt lat="46.92873" lon="-0.90128">
        <ele>197.4</ele>
        <time>2024-10-17T22:35:20.365Z</time>
      </trkpt>
      <trkpt lat="46.92868" lon="-0.90141">
        <ele>197.2</ele>
        <time>2024-10-17T22:35:21.661Z</time>
      </trkpt>
      <trkpt lat="46.92867" lon="-0.90143">
        <ele>197.1</ele>
        <time>2024-10-17T22:35:21.822Z</time>
      </trkpt>
      <trkpt lat="46.92862" lon="-0.90153">
        <ele>196.5</ele>
        <time>2024-10-17T22:35:22.591Z</time>
      </trkpt>
      <trkpt lat="46.92854" lon="-0.90169">
        <ele>195.7</ele>
        <time>2024-10-17T22:35:23.882Z</time>
      </trkpt>
      <trkpt lat="46.9285" lon="-0.90181">
        <ele>195.4</ele>
        <time>2024-10-17T22:35:24.925Z</time>
      </trkpt>
      <trkpt lat="46.92847" lon="-0.90193">
        <ele>195</ele>
        <time>2024-10-17T22:35:25.834Z</time>
      </trkpt>
      <trkpt lat="46.92846" lon="-0.90196">
        <ele>194.9</ele>
        <time>2024-10-17T22:35:26.074Z</time>
      </trkpt>
      <trkpt lat="46.92844" lon="-0.90214">
        <ele>194.5</ele>
        <time>2024-10-17T22:35:27.508Z</time>
      </trkpt>
      <trkpt lat="46.92842" lon="-0.90229">
        <ele>194.1</ele>
        <time>2024-10-17T22:35:28.654Z</time>
      </trkpt>
      <trkpt lat="46.92839" lon="-0.90239">
        <ele>193.6</ele>
        <time>2024-10-17T22:35:29.332Z</time>
      </trkpt>
      <trkpt lat="46.92839" lon="-0.90241">
        <ele>193.5</ele>
        <time>2024-10-17T22:35:29.457Z</time>
      </trkpt>
      <trkpt lat="46.92836" lon="-0.90254">
        <ele>192.8</ele>
        <time>2024-10-17T22:35:30.309Z</time>
      </trkpt>
      <trkpt lat="46.92831" lon="-0.90269">
        <ele>191.5</ele>
        <time>2024-10-17T22:35:31.345Z</time>
      </trkpt>
      <trkpt lat="46.92823" lon="-0.90292">
        <ele>190.4</ele>
        <time>2024-10-17T22:35:32.990Z</time>
      </trkpt>
      <trkpt lat="46.92814" lon="-0.90313">
        <ele>190.6</ele>
        <time>2024-10-17T22:35:35.873Z</time>
      </trkpt>
      <trkpt lat="46.92807" lon="-0.90329">
        <ele>190.9</ele>
        <time>2024-10-17T22:35:38.365Z</time>
      </trkpt>
      <trkpt lat="46.92806" lon="-0.90334">
        <ele>191.1</ele>
        <time>2024-10-17T22:35:39.384Z</time>
      </trkpt>
      <trkpt lat="46.92805" lon="-0.9034">
        <ele>191.4</ele>
        <time>2024-10-17T22:35:40.859Z</time>
      </trkpt>
      <trkpt lat="46.92807" lon="-0.90351">
        <ele>192.3</ele>
        <time>2024-10-17T22:35:45.526Z</time>
      </trkpt>
      <trkpt lat="46.92814" lon="-0.90368">
        <ele>193.6</ele>
        <time>2024-10-17T22:35:52.123Z</time>
      </trkpt>
      <trkpt lat="46.92821" lon="-0.90387">
        <ele>195</ele>
        <time>2024-10-17T22:35:59.214Z</time>
      </trkpt>
      <trkpt lat="46.92824" lon="-0.904">
        <ele>196</ele>
        <time>2024-10-17T22:36:04.384Z</time>
      </trkpt>
      <trkpt lat="46.92826" lon="-0.90411">
        <ele>196.9</ele>
        <time>2024-10-17T22:36:09.052Z</time>
      </trkpt>
      <trkpt lat="46.92826" lon="-0.90416">
        <ele>197.2</ele>
        <time>2024-10-17T22:36:10.549Z</time>
      </trkpt>
      <trkpt lat="46.92825" lon="-0.90423">
        <ele>197.2</ele>
        <time>2024-10-17T22:36:11.290Z</time>
      </trkpt>
      <trkpt lat="46.92824" lon="-0.90443">
        <ele>197.3</ele>
        <time>2024-10-17T22:36:13.518Z</time>
      </trkpt>
      <trkpt lat="46.92821" lon="-0.90467">
        <ele>197.1</ele>
        <time>2024-10-17T22:36:15.780Z</time>
      </trkpt>
      <trkpt lat="46.9282" lon="-0.90469">
        <ele>197</ele>
        <time>2024-10-17T22:36:15.941Z</time>
      </trkpt>
      <trkpt lat="46.92816" lon="-0.90514">
        <ele>194.9</ele>
        <time>2024-10-17T22:36:18.759Z</time>
      </trkpt>
      <trkpt lat="46.92813" lon="-0.90534">
        <ele>194.3</ele>
        <time>2024-10-17T22:36:20.245Z</time>
      </trkpt>
      <trkpt lat="46.92811" lon="-0.90545">
        <ele>194.2</ele>
        <time>2024-10-17T22:36:21.292Z</time>
      </trkpt>
      <trkpt lat="46.92808" lon="-0.90557">
        <ele>194.1</ele>
        <time>2024-10-17T22:36:22.483Z</time>
      </trkpt>
      <trkpt lat="46.92801" lon="-0.90578">
        <ele>193.6</ele>
        <time>2024-10-17T22:36:24.331Z</time>
      </trkpt>
      <trkpt lat="46.92795" lon="-0.90594">
        <ele>193.5</ele>
        <time>2024-10-17T22:36:26.084Z</time>
      </trkpt>
      <trkpt lat="46.92784" lon="-0.9062">
        <ele>192.7</ele>
        <time>2024-10-17T22:36:28.379Z</time>
      </trkpt>
      <trkpt lat="46.92778" lon="-0.9064">
        <ele>192</ele>
        <time>2024-10-17T22:36:29.920Z</time>
      </trkpt>
      <trkpt lat="46.92771" lon="-0.90669">
        <ele>190.7</ele>
        <time>2024-10-17T22:36:31.887Z</time>
      </trkpt>
      <trkpt lat="46.92755" lon="-0.90761">
        <ele>188.9</ele>
        <time>2024-10-17T22:36:39.606Z</time>
      </trkpt>
      <trkpt lat="46.92745" lon="-0.90824">
        <ele>191.7</ele>
        <time>2024-10-17T22:36:53.518Z</time>
      </trkpt>
      <trkpt lat="46.9274" lon="-0.90849">
        <ele>192.2</ele>
        <time>2024-10-17T22:36:57.130Z</time>
      </trkpt>
      <trkpt lat="46.92734" lon="-0.90877">
        <ele>193.1</ele>
        <time>2024-10-17T22:37:02.098Z</time>
      </trkpt>
      <trkpt lat="46.92728" lon="-0.90905">
        <ele>194.3</ele>
        <time>2024-10-17T22:37:08.122Z</time>
      </trkpt>
      <trkpt lat="46.92719" lon="-0.90941">
        <ele>196</ele>
        <time>2024-10-17T22:37:16.540Z</time>
      </trkpt>
      <trkpt lat="46.92716" lon="-0.90954">
        <ele>196.5</ele>
        <time>2024-10-17T22:37:19.126Z</time>
      </trkpt>
      <trkpt lat="46.92709" lon="-0.90983">
        <ele>197.4</ele>
        <time>2024-10-17T22:37:24.202Z</time>
      </trkpt>
      <trkpt lat="46.92707" lon="-0.9099">
        <ele>197.6</ele>
        <time>2024-10-17T22:37:25.392Z</time>
      </trkpt>
      <trkpt lat="46.92692" lon="-0.91056">
        <ele>198.8</ele>
        <time>2024-10-17T22:37:34.733Z</time>
      </trkpt>
      <trkpt lat="46.92681" lon="-0.91104">
        <ele>198.8</ele>
        <time>2024-10-17T22:37:39.972Z</time>
      </trkpt>
      <trkpt lat="46.92679" lon="-0.91114">
        <ele>198.9</ele>
        <time>2024-10-17T22:37:41.212Z</time>
      </trkpt>
      <trkpt lat="46.92678" lon="-0.91123">
        <ele>198.9</ele>
        <time>2024-10-17T22:37:42.156Z</time>
      </trkpt>
      <trkpt lat="46.92678" lon="-0.91132">
        <ele>199</ele>
        <time>2024-10-17T22:37:43.252Z</time>
      </trkpt>
      <trkpt lat="46.92678" lon="-0.91132">
        <ele>199</ele>
        <time>2024-10-17T22:37:43.252Z</time>
      </trkpt>
      <trkpt lat="46.92661" lon="-0.91137">
        <ele>198.5</ele>
        <time>2024-10-17T22:37:45.299Z</time>
      </trkpt>
      <trkpt lat="46.92661" lon="-0.91137">
        <ele>198.5</ele>
        <time>2024-10-17T22:37:45.299Z</time>
      </trkpt>
      <trkpt lat="46.92661" lon="-0.91142">
        <ele>198.6</ele>
        <time>2024-10-17T22:37:46.002Z</time>
      </trkpt>
      <trkpt lat="46.9266" lon="-0.91145">
        <ele>198.6</ele>
        <time>2024-10-17T22:37:46.347Z</time>
      </trkpt>
      <trkpt lat="46.92654" lon="-0.91168">
        <ele>198.5</ele>
        <time>2024-10-17T22:37:48.758Z</time>
      </trkpt>
      <trkpt lat="46.9265" lon="-0.91184">
        <ele>198.4</ele>
        <time>2024-10-17T22:37:50.386Z</time>
      </trkpt>
      <trkpt lat="46.92644" lon="-0.9121">
        <ele>198.1</ele>
        <time>2024-10-17T22:37:52.844Z</time>
      </trkpt>
      <trkpt lat="46.92637" lon="-0.91252">
        <ele>196.9</ele>
        <time>2024-10-17T22:37:56.033Z</time>
      </trkpt>
      <trkpt lat="46.92627" lon="-0.91327">
        <ele>194.4</ele>
        <time>2024-10-17T22:38:01.388Z</time>
      </trkpt>
      <trkpt lat="46.92623" lon="-0.91367">
        <ele>192.8</ele>
        <time>2024-10-17T22:38:04.039Z</time>
      </trkpt>
      <trkpt lat="46.92622" lon="-0.91407">
        <ele>191.7</ele>
        <time>2024-10-17T22:38:07.000Z</time>
      </trkpt>
      <trkpt lat="46.92624" lon="-0.91449">
        <ele>191.4</ele>
        <time>2024-10-17T22:38:10.958Z</time>
      </trkpt>
      <trkpt lat="46.92627" lon="-0.91488">
        <ele>190.2</ele>
        <time>2024-10-17T22:38:13.769Z</time>
      </trkpt>
      <trkpt lat="46.92633" lon="-0.91526">
        <ele>189.1</ele>
        <time>2024-10-17T22:38:16.633Z</time>
      </trkpt>
      <trkpt lat="46.9264" lon="-0.91564">
        <ele>187.7</ele>
        <time>2024-10-17T22:38:19.314Z</time>
      </trkpt>
      <trkpt lat="46.9265" lon="-0.91601">
        <ele>186</ele>
        <time>2024-10-17T22:38:21.848Z</time>
      </trkpt>
      <trkpt lat="46.9266" lon="-0.91638">
        <ele>184.3</ele>
        <time>2024-10-17T22:38:24.382Z</time>
      </trkpt>
      <trkpt lat="46.92668" lon="-0.91661">
        <ele>184</ele>
        <time>2024-10-17T22:38:26.674Z</time>
      </trkpt>
      <trkpt lat="46.92675" lon="-0.91683">
        <ele>183.7</ele>
        <time>2024-10-17T22:38:28.809Z</time>
      </trkpt>
      <trkpt lat="46.92689" lon="-0.91724">
        <ele>182.2</ele>
        <time>2024-10-17T22:38:32.021Z</time>
      </trkpt>
      <trkpt lat="46.927" lon="-0.91763">
        <ele>181.3</ele>
        <time>2024-10-17T22:38:35.361Z</time>
      </trkpt>
      <trkpt lat="46.92714" lon="-0.91818">
        <ele>178.8</ele>
        <time>2024-10-17T22:38:39.103Z</time>
      </trkpt>
      <trkpt lat="46.92725" lon="-0.91866">
        <ele>177.6</ele>
        <time>2024-10-17T22:38:43.005Z</time>
      </trkpt>
      <trkpt lat="46.92729" lon="-0.91886">
        <ele>176.8</ele>
        <time>2024-10-17T22:38:44.386Z</time>
      </trkpt>
      <trkpt lat="46.92732" lon="-0.91907">
        <ele>177.3</ele>
        <time>2024-10-17T22:38:47.575Z</time>
      </trkpt>
      <trkpt lat="46.92734" lon="-0.91923">
        <ele>177.8</ele>
        <time>2024-10-17T22:38:50.333Z</time>
      </trkpt>
      <trkpt lat="46.92735" lon="-0.91937">
        <ele>178.3</ele>
        <time>2024-10-17T22:38:52.940Z</time>
      </trkpt>
      <trkpt lat="46.92735" lon="-0.91952">
        <ele>178.8</ele>
        <time>2024-10-17T22:38:55.607Z</time>
      </trkpt>
      <trkpt lat="46.92735" lon="-0.91972">
        <ele>179.5</ele>
        <time>2024-10-17T22:38:59.276Z</time>
      </trkpt>
      <trkpt lat="46.92732" lon="-0.92003">
        <ele>180.8</ele>
        <time>2024-10-17T22:39:05.781Z</time>
      </trkpt>
      <trkpt lat="46.92726" lon="-0.92054">
        <ele>182.8</ele>
        <time>2024-10-17T22:39:15.953Z</time>
      </trkpt>
      <trkpt lat="46.92725" lon="-0.92077">
        <ele>182.9</ele>
        <time>2024-10-17T22:39:18.490Z</time>
      </trkpt>
      <trkpt lat="46.92725" lon="-0.92098">
        <ele>182.4</ele>
        <time>2024-10-17T22:39:20.106Z</time>
      </trkpt>
      <trkpt lat="46.92726" lon="-0.92119">
        <ele>181.9</ele>
        <time>2024-10-17T22:39:21.728Z</time>
      </trkpt>
      <trkpt lat="46.92728" lon="-0.92144">
        <ele>181.3</ele>
        <time>2024-10-17T22:39:23.665Z</time>
      </trkpt>
      <trkpt lat="46.92734" lon="-0.92188">
        <ele>178.8</ele>
        <time>2024-10-17T22:39:26.450Z</time>
      </trkpt>
      <trkpt lat="46.92739" lon="-0.92217">
        <ele>177.6</ele>
        <time>2024-10-17T22:39:28.401Z</time>
      </trkpt>
      <trkpt lat="46.92754" lon="-0.92285">
        <ele>177</ele>
        <time>2024-10-17T22:39:35.010Z</time>
      </trkpt>
      <trkpt lat="46.92757" lon="-0.92301">
        <ele>177.2</ele>
        <time>2024-10-17T22:39:37.061Z</time>
      </trkpt>
      <trkpt lat="46.9276" lon="-0.92329">
        <ele>177.9</ele>
        <time>2024-10-17T22:39:41.376Z</time>
      </trkpt>
      <trkpt lat="46.92762" lon="-0.92352">
        <ele>178.7</ele>
        <time>2024-10-17T22:39:45.590Z</time>
      </trkpt>
      <trkpt lat="46.92761" lon="-0.92398">
        <ele>180.3</ele>
        <time>2024-10-17T22:39:53.994Z</time>
      </trkpt>
      <trkpt lat="46.92759" lon="-0.92448">
        <ele>181.8</ele>
        <time>2024-10-17T22:40:02.364Z</time>
      </trkpt>
      <trkpt lat="46.92759" lon="-0.92483">
        <ele>183.1</ele>
        <time>2024-10-17T22:40:09.049Z</time>
      </trkpt>
      <trkpt lat="46.92761" lon="-0.9251">
        <ele>184.1</ele>
        <time>2024-10-17T22:40:14.205Z</time>
      </trkpt>
      <trkpt lat="46.92763" lon="-0.92534">
        <ele>185.2</ele>
        <time>2024-10-17T22:40:19.636Z</time>
      </trkpt>
      <trkpt lat="46.92771" lon="-0.92579">
        <ele>187.5</ele>
        <time>2024-10-17T22:40:30.938Z</time>
      </trkpt>
      <trkpt lat="46.9278" lon="-0.9264">
        <ele>190</ele>
        <time>2024-10-17T22:40:43.542Z</time>
      </trkpt>
      <trkpt lat="46.92783" lon="-0.9269">
        <ele>192</ele>
        <time>2024-10-17T22:40:53.638Z</time>
      </trkpt>
      <trkpt lat="46.92788" lon="-0.92741">
        <ele>194.5</ele>
        <time>2024-10-17T22:41:05.928Z</time>
      </trkpt>
      <trkpt lat="46.92791" lon="-0.92777">
        <ele>196</ele>
        <time>2024-10-17T22:41:13.440Z</time>
      </trkpt>
      <trkpt lat="46.92793" lon="-0.92799">
        <ele>196</ele>
        <time>2024-10-17T22:41:15.737Z</time>
      </trkpt>
      <trkpt lat="46.92793" lon="-0.92813">
        <ele>196.1</ele>
        <time>2024-10-17T22:41:17.343Z</time>
      </trkpt>
      <trkpt lat="46.92794" lon="-0.92831">
        <ele>196.4</ele>
        <time>2024-10-17T22:41:19.743Z</time>
      </trkpt>
      <trkpt lat="46.92795" lon="-0.92851">
        <ele>196.4</ele>
        <time>2024-10-17T22:41:21.818Z</time>
      </trkpt>
      <trkpt lat="46.92795" lon="-0.92871">
        <ele>196.4</ele>
        <time>2024-10-17T22:41:23.887Z</time>
      </trkpt>
      <trkpt lat="46.92795" lon="-0.92886">
        <ele>196.4</ele>
        <time>2024-10-17T22:41:25.440Z</time>
      </trkpt>
      <trkpt lat="46.92795" lon="-0.92913">
        <ele>196.1</ele>
        <time>2024-10-17T22:41:27.852Z</time>
      </trkpt>
      <trkpt lat="46.92794" lon="-0.92937">
        <ele>195.6</ele>
        <time>2024-10-17T22:41:29.767Z</time>
      </trkpt>
      <trkpt lat="46.92795" lon="-0.92964">
        <ele>195.1</ele>
        <time>2024-10-17T22:41:31.977Z</time>
      </trkpt>
      <trkpt lat="46.92795" lon="-0.92981">
        <ele>194.7</ele>
        <time>2024-10-17T22:41:33.290Z</time>
      </trkpt>
      <trkpt lat="46.92796" lon="-0.9299">
        <ele>194.4</ele>
        <time>2024-10-17T22:41:33.928Z</time>
      </trkpt>
      <trkpt lat="46.92798" lon="-0.92999">
        <ele>194</ele>
        <time>2024-10-17T22:41:34.533Z</time>
      </trkpt>
      <trkpt lat="46.928" lon="-0.93007">
        <ele>193.5</ele>
        <time>2024-10-17T22:41:35.062Z</time>
      </trkpt>
      <trkpt lat="46.92805" lon="-0.93021">
        <ele>192.5</ele>
        <time>2024-10-17T22:41:36.043Z</time>
      </trkpt>
      <trkpt lat="46.92815" lon="-0.93046">
        <ele>190.9</ele>
        <time>2024-10-17T22:41:37.841Z</time>
      </trkpt>
      <trkpt lat="46.9282" lon="-0.93055">
        <ele>190.5</ele>
        <time>2024-10-17T22:41:38.640Z</time>
      </trkpt>
      <trkpt lat="46.92824" lon="-0.93063">
        <ele>190.1</ele>
        <time>2024-10-17T22:41:39.286Z</time>
      </trkpt>
      <trkpt lat="46.92835" lon="-0.93083">
        <ele>189</ele>
        <time>2024-10-17T22:41:40.919Z</time>
      </trkpt>
      <trkpt lat="46.92859" lon="-0.93128">
        <ele>186.8</ele>
        <time>2024-10-17T22:41:44.700Z</time>
      </trkpt>
      <trkpt lat="46.92859" lon="-0.93128">
        <ele>186.8</ele>
        <time>2024-10-17T22:41:44.700Z</time>
      </trkpt>
      <trkpt lat="46.92871" lon="-0.93155">
        <ele>185.9</ele>
        <time>2024-10-17T22:41:47.071Z</time>
      </trkpt>
      <trkpt lat="46.92878" lon="-0.93172">
        <ele>185.3</ele>
        <time>2024-10-17T22:41:48.498Z</time>
      </trkpt>
      <trkpt lat="46.92886" lon="-0.93194">
        <ele>185</ele>
        <time>2024-10-17T22:41:50.700Z</time>
      </trkpt>
      <trkpt lat="46.92891" lon="-0.93207">
        <ele>184.6</ele>
        <time>2024-10-17T22:41:51.811Z</time>
      </trkpt>
      <trkpt lat="46.92897" lon="-0.93222">
        <ele>184.3</ele>
        <time>2024-10-17T22:41:53.253Z</time>
      </trkpt>
      <trkpt lat="46.92905" lon="-0.93238">
        <ele>184</ele>
        <time>2024-10-17T22:41:54.940Z</time>
      </trkpt>
      <trkpt lat="46.92915" lon="-0.93254">
        <ele>183.9</ele>
        <time>2024-10-17T22:41:57.047Z</time>
      </trkpt>
      <trkpt lat="46.92921" lon="-0.93265">
        <ele>184.1</ele>
        <time>2024-10-17T22:41:58.847Z</time>
      </trkpt>
      <trkpt lat="46.92925" lon="-0.93274">
        <ele>184</ele>
        <time>2024-10-17T22:41:59.829Z</time>
      </trkpt>
      <trkpt lat="46.92927" lon="-0.93279">
        <ele>184</ele>
        <time>2024-10-17T22:42:00.429Z</time>
      </trkpt>
      <trkpt lat="46.9293" lon="-0.93292">
        <ele>183.8</ele>
        <time>2024-10-17T22:42:01.604Z</time>
      </trkpt>
      <trkpt lat="46.92932" lon="-0.93311">
        <ele>183.3</ele>
        <time>2024-10-17T22:42:03.048Z</time>
      </trkpt>
      <trkpt lat="46.92935" lon="-0.9335">
        <ele>181.9</ele>
        <time>2024-10-17T22:42:05.719Z</time>
      </trkpt>
      <trkpt lat="46.92938" lon="-0.93373">
        <ele>181</ele>
        <time>2024-10-17T22:42:07.271Z</time>
      </trkpt>
      <trkpt lat="46.92938" lon="-0.9339">
        <ele>180.4</ele>
        <time>2024-10-17T22:42:08.432Z</time>
      </trkpt>
      <trkpt lat="46.92939" lon="-0.93408">
        <ele>179.7</ele>
        <time>2024-10-17T22:42:09.625Z</time>
      </trkpt>
      <trkpt lat="46.92938" lon="-0.93425">
        <ele>179.1</ele>
        <time>2024-10-17T22:42:10.792Z</time>
      </trkpt>
      <trkpt lat="46.92935" lon="-0.93451">
        <ele>178</ele>
        <time>2024-10-17T22:42:12.486Z</time>
      </trkpt>
      <trkpt lat="46.92933" lon="-0.93462">
        <ele>177.5</ele>
        <time>2024-10-17T22:42:13.203Z</time>
      </trkpt>
      <trkpt lat="46.92931" lon="-0.93471">
        <ele>177.1</ele>
        <time>2024-10-17T22:42:13.809Z</time>
      </trkpt>
      <trkpt lat="46.92931" lon="-0.93471">
        <ele>177.1</ele>
        <time>2024-10-17T22:42:13.809Z</time>
      </trkpt>
      <trkpt lat="46.92928" lon="-0.9348">
        <ele>176.7</ele>
        <time>2024-10-17T22:42:14.463Z</time>
      </trkpt>
      <trkpt lat="46.92918" lon="-0.93526">
        <ele>174.2</ele>
        <time>2024-10-17T22:42:17.460Z</time>
      </trkpt>
      <trkpt lat="46.92911" lon="-0.93553">
        <ele>172.3</ele>
        <time>2024-10-17T22:42:19.253Z</time>
      </trkpt>
      <trkpt lat="46.92907" lon="-0.93573">
        <ele>172</ele>
        <time>2024-10-17T22:42:21.042Z</time>
      </trkpt>
      <trkpt lat="46.92904" lon="-0.93585">
        <ele>171.8</ele>
        <time>2024-10-17T22:42:22.122Z</time>
      </trkpt>
      <trkpt lat="46.92903" lon="-0.93595">
        <ele>171.8</ele>
        <time>2024-10-17T22:42:23.168Z</time>
      </trkpt>
      <trkpt lat="46.92902" lon="-0.93605">
        <ele>171.7</ele>
        <time>2024-10-17T22:42:24.085Z</time>
      </trkpt>
      <trkpt lat="46.92902" lon="-0.93614">
        <ele>171.6</ele>
        <time>2024-10-17T22:42:24.889Z</time>
      </trkpt>
      <trkpt lat="46.92903" lon="-0.93625">
        <ele>171.3</ele>
        <time>2024-10-17T22:42:25.714Z</time>
      </trkpt>
      <trkpt lat="46.92905" lon="-0.93638">
        <ele>171.1</ele>
        <time>2024-10-17T22:42:26.849Z</time>
      </trkpt>
      <trkpt lat="46.92907" lon="-0.93655">
        <ele>169.8</ele>
        <time>2024-10-17T22:42:27.920Z</time>
      </trkpt>
      <trkpt lat="46.92909" lon="-0.9367">
        <ele>168.8</ele>
        <time>2024-10-17T22:42:28.869Z</time>
      </trkpt>
      <trkpt lat="46.92909" lon="-0.93681">
        <ele>168.4</ele>
        <time>2024-10-17T22:42:29.612Z</time>
      </trkpt>
      <trkpt lat="46.9291" lon="-0.93692">
        <ele>168.1</ele>
        <time>2024-10-17T22:42:30.437Z</time>
      </trkpt>
      <trkpt lat="46.92909" lon="-0.93706">
        <ele>168.1</ele>
        <time>2024-10-17T22:42:31.894Z</time>
      </trkpt>
      <trkpt lat="46.92907" lon="-0.93717">
        <ele>167.9</ele>
        <time>2024-10-17T22:42:32.834Z</time>
      </trkpt>
      <trkpt lat="46.92903" lon="-0.93742">
        <ele>167.8</ele>
        <time>2024-10-17T22:42:35.354Z</time>
      </trkpt>
      <trkpt lat="46.929" lon="-0.93757">
        <ele>166.9</ele>
        <time>2024-10-17T22:42:36.324Z</time>
      </trkpt>
      <trkpt lat="46.92896" lon="-0.93777">
        <ele>165.3</ele>
        <time>2024-10-17T22:42:37.618Z</time>
      </trkpt>
      <trkpt lat="46.92894" lon="-0.93789">
        <ele>164.7</ele>
        <time>2024-10-17T22:42:38.385Z</time>
      </trkpt>
      <trkpt lat="46.92893" lon="-0.938">
        <ele>164.4</ele>
        <time>2024-10-17T22:42:39.210Z</time>
      </trkpt>
      <trkpt lat="46.92895" lon="-0.93819">
        <ele>165</ele>
        <time>2024-10-17T22:42:42.497Z</time>
      </trkpt>
      <trkpt lat="46.929" lon="-0.93834">
        <ele>165.3</ele>
        <time>2024-10-17T22:42:44.765Z</time>
      </trkpt>
      <trkpt lat="46.92905" lon="-0.93844">
        <ele>166.8</ele>
        <time>2024-10-17T22:42:50.261Z</time>
      </trkpt>
      <trkpt lat="46.92906" lon="-0.93845">
        <ele>166.8</ele>
        <time>2024-10-17T22:42:50.445Z</time>
      </trkpt>
      <trkpt lat="46.92915" lon="-0.93858">
        <ele>167.1</ele>
        <time>2024-10-17T22:42:52.889Z</time>
      </trkpt>
      <trkpt lat="46.92922" lon="-0.93869">
        <ele>168.9</ele>
        <time>2024-10-17T22:42:59.557Z</time>
      </trkpt>
      <trkpt lat="46.92931" lon="-0.93883">
        <ele>168.8</ele>
        <time>2024-10-17T22:43:01.411Z</time>
      </trkpt>
      <trkpt lat="46.92947" lon="-0.93907">
        <ele>165.9</ele>
        <time>2024-10-17T22:43:03.493Z</time>
      </trkpt>
      <trkpt lat="46.92957" lon="-0.93914">
        <ele>166.6</ele>
        <time>2024-10-17T22:43:06.973Z</time>
      </trkpt>
      <trkpt lat="46.92967" lon="-0.9392">
        <ele>167.5</ele>
        <time>2024-10-17T22:43:11.431Z</time>
      </trkpt>
      <trkpt lat="46.92982" lon="-0.93925">
        <ele>167.7</ele>
        <time>2024-10-17T22:43:14.083Z</time>
      </trkpt>
      <trkpt lat="46.92991" lon="-0.93931">
        <ele>168.2</ele>
        <time>2024-10-17T22:43:16.716Z</time>
      </trkpt>
      <trkpt lat="46.92998" lon="-0.93936">
        <ele>169</ele>
        <time>2024-10-17T22:43:20.829Z</time>
      </trkpt>
      <trkpt lat="46.93005" lon="-0.93942">
        <ele>169.4</ele>
        <time>2024-10-17T22:43:22.954Z</time>
      </trkpt>
      <trkpt lat="46.93013" lon="-0.93949">
        <ele>168.9</ele>
        <time>2024-10-17T22:43:23.874Z</time>
      </trkpt>
      <trkpt lat="46.93019" lon="-0.93956">
        <ele>169</ele>
        <time>2024-10-17T22:43:25.197Z</time>
      </trkpt>
      <trkpt lat="46.93026" lon="-0.93965">
        <ele>169.7</ele>
        <time>2024-10-17T22:43:28.637Z</time>
      </trkpt>
      <trkpt lat="46.93032" lon="-0.93976">
        <ele>169.9</ele>
        <time>2024-10-17T22:43:30.437Z</time>
      </trkpt>
      <trkpt lat="46.93041" lon="-0.93996">
        <ele>169.2</ele>
        <time>2024-10-17T22:43:32.177Z</time>
      </trkpt>
      <trkpt lat="46.93048" lon="-0.94012">
        <ele>169.3</ele>
        <time>2024-10-17T22:43:34.297Z</time>
      </trkpt>
      <trkpt lat="46.93051" lon="-0.94021">
        <ele>169.8</ele>
        <time>2024-10-17T22:43:36.753Z</time>
      </trkpt>
      <trkpt lat="46.93067" lon="-0.94057">
        <ele>170.5</ele>
        <time>2024-10-17T22:43:42.432Z</time>
      </trkpt>
      <trkpt lat="46.93071" lon="-0.9407">
        <ele>171.2</ele>
        <time>2024-10-17T22:43:45.872Z</time>
      </trkpt>
      <trkpt lat="46.93074" lon="-0.94083">
        <ele>172.3</ele>
        <time>2024-10-17T22:43:51.568Z</time>
      </trkpt>
      <trkpt lat="46.93075" lon="-0.94095">
        <ele>172.3</ele>
        <time>2024-10-17T22:43:52.819Z</time>
      </trkpt>
      <trkpt lat="46.93074" lon="-0.94109">
        <ele>172.3</ele>
        <time>2024-10-17T22:43:54.276Z</time>
      </trkpt>
      <trkpt lat="46.93067" lon="-0.94172">
        <ele>168.3</ele>
        <time>2024-10-17T22:43:58.239Z</time>
      </trkpt>
      <trkpt lat="46.93057" lon="-0.94256">
        <ele>157.9</ele>
        <time>2024-10-17T22:44:03.533Z</time>
      </trkpt>
      <trkpt lat="46.93048" lon="-0.94339">
        <ele>160.3</ele>
        <time>2024-10-17T22:44:17.229Z</time>
      </trkpt>
      <trkpt lat="46.93042" lon="-0.9439">
        <ele>161.4</ele>
        <time>2024-10-17T22:44:24.656Z</time>
      </trkpt>
      <trkpt lat="46.9304" lon="-0.94403">
        <ele>161.5</ele>
        <time>2024-10-17T22:44:26.193Z</time>
      </trkpt>
      <trkpt lat="46.93038" lon="-0.94413">
        <ele>161.6</ele>
        <time>2024-10-17T22:44:27.433Z</time>
      </trkpt>
      <trkpt lat="46.93036" lon="-0.94421">
        <ele>161.6</ele>
        <time>2024-10-17T22:44:28.315Z</time>
      </trkpt>
      <trkpt lat="46.93033" lon="-0.9443">
        <ele>161.6</ele>
        <time>2024-10-17T22:44:29.351Z</time>
      </trkpt>
      <trkpt lat="46.9303" lon="-0.94437">
        <ele>161.5</ele>
        <time>2024-10-17T22:44:30.080Z</time>
      </trkpt>
      <trkpt lat="46.93025" lon="-0.94446">
        <ele>161.3</ele>
        <time>2024-10-17T22:44:31.043Z</time>
      </trkpt>
      <trkpt lat="46.93021" lon="-0.94452">
        <ele>161.6</ele>
        <time>2024-10-17T22:44:32.603Z</time>
      </trkpt>
      <trkpt lat="46.93016" lon="-0.94458">
        <ele>161.8</ele>
        <time>2024-10-17T22:44:33.959Z</time>
      </trkpt>
      <trkpt lat="46.93011" lon="-0.94463">
        <ele>161.9</ele>
        <time>2024-10-17T22:44:35.042Z</time>
      </trkpt>
      <trkpt lat="46.93006" lon="-0.94468">
        <ele>162</ele>
        <time>2024-10-17T22:44:36.124Z</time>
      </trkpt>
      <trkpt lat="46.93001" lon="-0.94473">
        <ele>161.9</ele>
        <time>2024-10-17T22:44:36.915Z</time>
      </trkpt>
      <trkpt lat="46.92997" lon="-0.94476">
        <ele>162.3</ele>
        <time>2024-10-17T22:44:38.916Z</time>
      </trkpt>
      <trkpt lat="46.92992" lon="-0.94479">
        <ele>162.7</ele>
        <time>2024-10-17T22:44:40.882Z</time>
      </trkpt>
      <trkpt lat="46.92982" lon="-0.94484">
        <ele>163.4</ele>
        <time>2024-10-17T22:44:44.340Z</time>
      </trkpt>
      <trkpt lat="46.92963" lon="-0.94488">
        <ele>164.4</ele>
        <time>2024-10-17T22:44:49.552Z</time>
      </trkpt>
      <trkpt lat="46.9293" lon="-0.94489">
        <ele>166.8</ele>
        <time>2024-10-17T22:45:01.344Z</time>
      </trkpt>
      <trkpt lat="46.92907" lon="-0.9449">
        <ele>168.7</ele>
        <time>2024-10-17T22:45:10.746Z</time>
      </trkpt>
      <trkpt lat="46.92896" lon="-0.9449">
        <ele>169.5</ele>
        <time>2024-10-17T22:45:14.677Z</time>
      </trkpt>
      <trkpt lat="46.92887" lon="-0.94493">
        <ele>170.1</ele>
        <time>2024-10-17T22:45:17.648Z</time>
      </trkpt>
      <trkpt lat="46.92881" lon="-0.94497">
        <ele>170.5</ele>
        <time>2024-10-17T22:45:19.650Z</time>
      </trkpt>
      <trkpt lat="46.92875" lon="-0.94503">
        <ele>171.1</ele>
        <time>2024-10-17T22:45:22.620Z</time>
      </trkpt>
      <trkpt lat="46.92867" lon="-0.94516">
        <ele>172.2</ele>
        <time>2024-10-17T22:45:28.157Z</time>
      </trkpt>
      <trkpt lat="46.9285" lon="-0.94551">
        <ele>175.1</ele>
        <time>2024-10-17T22:45:42.962Z</time>
      </trkpt>
      <trkpt lat="46.92821" lon="-0.94614">
        <ele>182.6</ele>
        <time>2024-10-17T22:46:16.656Z</time>
      </trkpt>
      <trkpt lat="46.92805" lon="-0.94649">
        <ele>185.4</ele>
        <time>2024-10-17T22:46:30.907Z</time>
      </trkpt>
      <trkpt lat="46.92785" lon="-0.9469">
        <ele>188.3</ele>
        <time>2024-10-17T22:46:45.294Z</time>
      </trkpt>
      <trkpt lat="46.92753" lon="-0.94744">
        <ele>189.9</ele>
        <time>2024-10-17T22:46:55.753Z</time>
      </trkpt>
      <trkpt lat="46.92707" lon="-0.94831">
        <ele>191</ele>
        <time>2024-10-17T22:47:08.929Z</time>
      </trkpt>
      <trkpt lat="46.9268" lon="-0.94881">
        <ele>193.1</ele>
        <time>2024-10-17T22:47:20.181Z</time>
      </trkpt>
      <trkpt lat="46.9266" lon="-0.94918">
        <ele>196.9</ele>
        <time>2024-10-17T22:47:39.846Z</time>
      </trkpt>
      <trkpt lat="46.92645" lon="-0.94949">
        <ele>199.5</ele>
        <time>2024-10-17T22:47:53.153Z</time>
      </trkpt>
      <trkpt lat="46.92638" lon="-0.94963">
        <ele>201</ele>
        <time>2024-10-17T22:48:00.737Z</time>
      </trkpt>
      <trkpt lat="46.92629" lon="-0.94984">
        <ele>202.2</ele>
        <time>2024-10-17T22:48:06.637Z</time>
      </trkpt>
      <trkpt lat="46.92621" lon="-0.95007">
        <ele>203.3</ele>
        <time>2024-10-17T22:48:12.116Z</time>
      </trkpt>
      <trkpt lat="46.92611" lon="-0.95035">
        <ele>204.3</ele>
        <time>2024-10-17T22:48:17.562Z</time>
      </trkpt>
      <trkpt lat="46.92589" lon="-0.95101">
        <ele>206</ele>
        <time>2024-10-17T22:48:28.448Z</time>
      </trkpt>
      <trkpt lat="46.92558" lon="-0.95192">
        <ele>205.9</ele>
        <time>2024-10-17T22:48:38.829Z</time>
      </trkpt>
      <trkpt lat="46.92547" lon="-0.95223">
        <ele>205.4</ele>
        <time>2024-10-17T22:48:41.831Z</time>
      </trkpt>
      <trkpt lat="46.92542" lon="-0.95236">
        <ele>205.3</ele>
        <time>2024-10-17T22:48:43.241Z</time>
      </trkpt>
      <trkpt lat="46.92533" lon="-0.95256">
        <ele>205.4</ele>
        <time>2024-10-17T22:48:45.871Z</time>
      </trkpt>
      <trkpt lat="46.92525" lon="-0.95273">
        <ele>205.6</ele>
        <time>2024-10-17T22:48:48.332Z</time>
      </trkpt>
      <trkpt lat="46.92511" lon="-0.95295">
        <ele>205.5</ele>
        <time>2024-10-17T22:48:51.305Z</time>
      </trkpt>
      <trkpt lat="46.92499" lon="-0.95313">
        <ele>206.2</ele>
        <time>2024-10-17T22:48:55.352Z</time>
      </trkpt>
      <trkpt lat="46.92486" lon="-0.95329">
        <ele>206.3</ele>
        <time>2024-10-17T22:48:58.076Z</time>
      </trkpt>
      <trkpt lat="46.92466" lon="-0.95349">
        <ele>206.6</ele>
        <time>2024-10-17T22:49:02.225Z</time>
      </trkpt>
      <trkpt lat="46.92438" lon="-0.95375">
        <ele>206.8</ele>
        <time>2024-10-17T22:49:07.551Z</time>
      </trkpt>
      <trkpt lat="46.92417" lon="-0.95394">
        <ele>206</ele>
        <time>2024-10-17T22:49:10.386Z</time>
      </trkpt>
      <trkpt lat="46.92409" lon="-0.95401">
        <ele>206</ele>
        <time>2024-10-17T22:49:11.798Z</time>
      </trkpt>
      <trkpt lat="46.924" lon="-0.95412">
        <ele>206</ele>
        <time>2024-10-17T22:49:13.575Z</time>
      </trkpt>
      <trkpt lat="46.92399" lon="-0.95413">
        <ele>206</ele>
        <time>2024-10-17T22:49:13.758Z</time>
      </trkpt>
      <trkpt lat="46.92394" lon="-0.95423">
        <ele>206.2</ele>
        <time>2024-10-17T22:49:15.393Z</time>
      </trkpt>
      <trkpt lat="46.92389" lon="-0.95443">
        <ele>206.9</ele>
        <time>2024-10-17T22:49:19.147Z</time>
      </trkpt>
      <trkpt lat="46.92379" lon="-0.95477">
        <ele>207.9</ele>
        <time>2024-10-17T22:49:25.017Z</time>
      </trkpt>
      <trkpt lat="46.92368" lon="-0.95513">
        <ele>209.5</ele>
        <time>2024-10-17T22:49:33.062Z</time>
      </trkpt>
      <trkpt lat="46.92368" lon="-0.95513">
        <ele>209.5</ele>
        <time>2024-10-17T22:49:33.062Z</time>
      </trkpt>
      <trkpt lat="46.92363" lon="-0.95533">
        <ele>210</ele>
        <time>2024-10-17T22:49:36.237Z</time>
      </trkpt>
      <trkpt lat="46.92359" lon="-0.95545">
        <ele>209.9</ele>
        <time>2024-10-17T22:49:37.486Z</time>
      </trkpt>
      <trkpt lat="46.92348" lon="-0.95584">
        <ele>209.5</ele>
        <time>2024-10-17T22:49:41.335Z</time>
      </trkpt>
      <trkpt lat="46.92343" lon="-0.95606">
        <ele>209.3</ele>
        <time>2024-10-17T22:49:43.474Z</time>
      </trkpt>
      <trkpt lat="46.9234" lon="-0.95622">
        <ele>208.8</ele>
        <time>2024-10-17T22:49:44.668Z</time>
      </trkpt>
      <trkpt lat="46.92339" lon="-0.9564">
        <ele>208.2</ele>
        <time>2024-10-17T22:49:45.927Z</time>
      </trkpt>
      <trkpt lat="46.9234" lon="-0.95659">
        <ele>207.7</ele>
        <time>2024-10-17T22:49:47.355Z</time>
      </trkpt>
      <trkpt lat="46.92344" lon="-0.95697">
        <ele>206.6</ele>
        <time>2024-10-17T22:49:50.166Z</time>
      </trkpt>
      <trkpt lat="46.92349" lon="-0.95726">
        <ele>205.5</ele>
        <time>2024-10-17T22:49:52.180Z</time>
      </trkpt>
      <trkpt lat="46.92354" lon="-0.95757">
        <ele>204.7</ele>
        <time>2024-10-17T22:49:54.597Z</time>
      </trkpt>
      <trkpt lat="46.92359" lon="-0.95782">
        <ele>204.3</ele>
        <time>2024-10-17T22:49:56.808Z</time>
      </trkpt>
      <trkpt lat="46.92364" lon="-0.95807">
        <ele>203.4</ele>
        <time>2024-10-17T22:49:58.600Z</time>
      </trkpt>
      <trkpt lat="46.92368" lon="-0.95827">
        <ele>202.8</ele>
        <time>2024-10-17T22:50:00.121Z</time>
      </trkpt>
      <trkpt lat="46.9237" lon="-0.95837">
        <ele>202.5</ele>
        <time>2024-10-17T22:50:00.881Z</time>
      </trkpt>
      <trkpt lat="46.92372" lon="-0.95855">
        <ele>202</ele>
        <time>2024-10-17T22:50:02.231Z</time>
      </trkpt>
      <trkpt lat="46.92372" lon="-0.95855">
        <ele>202</ele>
        <time>2024-10-17T22:50:02.231Z</time>
      </trkpt>
      <trkpt lat="46.92371" lon="-0.95874">
        <ele>201.2</ele>
        <time>2024-10-17T22:50:03.453Z</time>
      </trkpt>
      <trkpt lat="46.92369" lon="-0.95886">
        <ele>200.7</ele>
        <time>2024-10-17T22:50:04.256Z</time>
      </trkpt>
      <trkpt lat="46.92365" lon="-0.95922">
        <ele>199.2</ele>
        <time>2024-10-17T22:50:06.613Z</time>
      </trkpt>
      <trkpt lat="46.92362" lon="-0.95956">
        <ele>198.6</ele>
        <time>2024-10-17T22:50:09.449Z</time>
      </trkpt>
      <trkpt lat="46.92359" lon="-0.9599">
        <ele>198</ele>
        <time>2024-10-17T22:50:12.284Z</time>
      </trkpt>
      <trkpt lat="46.92356" lon="-0.96018">
        <ele>197.7</ele>
        <time>2024-10-17T22:50:14.834Z</time>
      </trkpt>
      <trkpt lat="46.92353" lon="-0.96048">
        <ele>197.8</ele>
        <time>2024-10-17T22:50:18.121Z</time>
      </trkpt>
      <trkpt lat="46.92351" lon="-0.96071">
        <ele>198.1</ele>
        <time>2024-10-17T22:50:21.027Z</time>
      </trkpt>
      <trkpt lat="46.92348" lon="-0.96089">
        <ele>198.3</ele>
        <time>2024-10-17T22:50:23.274Z</time>
      </trkpt>
      <trkpt lat="46.92346" lon="-0.96101">
        <ele>198.3</ele>
        <time>2024-10-17T22:50:24.552Z</time>
      </trkpt>
      <trkpt lat="46.92343" lon="-0.96114">
        <ele>198.2</ele>
        <time>2024-10-17T22:50:25.839Z</time>
      </trkpt>
      <trkpt lat="46.92338" lon="-0.9613">
        <ele>198</ele>
        <time>2024-10-17T22:50:27.407Z</time>
      </trkpt>
      <trkpt lat="46.92329" lon="-0.96154">
        <ele>197.6</ele>
        <time>2024-10-17T22:50:29.751Z</time>
      </trkpt>
      <trkpt lat="46.9232" lon="-0.9618">
        <ele>197.2</ele>
        <time>2024-10-17T22:50:32.273Z</time>
      </trkpt>
      <trkpt lat="46.92312" lon="-0.962">
        <ele>197.5</ele>
        <time>2024-10-17T22:50:35.178Z</time>
      </trkpt>
      <trkpt lat="46.92309" lon="-0.96209">
        <ele>197.7</ele>
        <time>2024-10-17T22:50:36.585Z</time>
      </trkpt>
      <trkpt lat="46.923" lon="-0.96229">
        <ele>197.9</ele>
        <time>2024-10-17T22:50:39.382Z</time>
      </trkpt>
      <trkpt lat="46.9229" lon="-0.96254">
        <ele>198.1</ele>
        <time>2024-10-17T22:50:42.694Z</time>
      </trkpt>
      <trkpt lat="46.92285" lon="-0.96269">
        <ele>198.3</ele>
        <time>2024-10-17T22:50:44.755Z</time>
      </trkpt>
      <trkpt lat="46.9228" lon="-0.96277">
        <ele>198.8</ele>
        <time>2024-10-17T22:50:47.220Z</time>
      </trkpt>
      <trkpt lat="46.92278" lon="-0.96281">
        <ele>199.1</ele>
        <time>2024-10-17T22:50:48.720Z</time>
      </trkpt>
      <trkpt lat="46.92276" lon="-0.96282">
        <ele>199.3</ele>
        <time>2024-10-17T22:50:49.733Z</time>
      </trkpt>
      <trkpt lat="46.92272" lon="-0.96282">
        <ele>199.6</ele>
        <time>2024-10-17T22:50:51.207Z</time>
      </trkpt>
      <trkpt lat="46.92272" lon="-0.96282">
        <ele>199.6</ele>
        <time>2024-10-17T22:50:51.207Z</time>
      </trkpt>
      <trkpt lat="46.92272" lon="-0.96294">
        <ele>200</ele>
        <time>2024-10-17T22:50:53.341Z</time>
      </trkpt>
      <trkpt lat="46.9227" lon="-0.96306">
        <ele>200.6</ele>
        <time>2024-10-17T22:50:56.290Z</time>
      </trkpt>
      <trkpt lat="46.92267" lon="-0.96314">
        <ele>201.1</ele>
        <time>2024-10-17T22:50:58.757Z</time>
      </trkpt>
      <trkpt lat="46.92261" lon="-0.96325">
        <ele>201.9</ele>
        <time>2024-10-17T22:51:02.719Z</time>
      </trkpt>
      <trkpt lat="46.92252" lon="-0.96338">
        <ele>203</ele>
        <time>2024-10-17T22:51:08.202Z</time>
      </trkpt>
      <trkpt lat="46.92244" lon="-0.96351">
        <ele>204.1</ele>
        <time>2024-10-17T22:51:13.740Z</time>
      </trkpt>
      <trkpt lat="46.92236" lon="-0.96367">
        <ele>205</ele>
        <time>2024-10-17T22:51:18.185Z</time>
      </trkpt>
      <trkpt lat="46.92231" lon="-0.96377">
        <ele>205.4</ele>
        <time>2024-10-17T22:51:20.346Z</time>
      </trkpt>
      <trkpt lat="46.9222" lon="-0.96392">
        <ele>206</ele>
        <time>2024-10-17T22:51:23.851Z</time>
      </trkpt>
      <trkpt lat="46.92215" lon="-0.96401">
        <ele>206</ele>
        <time>2024-10-17T22:51:25.051Z</time>
      </trkpt>
      <trkpt lat="46.92208" lon="-0.96413">
        <ele>206</ele>
        <time>2024-10-17T22:51:26.685Z</time>
      </trkpt>
      <trkpt lat="46.92202" lon="-0.96426">
        <ele>205.9</ele>
        <time>2024-10-17T22:51:28.175Z</time>
      </trkpt>
      <trkpt lat="46.92198" lon="-0.96436">
        <ele>205.9</ele>
        <time>2024-10-17T22:51:29.374Z</time>
      </trkpt>
      <trkpt lat="46.92194" lon="-0.96449">
        <ele>206</ele>
        <time>2024-10-17T22:51:31.006Z</time>
      </trkpt>
      <trkpt lat="46.9219" lon="-0.96467">
        <ele>206</ele>
        <time>2024-10-17T22:51:32.965Z</time>
      </trkpt>
      <trkpt lat="46.92187" lon="-0.96481">
        <ele>206</ele>
        <time>2024-10-17T22:51:34.484Z</time>
      </trkpt>
      <trkpt lat="46.92185" lon="-0.96489">
        <ele>206</ele>
        <time>2024-10-17T22:51:35.365Z</time>
      </trkpt>
      <trkpt lat="46.92185" lon="-0.9649">
        <ele>206</ele>
        <time>2024-10-17T22:51:35.469Z</time>
      </trkpt>
      <trkpt lat="46.9218" lon="-0.9651">
        <ele>206</ele>
        <time>2024-10-17T22:51:37.673Z</time>
      </trkpt>
      <trkpt lat="46.92177" lon="-0.96525">
        <ele>206</ele>
        <time>2024-10-17T22:51:39.291Z</time>
      </trkpt>
      <trkpt lat="46.92176" lon="-0.96533">
        <ele>206.1</ele>
        <time>2024-10-17T22:51:40.300Z</time>
      </trkpt>
      <trkpt lat="46.92176" lon="-0.96544">
        <ele>206.4</ele>
        <time>2024-10-17T22:51:42.052Z</time>
      </trkpt>
      <trkpt lat="46.92177" lon="-0.96545">
        <ele>206.4</ele>
        <time>2024-10-17T22:51:42.236Z</time>
      </trkpt>
      <trkpt lat="46.92177" lon="-0.96556">
        <ele>206.6</ele>
        <time>2024-10-17T22:51:43.736Z</time>
      </trkpt>
      <trkpt lat="46.92178" lon="-0.96557">
        <ele>206.6</ele>
        <time>2024-10-17T22:51:43.919Z</time>
      </trkpt>
      <trkpt lat="46.9218" lon="-0.96572">
        <ele>206.5</ele>
        <time>2024-10-17T22:51:45.367Z</time>
      </trkpt>
      <trkpt lat="46.9218" lon="-0.96575">
        <ele>206.5</ele>
        <time>2024-10-17T22:51:45.678Z</time>
      </trkpt>
      <trkpt lat="46.9218" lon="-0.96575">
        <ele>206.5</ele>
        <time>2024-10-17T22:51:45.678Z</time>
      </trkpt>
      <trkpt lat="46.92175" lon="-0.96579">
        <ele>206.7</ele>
        <time>2024-10-17T22:51:46.932Z</time>
      </trkpt>
      <trkpt lat="46.92165" lon="-0.96589">
        <ele>207</ele>
        <time>2024-10-17T22:51:49.300Z</time>
      </trkpt>
      <trkpt lat="46.92161" lon="-0.96596">
        <ele>207</ele>
        <time>2024-10-17T22:51:50.245Z</time>
      </trkpt>
      <trkpt lat="46.92152" lon="-0.96609">
        <ele>207</ele>
        <time>2024-10-17T22:51:52.160Z</time>
      </trkpt>
      <trkpt lat="46.92126" lon="-0.96654">
        <ele>207</ele>
        <time>2024-10-17T22:51:58.261Z</time>
      </trkpt>
      <trkpt lat="46.92118" lon="-0.96669">
        <ele>207</ele>
        <time>2024-10-17T22:52:00.230Z</time>
      </trkpt>
      <trkpt lat="46.92111" lon="-0.9668">
        <ele>207</ele>
        <time>2024-10-17T22:52:01.786Z</time>
      </trkpt>
      <trkpt lat="46.92108" lon="-0.96687">
        <ele>207.1</ele>
        <time>2024-10-17T22:52:02.808Z</time>
      </trkpt>
      <trkpt lat="46.92104" lon="-0.96694">
        <ele>207.3</ele>
        <time>2024-10-17T22:52:04.133Z</time>
      </trkpt>
      <trkpt lat="46.92093" lon="-0.96713">
        <ele>207.9</ele>
        <time>2024-10-17T22:52:07.886Z</time>
      </trkpt>
      <trkpt lat="46.92089" lon="-0.96719">
        <ele>208</ele>
        <time>2024-10-17T22:52:08.920Z</time>
      </trkpt>
      <trkpt lat="46.92084" lon="-0.96728">
        <ele>208.2</ele>
        <time>2024-10-17T22:52:10.478Z</time>
      </trkpt>
      <trkpt lat="46.92078" lon="-0.96736">
        <ele>208.5</ele>
        <time>2024-10-17T22:52:12.304Z</time>
      </trkpt>
      <trkpt lat="46.92065" lon="-0.9675">
        <ele>209</ele>
        <time>2024-10-17T22:52:15.690Z</time>
      </trkpt>
      <trkpt lat="46.92051" lon="-0.96764">
        <ele>209.5</ele>
        <time>2024-10-17T22:52:19.187Z</time>
      </trkpt>
      <trkpt lat="46.92037" lon="-0.9678">
        <ele>210</ele>
        <time>2024-10-17T22:52:22.795Z</time>
      </trkpt>
      <trkpt lat="46.92021" lon="-0.96798">
        <ele>209.9</ele>
        <time>2024-10-17T22:52:25.714Z</time>
      </trkpt>
      <trkpt lat="46.92017" lon="-0.96802">
        <ele>210</ele>
        <time>2024-10-17T22:52:26.619Z</time>
      </trkpt>
      <trkpt lat="46.92001" lon="-0.96822">
        <ele>210</ele>
        <time>2024-10-17T22:52:29.807Z</time>
      </trkpt>
      <trkpt lat="46.91999" lon="-0.96824">
        <ele>210</ele>
        <time>2024-10-17T22:52:30.174Z</time>
      </trkpt>
      <trkpt lat="46.9198" lon="-0.96846">
        <ele>209.7</ele>
        <time>2024-10-17T22:52:33.452Z</time>
      </trkpt>
      <trkpt lat="46.91966" lon="-0.96864">
        <ele>209</ele>
        <time>2024-10-17T22:52:35.510Z</time>
      </trkpt>
      <trkpt lat="46.9196" lon="-0.96872">
        <ele>209.2</ele>
        <time>2024-10-17T22:52:37.095Z</time>
      </trkpt>
      <trkpt lat="46.9196" lon="-0.96872">
        <ele>209.2</ele>
        <time>2024-10-17T22:52:37.095Z</time>
      </trkpt>
      <trkpt lat="46.9194" lon="-0.96859">
        <ele>209</ele>
        <time>2024-10-17T22:52:40.143Z</time>
      </trkpt>
      <trkpt lat="46.91931" lon="-0.96853">
        <ele>208.7</ele>
        <time>2024-10-17T22:52:41.297Z</time>
      </trkpt>
      <trkpt lat="46.91921" lon="-0.96845">
        <ele>208</ele>
        <time>2024-10-17T22:52:42.367Z</time>
      </trkpt>
      <trkpt lat="46.91913" lon="-0.9684">
        <ele>207.5</ele>
        <time>2024-10-17T22:52:43.204Z</time>
      </trkpt>
      <trkpt lat="46.91909" lon="-0.96838">
        <ele>207.3</ele>
        <time>2024-10-17T22:52:43.640Z</time>
      </trkpt>
      <trkpt lat="46.91902" lon="-0.96836">
        <ele>207.2</ele>
        <time>2024-10-17T22:52:44.591Z</time>
      </trkpt>
      <trkpt lat="46.91895" lon="-0.96834">
        <ele>207</ele>
        <time>2024-10-17T22:52:45.439Z</time>
      </trkpt>
      <trkpt lat="46.91886" lon="-0.96832">
        <ele>207</ele>
        <time>2024-10-17T22:52:46.818Z</time>
      </trkpt>
      <trkpt lat="46.91877" lon="-0.96832">
        <ele>207.4</ele>
        <time>2024-10-17T22:52:49.036Z</time>
      </trkpt>
      <trkpt lat="46.91871" lon="-0.96832">
        <ele>207.6</ele>
        <time>2024-10-17T22:52:50.330Z</time>
      </trkpt>
      <trkpt lat="46.91856" lon="-0.96833">
        <ele>208.2</ele>
        <time>2024-10-17T22:52:53.833Z</time>
      </trkpt>
      <trkpt lat="46.91838" lon="-0.96836">
        <ele>208.8</ele>
        <time>2024-10-17T22:52:57.730Z</time>
      </trkpt>
      <trkpt lat="46.91832" lon="-0.96837">
        <ele>209.1</ele>
        <time>2024-10-17T22:52:59.320Z</time>
      </trkpt>
      <trkpt lat="46.91822" lon="-0.96837">
        <ele>210.2</ele>
        <time>2024-10-17T22:53:05.024Z</time>
      </trkpt>
      <trkpt lat="46.91808" lon="-0.96837">
        <ele>211.7</ele>
        <time>2024-10-17T22:53:12.784Z</time>
      </trkpt>
      <trkpt lat="46.91794" lon="-0.96838">
        <ele>212.9</ele>
        <time>2024-10-17T22:53:18.751Z</time>
      </trkpt>
      <trkpt lat="46.91784" lon="-0.96837">
        <ele>213.7</ele>
        <time>2024-10-17T22:53:22.696Z</time>
      </trkpt>
      <trkpt lat="46.91774" lon="-0.96837">
        <ele>214.4</ele>
        <time>2024-10-17T22:53:26.139Z</time>
      </trkpt>
      <trkpt lat="46.91764" lon="-0.96836">
        <ele>215.1</ele>
        <time>2024-10-17T22:53:29.583Z</time>
      </trkpt>
      <trkpt lat="46.91756" lon="-0.96835">
        <ele>215.6</ele>
        <time>2024-10-17T22:53:32.074Z</time>
      </trkpt>
      <trkpt lat="46.91749" lon="-0.96834">
        <ele>216</ele>
        <time>2024-10-17T22:53:34.106Z</time>
      </trkpt>
      <trkpt lat="46.91742" lon="-0.96833">
        <ele>215.7</ele>
        <time>2024-10-17T22:53:34.855Z</time>
      </trkpt>
      <trkpt lat="46.91735" lon="-0.96832">
        <ele>215.4</ele>
        <time>2024-10-17T22:53:35.604Z</time>
      </trkpt>
      <trkpt lat="46.91729" lon="-0.96831">
        <ele>215.2</ele>
        <time>2024-10-17T22:53:36.293Z</time>
      </trkpt>
      <trkpt lat="46.91726" lon="-0.96831">
        <ele>215.1</ele>
        <time>2024-10-17T22:53:36.635Z</time>
      </trkpt>
      <trkpt lat="46.91722" lon="-0.9683">
        <ele>215</ele>
        <time>2024-10-17T22:53:37.131Z</time>
      </trkpt>
      <trkpt lat="46.91717" lon="-0.9683">
        <ele>215.7</ele>
        <time>2024-10-17T22:53:40.378Z</time>
      </trkpt>
      <trkpt lat="46.91714" lon="-0.9683">
        <ele>216.1</ele>
        <time>2024-10-17T22:53:42.326Z</time>
      </trkpt>
      <trkpt lat="46.91704" lon="-0.96829">
        <ele>217.3</ele>
        <time>2024-10-17T22:53:48.518Z</time>
      </trkpt>
      <trkpt lat="46.91697" lon="-0.96829">
        <ele>218.2</ele>
        <time>2024-10-17T22:53:53.027Z</time>
      </trkpt>
      <trkpt lat="46.9169" lon="-0.96828">
        <ele>218.6</ele>
        <time>2024-10-17T22:53:55.059Z</time>
      </trkpt>
      <trkpt lat="46.91681" lon="-0.96828">
        <ele>219.1</ele>
        <time>2024-10-17T22:53:57.614Z</time>
      </trkpt>
      <trkpt lat="46.91672" lon="-0.96828">
        <ele>219.5</ele>
        <time>2024-10-17T22:53:59.833Z</time>
      </trkpt>
      <trkpt lat="46.91663" lon="-0.96828">
        <ele>219.8</ele>
        <time>2024-10-17T22:54:01.773Z</time>
      </trkpt>
      <trkpt lat="46.91653" lon="-0.96829">
        <ele>219.9</ele>
        <time>2024-10-17T22:54:03.449Z</time>
      </trkpt>
      <trkpt lat="46.91643" lon="-0.96828">
        <ele>220</ele>
        <time>2024-10-17T22:54:05.124Z</time>
      </trkpt>
      <trkpt lat="46.91633" lon="-0.96827">
        <ele>220</ele>
        <time>2024-10-17T22:54:06.643Z</time>
      </trkpt>
      <trkpt lat="46.91615" lon="-0.96824">
        <ele>220</ele>
        <time>2024-10-17T22:54:09.388Z</time>
      </trkpt>
      <trkpt lat="46.91602" lon="-0.96824">
        <ele>220</ele>
        <time>2024-10-17T22:54:11.357Z</time>
      </trkpt>
      <trkpt lat="46.91597" lon="-0.96823">
        <ele>220</ele>
        <time>2024-10-17T22:54:12.122Z</time>
      </trkpt>
      <trkpt lat="46.91573" lon="-0.96822">
        <ele>219.8</ele>
        <time>2024-10-17T22:54:15.490Z</time>
      </trkpt>
      <trkpt lat="46.91554" lon="-0.96819">
        <ele>219.4</ele>
        <time>2024-10-17T22:54:17.895Z</time>
      </trkpt>
      <trkpt lat="46.91535" lon="-0.96816">
        <ele>218.6</ele>
        <time>2024-10-17T22:54:19.941Z</time>
      </trkpt>
      <trkpt lat="46.91535" lon="-0.96816">
        <ele>218.6</ele>
        <time>2024-10-17T22:54:19.941Z</time>
      </trkpt>
      <trkpt lat="46.91509" lon="-0.96811">
        <ele>217.5</ele>
        <time>2024-10-17T22:54:22.747Z</time>
      </trkpt>
      <trkpt lat="46.91492" lon="-0.96809">
        <ele>216.8</ele>
        <time>2024-10-17T22:54:24.583Z</time>
      </trkpt>
      <trkpt lat="46.91477" lon="-0.96806">
        <ele>216.2</ele>
        <time>2024-10-17T22:54:26.230Z</time>
      </trkpt>
      <trkpt lat="46.91469" lon="-0.96804">
        <ele>215.9</ele>
        <time>2024-10-17T22:54:27.131Z</time>
      </trkpt>
      <trkpt lat="46.91462" lon="-0.96803">
        <ele>215.9</ele>
        <time>2024-10-17T22:54:28.197Z</time>
      </trkpt>
      <trkpt lat="46.91442" lon="-0.96802">
        <ele>215.9</ele>
        <time>2024-10-17T22:54:31.229Z</time>
      </trkpt>
      <trkpt lat="46.9143" lon="-0.96801">
        <ele>215.9</ele>
        <time>2024-10-17T22:54:33.050Z</time>
      </trkpt>
      <trkpt lat="46.91421" lon="-0.96802">
        <ele>216</ele>
        <time>2024-10-17T22:54:34.576Z</time>
      </trkpt>
      <trkpt lat="46.91414" lon="-0.96804">
        <ele>216</ele>
        <time>2024-10-17T22:54:35.656Z</time>
      </trkpt>
      <trkpt lat="46.91405" lon="-0.96807">
        <ele>216</ele>
        <time>2024-10-17T22:54:37.055Z</time>
      </trkpt>
      <trkpt lat="46.91397" lon="-0.96811">
        <ele>216</ele>
        <time>2024-10-17T22:54:38.336Z</time>
      </trkpt>
      <trkpt lat="46.91377" lon="-0.96823">
        <ele>215.8</ele>
        <time>2024-10-17T22:54:41.343Z</time>
      </trkpt>
      <trkpt lat="46.91364" lon="-0.96833">
        <ele>216</ele>
        <time>2024-10-17T22:54:43.891Z</time>
      </trkpt>
      <trkpt lat="46.91349" lon="-0.96844">
        <ele>215.7</ele>
        <time>2024-10-17T22:54:46.056Z</time>
      </trkpt>
      <trkpt lat="46.91296" lon="-0.96888">
        <ele>215.6</ele>
        <time>2024-10-17T22:54:55.147Z</time>
      </trkpt>
      <trkpt lat="46.91278" lon="-0.96903">
        <ele>215.5</ele>
        <time>2024-10-17T22:54:58.146Z</time>
      </trkpt>
      <trkpt lat="46.91273" lon="-0.96907">
        <ele>215.7</ele>
        <time>2024-10-17T22:54:59.401Z</time>
      </trkpt>
      <trkpt lat="46.91268" lon="-0.9691">
        <ele>215.8</ele>
        <time>2024-10-17T22:55:00.388Z</time>
      </trkpt>
      <trkpt lat="46.91263" lon="-0.96913">
        <ele>215.9</ele>
        <time>2024-10-17T22:55:01.375Z</time>
      </trkpt>
      <trkpt lat="46.91258" lon="-0.96915">
        <ele>215.9</ele>
        <time>2024-10-17T22:55:02.160Z</time>
      </trkpt>
      <trkpt lat="46.91253" lon="-0.96916">
        <ele>216</ele>
        <time>2024-10-17T22:55:03.095Z</time>
      </trkpt>
      <trkpt lat="46.91247" lon="-0.96916">
        <ele>216</ele>
        <time>2024-10-17T22:55:04.004Z</time>
      </trkpt>
      <trkpt lat="46.91241" lon="-0.96916">
        <ele>216</ele>
        <time>2024-10-17T22:55:04.913Z</time>
      </trkpt>
      <trkpt lat="46.91234" lon="-0.96915">
        <ele>215.9</ele>
        <time>2024-10-17T22:55:05.850Z</time>
      </trkpt>
      <trkpt lat="46.91227" lon="-0.96913">
        <ele>215.9</ele>
        <time>2024-10-17T22:55:06.931Z</time>
      </trkpt>
      <trkpt lat="46.91216" lon="-0.96908">
        <ele>215.7</ele>
        <time>2024-10-17T22:55:08.424Z</time>
      </trkpt>
      <trkpt lat="46.91182" lon="-0.9689">
        <ele>215.5</ele>
        <time>2024-10-17T22:55:13.626Z</time>
      </trkpt>
      <trkpt lat="46.9112" lon="-0.96856">
        <ele>214.6</ele>
        <time>2024-10-17T22:55:22.492Z</time>
      </trkpt>
      <trkpt lat="46.91091" lon="-0.96838">
        <ele>214.7</ele>
        <time>2024-10-17T22:55:27.413Z</time>
      </trkpt>
      <trkpt lat="46.91072" lon="-0.96826">
        <ele>215</ele>
        <time>2024-10-17T22:55:31.035Z</time>
      </trkpt>
      <trkpt lat="46.91057" lon="-0.96814">
        <ele>215.2</ele>
        <time>2024-10-17T22:55:33.943Z</time>
      </trkpt>
      <trkpt lat="46.91031" lon="-0.96795">
        <ele>214.6</ele>
        <time>2024-10-17T22:55:37.608Z</time>
      </trkpt>
      <trkpt lat="46.91006" lon="-0.96774">
        <ele>213.8</ele>
        <time>2024-10-17T22:55:41.040Z</time>
      </trkpt>
      <trkpt lat="46.90987" lon="-0.96758">
        <ele>213.3</ele>
        <time>2024-10-17T22:55:43.755Z</time>
      </trkpt>
      <trkpt lat="46.90972" lon="-0.96745">
        <ele>212.6</ele>
        <time>2024-10-17T22:55:45.645Z</time>
      </trkpt>
      <trkpt lat="46.90959" lon="-0.96732">
        <ele>212</ele>
        <time>2024-10-17T22:55:47.377Z</time>
      </trkpt>
      <trkpt lat="46.90948" lon="-0.96722">
        <ele>211.9</ele>
        <time>2024-10-17T22:55:49.204Z</time>
      </trkpt>
      <trkpt lat="46.90942" lon="-0.96717">
        <ele>211.4</ele>
        <time>2024-10-17T22:55:49.831Z</time>
      </trkpt>
      <trkpt lat="46.90936" lon="-0.96713">
        <ele>211</ele>
        <time>2024-10-17T22:55:50.453Z</time>
      </trkpt>
      <trkpt lat="46.90926" lon="-0.96709">
        <ele>210.6</ele>
        <time>2024-10-17T22:55:51.590Z</time>
      </trkpt>
      <trkpt lat="46.90918" lon="-0.96707">
        <ele>210.4</ele>
        <time>2024-10-17T22:55:52.580Z</time>
      </trkpt>
      <trkpt lat="46.90898" lon="-0.96703">
        <ele>209.7</ele>
        <time>2024-10-17T22:55:54.859Z</time>
      </trkpt>
      <trkpt lat="46.9089" lon="-0.96702">
        <ele>209.6</ele>
        <time>2024-10-17T22:55:55.945Z</time>
      </trkpt>
      <trkpt lat="46.90881" lon="-0.96703">
        <ele>210.1</ele>
        <time>2024-10-17T22:55:58.502Z</time>
      </trkpt>
      <trkpt lat="46.90871" lon="-0.96705">
        <ele>210.8</ele>
        <time>2024-10-17T22:56:01.947Z</time>
      </trkpt>
      <trkpt lat="46.90865" lon="-0.96707">
        <ele>211.2</ele>
        <time>2024-10-17T22:56:03.928Z</time>
      </trkpt>
      <trkpt lat="46.90855" lon="-0.96711">
        <ele>211.7</ele>
        <time>2024-10-17T22:56:06.607Z</time>
      </trkpt>
      <trkpt lat="46.90843" lon="-0.96718">
        <ele>211.9</ele>
        <time>2024-10-17T22:56:08.892Z</time>
      </trkpt>
      <trkpt lat="46.90833" lon="-0.96724">
        <ele>212</ele>
        <time>2024-10-17T22:56:10.685Z</time>
      </trkpt>
      <trkpt lat="46.90815" lon="-0.96736">
        <ele>212</ele>
        <time>2024-10-17T22:56:13.682Z</time>
      </trkpt>
      <trkpt lat="46.90784" lon="-0.96761">
        <ele>211.1</ele>
        <time>2024-10-17T22:56:17.975Z</time>
      </trkpt>
      <trkpt lat="46.90742" lon="-0.96794">
        <ele>208.8</ele>
        <time>2024-10-17T22:56:22.855Z</time>
      </trkpt>
      <trkpt lat="46.90728" lon="-0.96805">
        <ele>207.4</ele>
        <time>2024-10-17T22:56:24.300Z</time>
      </trkpt>
      <trkpt lat="46.90723" lon="-0.96809">
        <ele>207.1</ele>
        <time>2024-10-17T22:56:24.866Z</time>
      </trkpt>
      <trkpt lat="46.90718" lon="-0.96813">
        <ele>206.8</ele>
        <time>2024-10-17T22:56:25.432Z</time>
      </trkpt>
      <trkpt lat="46.90713" lon="-0.96817">
        <ele>206.7</ele>
        <time>2024-10-17T22:56:26.170Z</time>
      </trkpt>
      <trkpt lat="46.90707" lon="-0.96819">
        <ele>206.5</ele>
        <time>2024-10-17T22:56:26.876Z</time>
      </trkpt>
      <trkpt lat="46.90698" lon="-0.96822">
        <ele>206.1</ele>
        <time>2024-10-17T22:56:27.854Z</time>
      </trkpt>
      <trkpt lat="46.90678" lon="-0.96826">
        <ele>205</ele>
        <time>2024-10-17T22:56:29.836Z</time>
      </trkpt>
      <trkpt lat="46.90672" lon="-0.96827">
        <ele>204.6</ele>
        <time>2024-10-17T22:56:30.386Z</time>
      </trkpt>
      <trkpt lat="46.90632" lon="-0.96837">
        <ele>202.5</ele>
        <time>2024-10-17T22:56:34.443Z</time>
      </trkpt>
      <trkpt lat="46.90599" lon="-0.96844">
        <ele>200.5</ele>
        <time>2024-10-17T22:56:37.603Z</time>
      </trkpt>
      <trkpt lat="46.9059" lon="-0.96846">
        <ele>199.9</ele>
        <time>2024-10-17T22:56:38.435Z</time>
      </trkpt>
      <trkpt lat="46.90583" lon="-0.96848">
        <ele>199.5</ele>
        <time>2024-10-17T22:56:39.127Z</time>
      </trkpt>
      <trkpt lat="46.90576" lon="-0.96851">
        <ele>198.9</ele>
        <time>2024-10-17T22:56:39.791Z</time>
      </trkpt>
      <trkpt lat="46.90568" lon="-0.96854">
        <ele>198.2</ele>
        <time>2024-10-17T22:56:40.541Z</time>
      </trkpt>
      <trkpt lat="46.90554" lon="-0.96861">
        <ele>197</ele>
        <time>2024-10-17T22:56:41.886Z</time>
      </trkpt>
      <trkpt lat="46.90539" lon="-0.9687">
        <ele>196.9</ele>
        <time>2024-10-17T22:56:44.206Z</time>
      </trkpt>
      <trkpt lat="46.9053" lon="-0.96876">
        <ele>197</ele>
        <time>2024-10-17T22:56:45.861Z</time>
      </trkpt>
      <trkpt lat="46.90513" lon="-0.9689">
        <ele>197.6</ele>
        <time>2024-10-17T22:56:49.943Z</time>
      </trkpt>
      <trkpt lat="46.90509" lon="-0.96893">
        <ele>197.8</ele>
        <time>2024-10-17T22:56:51.052Z</time>
      </trkpt>
      <trkpt lat="46.90505" lon="-0.96895">
        <ele>198</ele>
        <time>2024-10-17T22:56:52.132Z</time>
      </trkpt>
      <trkpt lat="46.905" lon="-0.96898">
        <ele>198.3</ele>
        <time>2024-10-17T22:56:53.665Z</time>
      </trkpt>
      <trkpt lat="46.90488" lon="-0.96902">
        <ele>198.9</ele>
        <time>2024-10-17T22:56:56.867Z</time>
      </trkpt>
      <trkpt lat="46.90459" lon="-0.9691">
        <ele>199.9</ele>
        <time>2024-10-17T22:57:03.272Z</time>
      </trkpt>
      <trkpt lat="46.90423" lon="-0.96921">
        <ele>201</ele>
        <time>2024-10-17T22:57:10.894Z</time>
      </trkpt>
      <trkpt lat="46.90395" lon="-0.96929">
        <ele>201.4</ele>
        <time>2024-10-17T22:57:15.864Z</time>
      </trkpt>
      <trkpt lat="46.90361" lon="-0.96941">
        <ele>201.9</ele>
        <time>2024-10-17T22:57:21.974Z</time>
      </trkpt>
      <trkpt lat="46.90336" lon="-0.96949">
        <ele>202.2</ele>
        <time>2024-10-17T22:57:26.328Z</time>
      </trkpt>
      <trkpt lat="46.90317" lon="-0.96956">
        <ele>202.4</ele>
        <time>2024-10-17T22:57:29.610Z</time>
      </trkpt>
      <trkpt lat="46.90301" lon="-0.96962">
        <ele>202.5</ele>
        <time>2024-10-17T22:57:32.264Z</time>
      </trkpt>
      <trkpt lat="46.90291" lon="-0.96965">
        <ele>202.2</ele>
        <time>2024-10-17T22:57:33.464Z</time>
      </trkpt>
      <trkpt lat="46.90287" lon="-0.96966">
        <ele>202.1</ele>
        <time>2024-10-17T22:57:33.959Z</time>
      </trkpt>
      <trkpt lat="46.90281" lon="-0.96966">
        <ele>201.9</ele>
        <time>2024-10-17T22:57:34.643Z</time>
      </trkpt>
      <trkpt lat="46.90276" lon="-0.96966">
        <ele>201.6</ele>
        <time>2024-10-17T22:57:35.117Z</time>
      </trkpt>
      <trkpt lat="46.90272" lon="-0.96965">
        <ele>201.3</ele>
        <time>2024-10-17T22:57:35.486Z</time>
      </trkpt>
      <trkpt lat="46.90263" lon="-0.96961">
        <ele>200.5</ele>
        <time>2024-10-17T22:57:36.341Z</time>
      </trkpt>
      <trkpt lat="46.90252" lon="-0.96954">
        <ele>199.5</ele>
        <time>2024-10-17T22:57:37.432Z</time>
      </trkpt>
      <trkpt lat="46.90244" lon="-0.96948">
        <ele>198.5</ele>
        <time>2024-10-17T22:57:38.249Z</time>
      </trkpt>
      <trkpt lat="46.90226" lon="-0.96934">
        <ele>196</ele>
        <time>2024-10-17T22:57:40.102Z</time>
      </trkpt>
      <trkpt lat="46.90206" lon="-0.96917">
        <ele>195</ele>
        <time>2024-10-17T22:57:42.554Z</time>
      </trkpt>
      <trkpt lat="46.90183" lon="-0.96899">
        <ele>196.2</ele>
        <time>2024-10-17T22:57:49.110Z</time>
      </trkpt>
      <trkpt lat="46.90167" lon="-0.96885">
        <ele>198</ele>
        <time>2024-10-17T22:57:58.257Z</time>
      </trkpt>
      <trkpt lat="46.90147" lon="-0.96866">
        <ele>198.2</ele>
        <time>2024-10-17T22:58:02.178Z</time>
      </trkpt>
      <trkpt lat="46.90105" lon="-0.96819">
        <ele>196.3</ele>
        <time>2024-10-17T22:58:08.090Z</time>
      </trkpt>
      <trkpt lat="46.9008" lon="-0.96792">
        <ele>194</ele>
        <time>2024-10-17T22:58:10.914Z</time>
      </trkpt>
      <trkpt lat="46.90068" lon="-0.96779">
        <ele>193.6</ele>
        <time>2024-10-17T22:58:12.705Z</time>
      </trkpt>
      <trkpt lat="46.9006" lon="-0.96772">
        <ele>193.8</ele>
        <time>2024-10-17T22:58:14.463Z</time>
      </trkpt>
      <trkpt lat="46.90043" lon="-0.96757">
        <ele>194.3</ele>
        <time>2024-10-17T22:58:18.363Z</time>
      </trkpt>
      <trkpt lat="46.90039" lon="-0.96753">
        <ele>194.5</ele>
        <time>2024-10-17T22:58:19.512Z</time>
      </trkpt>
      <trkpt lat="46.90029" lon="-0.96745">
        <ele>195.1</ele>
        <time>2024-10-17T22:58:22.628Z</time>
      </trkpt>
      <trkpt lat="46.90009" lon="-0.9673">
        <ele>195.7</ele>
        <time>2024-10-17T22:58:27.119Z</time>
      </trkpt>
      <trkpt lat="46.8999" lon="-0.96717">
        <ele>196.7</ele>
        <time>2024-10-17T22:58:32.503Z</time>
      </trkpt>
      <trkpt lat="46.89973" lon="-0.96705">
        <ele>197.6</ele>
        <time>2024-10-17T22:58:37.347Z</time>
      </trkpt>
      <trkpt lat="46.89957" lon="-0.96696">
        <ele>198</ele>
        <time>2024-10-17T22:58:40.647Z</time>
      </trkpt>
      <trkpt lat="46.89943" lon="-0.96689">
        <ele>198.4</ele>
        <time>2024-10-17T22:58:43.614Z</time>
      </trkpt>
      <trkpt lat="46.89929" lon="-0.96684">
        <ele>199.1</ele>
        <time>2024-10-17T22:58:47.355Z</time>
      </trkpt>
      <trkpt lat="46.89914" lon="-0.96677">
        <ele>199.7</ele>
        <time>2024-10-17T22:58:50.948Z</time>
      </trkpt>
      <trkpt lat="46.89906" lon="-0.96671">
        <ele>200.2</ele>
        <time>2024-10-17T22:58:53.502Z</time>
      </trkpt>
      <trkpt lat="46.89894" lon="-0.96662">
        <ele>200.8</ele>
        <time>2024-10-17T22:58:56.828Z</time>
      </trkpt>
      <trkpt lat="46.89873" lon="-0.96645">
        <ele>202.3</ele>
        <time>2024-10-17T22:59:04.298Z</time>
      </trkpt>
      <trkpt lat="46.89852" lon="-0.96623">
        <ele>203.8</ele>
        <time>2024-10-17T22:59:11.878Z</time>
      </trkpt>
      <trkpt lat="46.89833" lon="-0.96603">
        <ele>205</ele>
        <time>2024-10-17T22:59:18.166Z</time>
      </trkpt>
      <trkpt lat="46.89819" lon="-0.9659">
        <ele>206.2</ele>
        <time>2024-10-17T22:59:24.062Z</time>
      </trkpt>
      <trkpt lat="46.89815" lon="-0.96587">
        <ele>206.4</ele>
        <time>2024-10-17T22:59:25.171Z</time>
      </trkpt>
      <trkpt lat="46.89812" lon="-0.96585">
        <ele>206.6</ele>
        <time>2024-10-17T22:59:26.172Z</time>
      </trkpt>
      <trkpt lat="46.89807" lon="-0.96582">
        <ele>206.9</ele>
        <time>2024-10-17T22:59:27.706Z</time>
      </trkpt>
      <trkpt lat="46.89799" lon="-0.96579">
        <ele>207.4</ele>
        <time>2024-10-17T22:59:30.210Z</time>
      </trkpt>
      <trkpt lat="46.89794" lon="-0.96579">
        <ele>207.7</ele>
        <time>2024-10-17T22:59:31.715Z</time>
      </trkpt>
      <trkpt lat="46.89789" lon="-0.9658">
        <ele>208</ele>
        <time>2024-10-17T22:59:33.223Z</time>
      </trkpt>
      <trkpt lat="46.89784" lon="-0.9658">
        <ele>208.4</ele>
        <time>2024-10-17T22:59:35.196Z</time>
      </trkpt>
      <trkpt lat="46.89777" lon="-0.96583">
        <ele>209</ele>
        <time>2024-10-17T22:59:38.164Z</time>
      </trkpt>
      <trkpt lat="46.89769" lon="-0.96589">
        <ele>209.6</ele>
        <time>2024-10-17T22:59:41.126Z</time>
      </trkpt>
      <trkpt lat="46.89748" lon="-0.96602">
        <ele>211.4</ele>
        <time>2024-10-17T22:59:49.994Z</time>
      </trkpt>
      <trkpt lat="46.89727" lon="-0.96612">
        <ele>212.9</ele>
        <time>2024-10-17T22:59:57.387Z</time>
      </trkpt>
      <trkpt lat="46.89712" lon="-0.96617">
        <ele>213.4</ele>
        <time>2024-10-17T23:00:00.673Z</time>
      </trkpt>
      <trkpt lat="46.89695" lon="-0.96624">
        <ele>213.9</ele>
        <time>2024-10-17T23:00:04.267Z</time>
      </trkpt>
      <trkpt lat="46.89672" lon="-0.96631">
        <ele>213.9</ele>
        <time>2024-10-17T23:00:07.826Z</time>
      </trkpt>
      <trkpt lat="46.89656" lon="-0.96636">
        <ele>213.9</ele>
        <time>2024-10-17T23:00:10.305Z</time>
      </trkpt>
      <trkpt lat="46.89645" lon="-0.96642">
        <ele>214.1</ele>
        <time>2024-10-17T23:00:12.416Z</time>
      </trkpt>
      <trkpt lat="46.89637" lon="-0.96648">
        <ele>214.4</ele>
        <time>2024-10-17T23:00:14.355Z</time>
      </trkpt>
      <trkpt lat="46.89624" lon="-0.96661">
        <ele>215.3</ele>
        <time>2024-10-17T23:00:18.921Z</time>
      </trkpt>
      <trkpt lat="46.8961" lon="-0.96681">
        <ele>216.6</ele>
        <time>2024-10-17T23:00:25.341Z</time>
      </trkpt>
      <trkpt lat="46.89596" lon="-0.96704">
        <ele>217.7</ele>
        <time>2024-10-17T23:00:31.068Z</time>
      </trkpt>
      <trkpt lat="46.89576" lon="-0.96737">
        <ele>219.4</ele>
        <time>2024-10-17T23:00:39.722Z</time>
      </trkpt>
      <trkpt lat="46.89552" lon="-0.96774">
        <ele>222</ele>
        <time>2024-10-17T23:00:52.499Z</time>
      </trkpt>
      <trkpt lat="46.89537" lon="-0.96795">
        <ele>222.7</ele>
        <time>2024-10-17T23:00:56.995Z</time>
      </trkpt>
      <trkpt lat="46.89527" lon="-0.9681">
        <ele>223.2</ele>
        <time>2024-10-17T23:01:00.141Z</time>
      </trkpt>
      <trkpt lat="46.89514" lon="-0.96831">
        <ele>223.9</ele>
        <time>2024-10-17T23:01:04.457Z</time>
      </trkpt>
      <trkpt lat="46.89488" lon="-0.96874">
        <ele>226.7</ele>
        <time>2024-10-17T23:01:18.220Z</time>
      </trkpt>
      <trkpt lat="46.89473" lon="-0.96899">
        <ele>228.3</ele>
        <time>2024-10-17T23:01:26.088Z</time>
      </trkpt>
      <trkpt lat="46.89462" lon="-0.96917">
        <ele>229.4</ele>
        <time>2024-10-17T23:01:31.519Z</time>
      </trkpt>
      <trkpt lat="46.89453" lon="-0.96932">
        <ele>229.9</ele>
        <time>2024-10-17T23:01:34.578Z</time>
      </trkpt>
      <trkpt lat="46.89443" lon="-0.96947">
        <ele>230.1</ele>
        <time>2024-10-17T23:01:37.071Z</time>
      </trkpt>
      <trkpt lat="46.89432" lon="-0.96965">
        <ele>230.4</ele>
        <time>2024-10-17T23:01:40.075Z</time>
      </trkpt>
      <trkpt lat="46.89422" lon="-0.96983">
        <ele>229.9</ele>
        <time>2024-10-17T23:01:41.907Z</time>
      </trkpt>
      <trkpt lat="46.89409" lon="-0.97002">
        <ele>228.8</ele>
        <time>2024-10-17T23:01:43.650Z</time>
      </trkpt>
      <trkpt lat="46.89398" lon="-0.97019">
        <ele>228.6</ele>
        <time>2024-10-17T23:01:45.812Z</time>
      </trkpt>
      <trkpt lat="46.89385" lon="-0.97031">
        <ele>227.5</ele>
        <time>2024-10-17T23:01:47.210Z</time>
      </trkpt>
      <trkpt lat="46.89367" lon="-0.97044">
        <ele>226.2</ele>
        <time>2024-10-17T23:01:49.056Z</time>
      </trkpt>
      <trkpt lat="46.89347" lon="-0.97054">
        <ele>226.8</ele>
        <time>2024-10-17T23:01:53.361Z</time>
      </trkpt>
      <trkpt lat="46.89332" lon="-0.97061">
        <ele>227.2</ele>
        <time>2024-10-17T23:01:56.462Z</time>
      </trkpt>
      <trkpt lat="46.89319" lon="-0.97068">
        <ele>227.7</ele>
        <time>2024-10-17T23:01:59.548Z</time>
      </trkpt>
      <trkpt lat="46.893" lon="-0.97076">
        <ele>228</ele>
        <time>2024-10-17T23:02:03.034Z</time>
      </trkpt>
      <trkpt lat="46.89284" lon="-0.97084">
        <ele>227.5</ele>
        <time>2024-10-17T23:02:05.019Z</time>
      </trkpt>
      <trkpt lat="46.89274" lon="-0.97088">
        <ele>227</ele>
        <time>2024-10-17T23:02:06.080Z</time>
      </trkpt>
      <trkpt lat="46.89257" lon="-0.97093">
        <ele>227</ele>
        <time>2024-10-17T23:02:08.707Z</time>
      </trkpt>
      <trkpt lat="46.89241" lon="-0.97093">
        <ele>227.3</ele>
        <time>2024-10-17T23:02:11.638Z</time>
      </trkpt>
      <trkpt lat="46.89231" lon="-0.97092">
        <ele>227.7</ele>
        <time>2024-10-17T23:02:13.975Z</time>
      </trkpt>
      <trkpt lat="46.89218" lon="-0.97093">
        <ele>228.2</ele>
        <time>2024-10-17T23:02:16.956Z</time>
      </trkpt>
      <trkpt lat="46.89206" lon="-0.97095">
        <ele>228.6</ele>
        <time>2024-10-17T23:02:19.553Z</time>
      </trkpt>
      <trkpt lat="46.89195" lon="-0.97097">
        <ele>229</ele>
        <time>2024-10-17T23:02:22.022Z</time>
      </trkpt>
      <trkpt lat="46.89183" lon="-0.97102">
        <ele>229.8</ele>
        <time>2024-10-17T23:02:25.990Z</time>
      </trkpt>
      <trkpt lat="46.89168" lon="-0.97111">
        <ele>230.9</ele>
        <time>2024-10-17T23:02:31.412Z</time>
      </trkpt>
      <trkpt lat="46.89157" lon="-0.9712">
        <ele>231.1</ele>
        <time>2024-10-17T23:02:33.651Z</time>
      </trkpt>
      <trkpt lat="46.89145" lon="-0.97131">
        <ele>231.6</ele>
        <time>2024-10-17T23:02:36.776Z</time>
      </trkpt>
      <trkpt lat="46.89129" lon="-0.97147">
        <ele>232.6</ele>
        <time>2024-10-17T23:02:42.004Z</time>
      </trkpt>
      <trkpt lat="46.89113" lon="-0.97163">
        <ele>233.7</ele>
        <time>2024-10-17T23:02:47.594Z</time>
      </trkpt>
      <trkpt lat="46.89097" lon="-0.97179">
        <ele>234.9</ele>
        <time>2024-10-17T23:02:53.579Z</time>
      </trkpt>
      <trkpt lat="46.89078" lon="-0.97198">
        <ele>236.4</ele>
        <time>2024-10-17T23:03:01.003Z</time>
      </trkpt>
      <trkpt lat="46.89059" lon="-0.9721">
        <ele>238</ele>
        <time>2024-10-17T23:03:08.876Z</time>
      </trkpt>
      <trkpt lat="46.89039" lon="-0.9722">
        <ele>239.5</ele>
        <time>2024-10-17T23:03:16.250Z</time>
      </trkpt>
      <trkpt lat="46.89021" lon="-0.97229">
        <ele>240.7</ele>
        <time>2024-10-17T23:03:22.217Z</time>
      </trkpt>
      <trkpt lat="46.8901" lon="-0.97235">
        <ele>241.3</ele>
        <time>2024-10-17T23:03:25.364Z</time>
      </trkpt>
      <trkpt lat="46.88999" lon="-0.97239">
        <ele>241.6</ele>
        <time>2024-10-17T23:03:27.623Z</time>
      </trkpt>
      <trkpt lat="46.88989" lon="-0.9724">
        <ele>241.4</ele>
        <time>2024-10-17T23:03:28.895Z</time>
      </trkpt>
      <trkpt lat="46.88972" lon="-0.9724">
        <ele>241</ele>
        <time>2024-10-17T23:03:30.989Z</time>
      </trkpt>
      <trkpt lat="46.88955" lon="-0.97239">
        <ele>240.6</ele>
        <time>2024-10-17T23:03:33.085Z</time>
      </trkpt>
      <trkpt lat="46.88939" lon="-0.97237">
        <ele>240.4</ele>
        <time>2024-10-17T23:03:35.256Z</time>
      </trkpt>
      <trkpt lat="46.88916" lon="-0.97238">
        <ele>239.9</ele>
        <time>2024-10-17T23:03:38.132Z</time>
      </trkpt>
      <trkpt lat="46.889" lon="-0.97236">
        <ele>238.5</ele>
        <time>2024-10-17T23:03:39.592Z</time>
      </trkpt>
      <trkpt lat="46.88892" lon="-0.97236">
        <ele>237.8</ele>
        <time>2024-10-17T23:03:40.320Z</time>
      </trkpt>
      <trkpt lat="46.88881" lon="-0.97234">
        <ele>236.7</ele>
        <time>2024-10-17T23:03:41.327Z</time>
      </trkpt>
      <trkpt lat="46.88872" lon="-0.9723">
        <ele>235.9</ele>
        <time>2024-10-17T23:03:42.183Z</time>
      </trkpt>
      <trkpt lat="46.88853" lon="-0.97221">
        <ele>234.4</ele>
        <time>2024-10-17T23:03:43.998Z</time>
      </trkpt>
      <trkpt lat="46.88834" lon="-0.97212">
        <ele>233</ele>
        <time>2024-10-17T23:03:45.814Z</time>
      </trkpt>
      <trkpt lat="46.88819" lon="-0.97206">
        <ele>232.5</ele>
        <time>2024-10-17T23:03:47.603Z</time>
      </trkpt>
      <trkpt lat="46.88794" lon="-0.97193">
        <ele>231.5</ele>
        <time>2024-10-17T23:03:50.531Z</time>
      </trkpt>
      <trkpt lat="46.88759" lon="-0.97175">
        <ele>230.1</ele>
        <time>2024-10-17T23:03:54.624Z</time>
      </trkpt>
      <trkpt lat="46.88737" lon="-0.97161">
        <ele>229.4</ele>
        <time>2024-10-17T23:03:57.449Z</time>
      </trkpt>
      <trkpt lat="46.88717" lon="-0.97146">
        <ele>229</ele>
        <time>2024-10-17T23:04:00.352Z</time>
      </trkpt>
      <trkpt lat="46.88693" lon="-0.97127">
        <ele>229</ele>
        <time>2024-10-17T23:04:04.486Z</time>
      </trkpt>
      <trkpt lat="46.88677" lon="-0.97114">
        <ele>228.9</ele>
        <time>2024-10-17T23:04:07.122Z</time>
      </trkpt>
      <trkpt lat="46.88664" lon="-0.97101">
        <ele>228.5</ele>
        <time>2024-10-17T23:04:09.032Z</time>
      </trkpt>
      <trkpt lat="46.88649" lon="-0.97087">
        <ele>228</ele>
        <time>2024-10-17T23:04:11.144Z</time>
      </trkpt>
      <trkpt lat="46.88632" lon="-0.97066">
        <ele>227.7</ele>
        <time>2024-10-17T23:04:14.126Z</time>
      </trkpt>
      <trkpt lat="46.88616" lon="-0.97047">
        <ele>227.4</ele>
        <time>2024-10-17T23:04:16.863Z</time>
      </trkpt>
      <trkpt lat="46.88599" lon="-0.97026">
        <ele>227.6</ele>
        <time>2024-10-17T23:04:20.544Z</time>
      </trkpt>
      <trkpt lat="46.88584" lon="-0.9701">
        <ele>227.6</ele>
        <time>2024-10-17T23:04:23.357Z</time>
      </trkpt>
      <trkpt lat="46.88572" lon="-0.96997">
        <ele>227.9</ele>
        <time>2024-10-17T23:04:26.131Z</time>
      </trkpt>
      <trkpt lat="46.88551" lon="-0.96973">
        <ele>228</ele>
        <time>2024-10-17T23:04:30.317Z</time>
      </trkpt>
      <trkpt lat="46.88529" lon="-0.96949">
        <ele>227.2</ele>
        <time>2024-10-17T23:04:33.549Z</time>
      </trkpt>
      <trkpt lat="46.8851" lon="-0.96925">
        <ele>226</ele>
        <time>2024-10-17T23:04:36.126Z</time>
      </trkpt>
      <trkpt lat="46.8849" lon="-0.96899">
        <ele>225</ele>
        <time>2024-10-17T23:04:39.086Z</time>
      </trkpt>
      <trkpt lat="46.88476" lon="-0.96881">
        <ele>224.3</ele>
        <time>2024-10-17T23:04:41.144Z</time>
      </trkpt>
      <trkpt lat="46.8846" lon="-0.96861">
        <ele>223.9</ele>
        <time>2024-10-17T23:04:43.835Z</time>
      </trkpt>
      <trkpt lat="46.88462" lon="-0.96868">
        <ele>224</ele>
        <time>2024-10-17T23:04:44.790Z</time>
      </trkpt>
      <trkpt lat="46.88457" lon="-0.96869">
        <ele>224.4</ele>
        <time>2024-10-17T23:04:46.762Z</time>
      </trkpt>
      <trkpt lat="46.88409" lon="-0.96896">
        <ele>225.7</ele>
        <time>2024-10-17T23:04:56.876Z</time>
      </trkpt>
      <trkpt lat="46.884" lon="-0.96899">
        <ele>225.4</ele>
        <time>2024-10-17T23:04:57.935Z</time>
      </trkpt>
      <trkpt lat="46.88397" lon="-0.96908">
        <ele>225.3</ele>
        <time>2024-10-17T23:04:58.843Z</time>
      </trkpt>
      <trkpt lat="46.88392" lon="-0.96917">
        <ele>225.1</ele>
        <time>2024-10-17T23:04:59.806Z</time>
      </trkpt>
      <trkpt lat="46.88253" lon="-0.97134">
        <ele>212.3</ele>
        <time>2024-10-17T23:05:18.714Z</time>
      </trkpt>
      <trkpt lat="46.88215" lon="-0.97205">
        <ele>207.1</ele>
        <time>2024-10-17T23:05:24.317Z</time>
      </trkpt>
      <trkpt lat="46.8819" lon="-0.97263">
        <ele>202.2</ele>
        <time>2024-10-17T23:05:28.578Z</time>
      </trkpt>
      <trkpt lat="46.88179" lon="-0.973">
        <ele>199.4</ele>
        <time>2024-10-17T23:05:31.086Z</time>
      </trkpt>
      <trkpt lat="46.88167" lon="-0.97386">
        <ele>192.2</ele>
        <time>2024-10-17T23:05:36.540Z</time>
      </trkpt>
      <trkpt lat="46.88157" lon="-0.97451">
        <ele>188.4</ele>
        <time>2024-10-17T23:05:40.680Z</time>
      </trkpt>
      <trkpt lat="46.88149" lon="-0.97489">
        <ele>186.2</ele>
        <time>2024-10-17T23:05:43.151Z</time>
      </trkpt>
      <trkpt lat="46.88135" lon="-0.97533">
        <ele>183.6</ele>
        <time>2024-10-17T23:05:46.167Z</time>
      </trkpt>
      <trkpt lat="46.88121" lon="-0.97572">
        <ele>181.8</ele>
        <time>2024-10-17T23:05:49.024Z</time>
      </trkpt>
      <trkpt lat="46.88077" lon="-0.97681">
        <ele>177.5</ele>
        <time>2024-10-17T23:05:57.795Z</time>
      </trkpt>
      <trkpt lat="46.88057" lon="-0.97761">
        <ele>174.7</ele>
        <time>2024-10-17T23:06:03.762Z</time>
      </trkpt>
      <trkpt lat="46.88051" lon="-0.97776">
        <ele>173.7</ele>
        <time>2024-10-17T23:06:04.842Z</time>
      </trkpt>
      <trkpt lat="46.88046" lon="-0.9778">
        <ele>173.2</ele>
        <time>2024-10-17T23:06:05.360Z</time>
      </trkpt>
      <trkpt lat="46.88039" lon="-0.97782">
        <ele>172.6</ele>
        <time>2024-10-17T23:06:06.008Z</time>
      </trkpt>
      <trkpt lat="46.87953" lon="-0.9779">
        <ele>167.3</ele>
        <time>2024-10-17T23:06:14.097Z</time>
      </trkpt>
      <trkpt lat="46.87913" lon="-0.97803">
        <ele>167.3</ele>
        <time>2024-10-17T23:06:20.306Z</time>
      </trkpt>
      <trkpt lat="46.87804" lon="-0.97847">
        <ele>172.1</ele>
        <time>2024-10-17T23:06:47.501Z</time>
      </trkpt>
      <trkpt lat="46.87725" lon="-0.9786">
        <ele>174</ele>
        <time>2024-10-17T23:07:02.899Z</time>
      </trkpt>
      <trkpt lat="46.8769" lon="-0.9787">
        <ele>173.1</ele>
        <time>2024-10-17T23:07:07.231Z</time>
      </trkpt>
      <trkpt lat="46.87667" lon="-0.97889">
        <ele>172</ele>
        <time>2024-10-17T23:07:10.064Z</time>
      </trkpt>
      <trkpt lat="46.87624" lon="-0.97935">
        <ele>169.5</ele>
        <time>2024-10-17T23:07:15.567Z</time>
      </trkpt>
      <trkpt lat="46.87577" lon="-0.97976">
        <ele>166.9</ele>
        <time>2024-10-17T23:07:21.197Z</time>
      </trkpt>
      <trkpt lat="46.87565" lon="-0.97984">
        <ele>166.5</ele>
        <time>2024-10-17T23:07:22.736Z</time>
      </trkpt>
      <trkpt lat="46.87539" lon="-0.97997">
        <ele>165.9</ele>
        <time>2024-10-17T23:07:26.167Z</time>
      </trkpt>
      <trkpt lat="46.87532" lon="-0.97999">
        <ele>165.9</ele>
        <time>2024-10-17T23:07:27.248Z</time>
        <extensions>
          <visugpx:TrkExtension xmlns:visugpx="https://www.visugpx.com/editgpx/">
            <visugpx:node>5</visugpx:node>
            </visugpx:TrkExtension>
        </extensions>
      </trkpt>
      <trkpt lat="46.87455" lon="-0.98026">
        <ele>164.9</ele>
        <time>2024-10-17T23:07:37.940Z</time>
      </trkpt>
      <trkpt lat="46.87442" lon="-0.98034">
        <ele>165</ele>
        <time>2024-10-17T23:07:40.230Z</time>
      </trkpt>
      <trkpt lat="46.8743" lon="-0.98042">
        <ele>164.5</ele>
        <time>2024-10-17T23:07:41.683Z</time>
      </trkpt>
      <trkpt lat="46.87409" lon="-0.98062">
        <ele>163.4</ele>
        <time>2024-10-17T23:07:44.327Z</time>
      </trkpt>
      <trkpt lat="46.87378" lon="-0.98099">
        <ele>161</ele>
        <time>2024-10-17T23:07:48.119Z</time>
      </trkpt>
      <trkpt lat="46.87342" lon="-0.98156">
        <ele>156.5</ele>
        <time>2024-10-17T23:07:52.942Z</time>
      </trkpt>
      <trkpt lat="46.87312" lon="-0.98194">
        <ele>152.7</ele>
        <time>2024-10-17T23:07:56.550Z</time>
      </trkpt>
      <trkpt lat="46.87242" lon="-0.98271">
        <ele>144.4</ele>
        <time>2024-10-17T23:08:04.512Z</time>
      </trkpt>
      <trkpt lat="46.8722" lon="-0.98292">
        <ele>141.9</ele>
        <time>2024-10-17T23:08:06.901Z</time>
      </trkpt>
      <trkpt lat="46.87166" lon="-0.98333">
        <ele>139</ele>
        <time>2024-10-17T23:08:13.154Z</time>
      </trkpt>
      <trkpt lat="46.87095" lon="-0.98388">
        <ele>136.6</ele>
        <time>2024-10-17T23:08:22.562Z</time>
      </trkpt>
      <trkpt lat="46.87055" lon="-0.98429">
        <ele>135.5</ele>
        <time>2024-10-17T23:08:28.628Z</time>
      </trkpt>
      <trkpt lat="46.87029" lon="-0.98448">
        <ele>133.9</ele>
        <time>2024-10-17T23:08:31.471Z</time>
      </trkpt>
      <trkpt lat="46.8702" lon="-0.98458">
        <ele>133.8</ele>
        <time>2024-10-17T23:08:33.049Z</time>
      </trkpt>
      <trkpt lat="46.87016" lon="-0.98467">
        <ele>133.6</ele>
        <time>2024-10-17T23:08:33.926Z</time>
      </trkpt>
      <trkpt lat="46.87003" lon="-0.98513">
        <ele>132</ele>
        <time>2024-10-17T23:08:37.439Z</time>
      </trkpt>
      <trkpt lat="46.86996" lon="-0.98553">
        <ele>129.3</ele>
        <time>2024-10-17T23:08:40.006Z</time>
      </trkpt>
      <trkpt lat="46.86993" lon="-0.9858">
        <ele>128.4</ele>
        <time>2024-10-17T23:08:41.922Z</time>
      </trkpt>
      <trkpt lat="46.86987" lon="-0.98665">
        <ele>124.1</ele>
        <time>2024-10-17T23:08:47.233Z</time>
      </trkpt>
      <trkpt lat="46.86984" lon="-0.98738">
        <ele>120.8</ele>
        <time>2024-10-17T23:08:51.798Z</time>
      </trkpt>
      <trkpt lat="46.86982" lon="-0.98743">
        <ele>120.7</ele>
        <time>2024-10-17T23:08:52.279Z</time>
      </trkpt>
      <trkpt lat="46.86976" lon="-0.98748">
        <ele>120.9</ele>
        <time>2024-10-17T23:08:53.695Z</time>
      </trkpt>
      <trkpt lat="46.86959" lon="-0.98746">
        <ele>123.9</ele>
        <time>2024-10-17T23:09:04.770Z</time>
      </trkpt>
      <trkpt lat="46.86951" lon="-0.98741">
        <ele>125.6</ele>
        <time>2024-10-17T23:09:10.420Z</time>
      </trkpt>
      <trkpt lat="46.86941" lon="-0.98733">
        <ele>126.2</ele>
        <time>2024-10-17T23:09:13.536Z</time>
      </trkpt>
      <trkpt lat="46.86924" lon="-0.98723">
        <ele>122.6</ele>
        <time>2024-10-17T23:09:15.202Z</time>
      </trkpt>
      <trkpt lat="46.86913" lon="-0.98724">
        <ele>120.8</ele>
        <time>2024-10-17T23:09:16.204Z</time>
      </trkpt>
      <trkpt lat="46.86909" lon="-0.98726">
        <ele>120.6</ele>
        <time>2024-10-17T23:09:16.640Z</time>
      </trkpt>
      <trkpt lat="46.86903" lon="-0.98736">
        <ele>120.3</ele>
        <time>2024-10-17T23:09:17.680Z</time>
      </trkpt>
      <trkpt lat="46.86894" lon="-0.98771">
        <ele>121</ele>
        <time>2024-10-17T23:09:22.828Z</time>
      </trkpt>
      <trkpt lat="46.86879" lon="-0.98826">
        <ele>121.2</ele>
        <time>2024-10-17T23:09:29.262Z</time>
      </trkpt>
      <trkpt lat="46.86873" lon="-0.98838">
        <ele>122</ele>
        <time>2024-10-17T23:09:33.203Z</time>
      </trkpt>
      <trkpt lat="46.86869" lon="-0.98842">
        <ele>122.2</ele>
        <time>2024-10-17T23:09:34.352Z</time>
      </trkpt>
      <trkpt lat="46.86858" lon="-0.98846">
        <ele>122.2</ele>
        <time>2024-10-17T23:09:36.069Z</time>
      </trkpt>
      <trkpt lat="46.86785" lon="-0.98849">
        <ele>126.2</ele>
        <time>2024-10-17T23:09:56.596Z</time>
      </trkpt>
      <trkpt lat="46.86678" lon="-0.98853">
        <ele>133.5</ele>
        <time>2024-10-17T23:10:32.564Z</time>
      </trkpt>
      <trkpt lat="46.86686" lon="-0.98893">
        <ele>132.6</ele>
        <time>2024-10-17T23:10:35.857Z</time>
      </trkpt>
      <trkpt lat="46.8671" lon="-0.99051">
        <ele>126.4</ele>
        <time>2024-10-17T23:10:46.612Z</time>
      </trkpt>
      <trkpt lat="46.86713" lon="-0.99073">
        <ele>126.2</ele>
        <time>2024-10-17T23:10:48.675Z</time>
      </trkpt>
      <trkpt lat="46.86715" lon="-0.99086">
        <ele>126.3</ele>
        <time>2024-10-17T23:10:50.213Z</time>
      </trkpt>
      <trkpt lat="46.86723" lon="-0.99141">
        <ele>127</ele>
        <time>2024-10-17T23:10:57.213Z</time>
      </trkpt>
      <trkpt lat="46.86725" lon="-0.99155">
        <ele>127.3</ele>
        <time>2024-10-17T23:10:59.258Z</time>
      </trkpt>
      <trkpt lat="46.86734" lon="-0.9922">
        <ele>127.6</ele>
        <time>2024-10-17T23:11:06.584Z</time>
      </trkpt>
      <trkpt lat="46.86741" lon="-0.99262">
        <ele>127.6</ele>
        <time>2024-10-17T23:11:11.063Z</time>
        <extensions>
          <visugpx:TrkExtension xmlns:visugpx="https://www.visugpx.com/editgpx/">
            <visugpx:node>6</visugpx:node>
            </visugpx:TrkExtension>
        </extensions>
      </trkpt>
      <trkpt lat="46.86756" lon="-0.99359">
        <ele>126.4</ele>
        <time>2024-10-17T23:11:19.856Z</time>
      </trkpt>
      <trkpt lat="46.86794" lon="-0.99621">
        <ele>125.2</ele>
        <time>2024-10-17T23:11:45.961Z</time>
      </trkpt>
      <trkpt lat="46.86804" lon="-0.99692">
        <ele>124.3</ele>
        <time>2024-10-17T23:11:52.342Z</time>
      </trkpt>
      <trkpt lat="46.86829" lon="-0.99867">
        <ele>121.8</ele>
        <time>2024-10-17T23:12:07.782Z</time>
      </trkpt>
      <trkpt lat="46.8683" lon="-0.99902">
        <ele>121.6</ele>
        <time>2024-10-17T23:12:11.141Z</time>
      </trkpt>
      <trkpt lat="46.86828" lon="-0.9992">
        <ele>121.9</ele>
        <time>2024-10-17T23:12:13.561Z</time>
      </trkpt>
      <trkpt lat="46.86834" lon="-0.99921">
        <ele>121</ele>
        <time>2024-10-17T23:12:14.110Z</time>
      </trkpt>
      <trkpt lat="46.86839" lon="-0.99926">
        <ele>120.6</ele>
        <time>2024-10-17T23:12:14.662Z</time>
      </trkpt>
      <trkpt lat="46.8684" lon="-0.9993">
        <ele>120.5</ele>
        <time>2024-10-17T23:12:14.992Z</time>
      </trkpt>
      <trkpt lat="46.86838" lon="-0.99942">
        <ele>120.7</ele>
        <time>2024-10-17T23:12:16.624Z</time>
      </trkpt>
      <trkpt lat="46.86834" lon="-0.99946">
        <ele>120.9</ele>
        <time>2024-10-17T23:12:17.772Z</time>
      </trkpt>
      <trkpt lat="46.86848" lon="-0.99996">
        <ele>119.9</ele>
        <time>2024-10-17T23:12:22.195Z</time>
      </trkpt>
      <trkpt lat="46.86894" lon="-1.00304">
        <ele>115.3</ele>
        <time>2024-10-17T23:12:49.222Z</time>
      </trkpt>
      <trkpt lat="46.86906" lon="-1.0038">
        <ele>114.2</ele>
        <time>2024-10-17T23:12:55.948Z</time>
      </trkpt>
      <trkpt lat="46.86919" lon="-1.00481">
        <ele>111.8</ele>
        <time>2024-10-17T23:13:03.910Z</time>
      </trkpt>
      <trkpt lat="46.86937" lon="-1.00597">
        <ele>110.5</ele>
        <time>2024-10-17T23:13:14.577Z</time>
      </trkpt>
      <trkpt lat="46.86946" lon="-1.00656">
        <ele>108.9</ele>
        <time>2024-10-17T23:13:19.104Z</time>
      </trkpt>
      <trkpt lat="46.86937" lon="-1.00659">
        <ele>109.4</ele>
        <time>2024-10-17T23:13:21.678Z</time>
      </trkpt>
      <trkpt lat="46.86928" lon="-1.00658">
        <ele>110</ele>
        <time>2024-10-17T23:13:24.641Z</time>
      </trkpt>
      <trkpt lat="46.869" lon="-1.0065">
        <ele>111.1</ele>
        <time>2024-10-17T23:13:31.185Z</time>
      </trkpt>
      <trkpt lat="46.86854" lon="-1.00633">
        <ele>111.2</ele>
        <time>2024-10-17T23:13:38.521Z</time>
      </trkpt>
      <trkpt lat="46.86845" lon="-1.00632">
        <ele>111.2</ele>
        <time>2024-10-17T23:13:39.889Z</time>
      </trkpt>
      <trkpt lat="46.86837" lon="-1.00634">
        <ele>111.2</ele>
        <time>2024-10-17T23:13:41.119Z</time>
      </trkpt>
      <trkpt lat="46.86766" lon="-1.00654">
        <ele>110</ele>
        <time>2024-10-17T23:13:50.553Z</time>
      </trkpt>
      <trkpt lat="46.86725" lon="-1.00669">
        <ele>110</ele>
        <time>2024-10-17T23:13:56.957Z</time>
      </trkpt>
      <trkpt lat="46.86714" lon="-1.00673">
        <ele>110</ele>
        <time>2024-10-17T23:13:58.675Z</time>
      </trkpt>
      <trkpt lat="46.86712" lon="-1.00666">
        <ele>110</ele>
        <time>2024-10-17T23:13:59.461Z</time>
      </trkpt>
      <trkpt lat="46.86709" lon="-1.0066">
        <ele>110</ele>
        <time>2024-10-17T23:14:00.231Z</time>
      </trkpt>
      <trkpt lat="46.86685" lon="-1.00653">
        <ele>110.3</ele>
        <time>2024-10-17T23:14:04.417Z</time>
      </trkpt>
      <trkpt lat="46.86608" lon="-1.00631">
        <ele>112.2</ele>
        <time>2024-10-17T23:14:19.667Z</time>
      </trkpt>
      <trkpt lat="46.8659" lon="-1.00625">
        <ele>113.1</ele>
        <time>2024-10-17T23:14:24.470Z</time>
      </trkpt>
      <trkpt lat="46.86569" lon="-1.00612">
        <ele>114.1</ele>
        <time>2024-10-17T23:14:30.050Z</time>
      </trkpt>
      <trkpt lat="46.86555" lon="-1.00602">
        <ele>114.7</ele>
        <time>2024-10-17T23:14:33.622Z</time>
      </trkpt>
      <trkpt lat="46.86535" lon="-1.00588">
        <ele>114.4</ele>
        <time>2024-10-17T23:14:36.593Z</time>
      </trkpt>
      <trkpt lat="46.8652" lon="-1.00578">
        <ele>114.9</ele>
        <time>2024-10-17T23:14:40.026Z</time>
      </trkpt>
      <trkpt lat="46.86496" lon="-1.00567">
        <ele>117.2</ele>
        <time>2024-10-17T23:14:51.590Z</time>
      </trkpt>
      <trkpt lat="46.8647" lon="-1.00561">
        <ele>117.3</ele>
        <time>2024-10-17T23:14:55.727Z</time>
      </trkpt>
      <trkpt lat="46.86453" lon="-1.00561">
        <ele>117.9</ele>
        <time>2024-10-17T23:14:59.478Z</time>
      </trkpt>
      <trkpt lat="46.86442" lon="-1.00562">
        <ele>118.3</ele>
        <time>2024-10-17T23:15:01.939Z</time>
        <extensions>
          <visugpx:TrkExtension xmlns:visugpx="https://www.visugpx.com/editgpx/">
            <visugpx:node>7</visugpx:node>
            </visugpx:TrkExtension>
        </extensions>
      </trkpt>
      <trkpt lat="46.86422" lon="-1.00563">
        <ele>119.1</ele>
        <time>2024-10-17T23:15:06.609Z</time>
      </trkpt>
      <trkpt lat="46.86396" lon="-1.00556">
        <ele>119</ele>
        <time>2024-10-17T23:15:10.475Z</time>
      </trkpt>
      <trkpt lat="46.86388" lon="-1.00558">
        <ele>119.1</ele>
        <time>2024-10-17T23:15:11.864Z</time>
      </trkpt>
      <trkpt lat="46.86382" lon="-1.00563">
        <ele>119.2</ele>
        <time>2024-10-17T23:15:13.073Z</time>
      </trkpt>
      <trkpt lat="46.86368" lon="-1.0058">
        <ele>119.2</ele>
        <time>2024-10-17T23:15:15.830Z</time>
      </trkpt>
      <trkpt lat="46.86326" lon="-1.00624">
        <ele>118.2</ele>
        <time>2024-10-17T23:15:22.416Z</time>
        <extensions>
          <visugpx:TrkExtension xmlns:visugpx="https://www.visugpx.com/editgpx/">
            <visugpx:node>8</visugpx:node>
            </visugpx:TrkExtension>
        </extensions>
      </trkpt>
    </trkseg>
  </trk>
</gpx>